[[{"header":{"parameterUnit":"m.s-1","parameterCategory":1,"la1":30.6,"la2":29.2853,"lo1":-89.7004,"lo2":-87.6739,"dy":0.0162,"dx":0.0183,"nx":112,"ny":82,"refTime":"2024-09-11T12:00:00:Z","depth":0,"parameterNumber":2,"parameterNumberName":"U-component_of_WINDS"},"data":[0.0,0.0,0.0,0.0,0.0,0.0,0.0,0.0,0.0,0.0,0.0,0.0,0.0,0.0,0.0,0.0,0.0,0.0,0.0,0.0,0.0,0.0,0.0,0.0,0.0,0.0,0.0,0.0,0.0,0.0,0.0,0.0,0.0,0.0,0.0,0.0,0.0,0.0,0.0,0.0,0.0,0.0,0.0,0.0,0.0,0.0,0.0,0.0,0.0,0.0,0.0,0.0,0.0,0.0,0.0,0.0,0.0,0.0,0.0,0.0,0.0,0.0,0.0,0.0,0.0,0.0,0.0,0.0,0.0,0.0,0.0,0.0,0.0,0.0,0.0,0.0,0.0,0.0,0.0,0.0,0.0,0.0,0.0,0.0,0.0,0.0,0.0,0.0,0.0,0.0,1.1409,1.1952,1.244,1.263,1.2386,1.2033,1.1463,1.0622,0.0,0.0,0.0,0.0,0.0,0.0,0.0,0.0,0.0,0.0,0.0,0.0,0.0,0.0,0.0,0.0,0.0,0.0,0.0,0.0,0.0,0.0,0.0,0.0,0.0,0.0,0.0,0.0,0.0,0.0,0.0,0.0,0.0,0.0,0.0,0.0,0.0,0.0,0.0,0.0,0.0,0.0,0.0,0.0,0.0,0.0,0.0,0.0,0.0,0.0,0.0,0.0,0.0,0.0,0.0,0.0,0.0,0.0,0.0,0.0,0.0,0.0,0.0,0.0,0.0,0.0,0.0,0.0,0.0,0.0,0.0,0.0,0.0,0.0,0.0,0.0,0.0,0.0,0.0,0.0,0.0,0.0,0.0,0.0,0.0,0.0,0.0,0.0,0.0,0.0,0.0,0.0,0.0,0.0,0.0,0.0,0.0,0.0,0.0,0.0,0.0,0.0,0.0,0.0,1.1721,1.2684,1.2752,1.2712,1.2671,1.2155,1.1558,1.0853,0.0,0.0,0.0,0.0,0.0,0.0,0.0,0.0,0.0,0.0,0.0,0.0,0.0,0.0,0.0,0.0,0.0,0.0,0.0,0.0,0.0,0.0,0.0,0.0,0.0,0.0,0.0,0.0,0.0,0.0,0.0,0.0,0.0,0.0,0.0,0.0,0.0,0.0,0.0,0.0,0.0,0.0,0.0,0.0,0.0,0.0,0.0,0.0,0.0,0.0,0.0,0.0,0.0,0.0,0.0,0.0,0.0,0.0,0.0,0.0,0.0,0.0,0.0,0.0,0.0,0.0,0.0,0.0,0.0,0.0,0.0,0.0,0.0,0.0,0.0,0.0,0.0,0.0,0.0,0.0,0.0,0.0,0.0,0.0,0.0,0.0,0.0,0.0,0.0,0.0,0.0,0.0,0.0,0.0,0.0,0.0,0.0,0.0,0.0,0.0,0.0,0.0,0.0,1.1748,1.2182,1.2983,1.301,1.2942,1.2861,1.2305,1.1708,1.1097,1.0432,0.0,0.0,0.0,0.0,0.0,0.0,0.0,0.0,0.0,0.0,0.0,0.0,0.0,0.0,0.0,0.0,0.0,0.0,0.0,0.0,0.0,0.0,0.0,0.0,0.0,0.0,0.0,0.0,0.0,0.0,0.0,0.0,0.0,0.0,0.0,0.0,0.0,0.0,0.0,0.0,0.0,0.0,0.0,0.0,0.0,0.0,0.0,0.0,0.0,0.0,0.0,0.0,0.0,0.0,0.0,0.0,0.0,0.0,0.0,0.0,0.0,0.0,0.0,0.0,0.0,0.0,0.0,0.0,0.0,0.0,0.0,0.0,0.0,0.0,0.0,0.0,0.0,0.0,0.0,0.0,0.0,0.0,0.0,0.0,0.0,0.0,0.0,0.0,0.0,0.0,0.0,0.0,0.0,0.0,0.0,0.0,0.0,0.0,0.0,0.0,0.0,0.0,1.2359,1.2644,1.3173,1.3159,1.3078,1.2969,1.2381,1.1681,1.1151,1.0378,0.0,0.0,0.0,0.0,0.0,0.0,0.0,0.0,0.0,0.0,0.0,0.0,0.0,0.0,0.0,0.0,0.0,0.0,0.0,0.0,0.0,0.0,0.0,0.0,0.0,0.0,0.0,0.0,0.0,0.0,0.0,0.0,0.0,0.0,0.0,0.0,0.0,0.0,0.0,0.0,0.0,0.0,0.0,0.0,0.0,0.0,0.0,0.0,0.0,0.0,0.0,0.0,0.0,0.0,0.0,0.0,0.0,0.0,0.0,0.0,0.0,0.0,0.0,0.0,0.0,0.0,0.0,0.0,0.0,0.0,0.0,0.0,0.0,0.0,0.0,0.0,0.0,0.0,0.0,0.0,0.0,0.0,0.0,0.0,0.0,0.0,0.0,0.0,0.0,0.0,0.0,0.0,0.0,0.0,0.0,0.0,0.0,0.0,0.0,0.0,0.0,0.0,1.2562,1.3037,1.3349,1.3132,1.2969,1.2956,1.202,1.1301,1.0921,1.0134,0.0,0.0,0.0,0.0,0.0,0.0,0.0,0.0,0.0,0.0,0.0,0.0,0.0,0.0,0.0,0.0,0.0,0.0,0.0,0.0,0.0,0.0,0.0,0.0,0.0,0.0,0.0,0.0,0.0,0.0,0.0,0.0,0.0,0.0,0.0,0.0,0.0,0.0,0.0,0.0,0.0,0.0,0.0,0.0,0.0,0.0,0.0,0.0,0.0,0.0,0.0,0.0,0.0,0.0,0.0,0.0,0.0,0.0,0.0,0.0,0.0,0.0,0.0,0.0,0.0,0.0,0.0,0.0,0.0,0.0,0.0,0.0,0.0,0.0,0.0,0.0,0.0,0.0,0.0,0.0,0.0,0.0,0.0,0.0,0.0,0.0,0.0,0.0,0.0,0.0,0.0,0.0,0.0,0.0,0.0,0.0,0.0,0.0,0.0,0.0,0.0,0.0,1.2427,1.2861,0.0,1.3214,1.3064,1.305,1.225,1.1558,1.0921,0.0,0.0,0.0,0.0,0.0,0.0,0.0,0.0,0.0,0.0,0.0,0.0,0.0,0.0,0.0,0.0,0.0,0.0,0.0,0.0,0.0,0.0,0.0,0.0,0.0,0.0,0.0,0.0,0.0,0.0,0.0,0.0,0.0,0.0,0.0,0.0,0.0,0.0,0.0,0.0,0.0,0.0,0.0,0.0,0.0,0.0,0.0,0.0,0.0,0.0,0.0,0.0,0.0,0.0,0.0,0.0,0.0,0.0,0.0,0.0,0.0,0.0,0.0,0.0,0.0,0.0,0.0,0.0,0.0,0.0,0.0,0.0,0.0,0.0,0.0,0.0,0.0,0.0,0.0,0.0,0.0,0.0,0.0,0.0,0.0,0.0,0.0,0.0,0.0,0.0,0.0,0.0,0.0,0.0,0.0,0.0,0.0,0.0,0.0,0.0,0.0,0.0,1.1965,1.244,1.2888,1.3349,1.3227,1.3051,1.2901,1.221,1.1504,1.0839,0.0,0.0,0.0,0.0,0.0,0.0,0.0,0.0,0.0,0.0,0.0,0.0,0.0,0.0,0.0,0.0,0.0,0.0,0.0,0.0,0.0,0.0,0.0,0.0,0.0,0.0,0.0,0.0,0.0,0.0,0.0,0.0,0.0,0.0,0.0,0.0,0.0,0.0,0.0,0.0,0.0,0.0,0.0,0.0,0.0,0.0,0.0,0.0,0.0,0.0,0.0,0.0,0.0,0.0,0.0,0.0,0.0,0.0,0.0,0.0,0.0,0.0,0.0,0.0,0.0,0.0,0.0,0.0,0.0,0.0,0.0,0.0,0.0,0.0,0.0,0.0,0.0,0.0,0.0,0.0,0.0,0.0,0.0,0.0,0.0,0.0,0.0,0.0,0.0,0.0,0.0,0.0,0.0,0.0,0.0,0.0,0.0,0.0,0.0,0.0,0.0,0.0,1.2006,1.2712,1.3227,1.339,1.3132,1.2901,1.2739,1.1775,1.0975,0.0,0.0,0.0,0.0,0.0,0.0,0.0,0.0,0.0,0.0,0.0,0.0,0.0,0.0,0.0,0.0,0.0,0.0,0.0,0.0,0.0,0.0,0.0,0.0,0.0,0.0,0.0,0.0,0.0,0.0,0.0,0.0,0.0,0.0,0.0,0.0,0.0,0.0,0.0,0.0,0.0,0.0,0.0,0.0,0.0,0.0,0.0,0.0,0.0,0.0,0.0,0.0,0.0,0.0,0.0,0.0,0.0,0.0,0.0,0.0,0.0,0.0,0.0,0.0,0.0,0.0,0.0,0.0,0.0,0.0,0.0,0.0,0.0,0.0,0.0,0.0,0.0,0.0,0.0,0.0,0.0,0.0,0.0,0.0,0.0,0.0,0.0,0.0,0.0,0.0,0.0,0.0,0.0,0.0,0.0,0.0,0.0,0.0,0.0,0.0,0.0,0.0,0.0,1.2169,1.2779,1.3268,1.3539,1.3295,1.301,1.2752,1.206,1.1314,1.0541,0.0,0.0,0.0,0.0,0.0,0.0,0.0,0.0,0.0,0.0,0.0,0.0,0.0,0.0,0.0,0.0,0.0,0.0,0.0,0.0,0.0,0.0,0.0,0.0,0.0,0.0,0.0,0.0,0.0,0.0,0.0,0.0,0.0,0.0,0.0,0.0,0.0,0.0,0.0,0.0,0.0,0.0,0.0,0.0,0.0,0.0,0.0,0.0,0.0,0.0,0.0,0.0,0.0,0.0,0.0,0.0,0.0,0.0,0.0,0.0,0.0,0.0,0.0,0.0,0.0,0.0,0.0,0.0,0.0,0.0,0.0,0.0,0.0,0.0,0.0,0.0,0.0,0.0,0.0,0.0,0.0,0.0,0.0,0.0,0.0,0.0,0.0,0.0,0.0,0.0,0.0,0.0,0.0,0.0,0.0,0.0,0.0,0.0,0.0,0.0,0.0,0.0,1.2155,1.282,1.3336,1.3512,1.3322,1.3051,1.2752,1.2237,1.1545,1.0636,0.0,0.0,0.0,0.0,0.0,0.0,0.0,0.0,0.0,0.0,0.0,0.0,0.0,0.0,0.0,0.0,0.0,0.0,0.0,0.0,0.0,0.0,0.0,0.0,0.0,0.0,0.0,0.0,0.0,0.0,0.0,0.0,0.0,0.0,0.0,0.0,0.0,0.0,0.0,0.0,0.0,0.0,0.0,0.0,0.0,0.0,0.0,0.0,0.0,0.0,0.0,0.0,0.0,0.0,0.0,0.0,0.0,0.0,0.0,0.0,0.0,0.0,0.0,0.0,0.0,0.0,0.0,0.0,0.0,0.0,0.0,0.0,0.0,0.0,0.0,0.0,0.0,0.0,0.0,0.0,0.0,0.0,0.0,0.0,0.0,0.0,0.0,0.0,0.0,0.0,0.0,0.0,0.0,0.0,0.0,0.0,0.0,0.0,0.0,0.0,0.0,0.0,1.2088,1.2861,1.3417,1.3444,1.3295,1.3064,1.2752,1.2345,1.1708,1.0799,0.0,0.0,0.0,0.0,0.0,0.0,0.0,0.0,0.0,0.0,0.0,0.0,0.0,0.0,0.0,0.0,0.0,0.0,0.0,0.0,0.0,0.0,0.0,0.0,0.0,0.0,0.0,0.0,0.0,0.0,0.0,0.0,0.0,0.0,0.0,0.0,0.0,0.0,0.0,0.0,0.0,0.0,0.0,0.0,0.0,0.0,0.0,0.0,0.0,0.0,0.0,0.0,0.0,0.0,0.0,0.0,0.0,0.0,0.0,0.0,1.0853,1.0365,0.0,0.0,0.0,0.0,0.0,0.0,0.0,0.0,0.0,0.0,0.0,0.0,0.0,0.0,0.0,0.0,0.0,0.0,0.0,0.0,0.0,0.0,0.0,0.0,0.0,0.0,0.0,0.0,0.0,0.0,0.0,0.0,0.0,0.0,0.0,0.0,0.0,0.0,0.0,0.0,1.2372,1.2983,1.3485,1.3729,1.3512,1.3186,1.2766,1.2535,1.1979,1.0894,1.0704,0.0,0.0,0.0,0.0,0.0,0.0,0.0,0.0,0.0,0.0,0.0,0.0,0.0,0.0,0.0,0.0,0.0,0.0,0.0,0.0,0.0,0.0,0.0,0.0,0.0,0.0,0.0,0.0,0.0,0.0,0.0,0.0,0.0,0.0,0.0,0.0,0.0,0.0,0.0,0.0,0.0,0.0,0.0,0.0,0.0,0.0,0.0,0.0,0.0,0.0,0.0,0.0,0.0,0.0,0.0,0.0,0.0,0.0,0.0,1.1694,1.1274,0.0,0.0,0.0,0.0,0.0,0.0,0.0,0.0,0.0,0.0,0.0,0.0,0.0,0.0,0.0,0.0,0.0,0.0,0.0,0.0,0.0,0.0,0.0,0.0,0.0,0.0,0.0,0.0,0.0,0.0,0.0,0.0,0.0,0.0,0.0,0.0,0.0,0.0,0.0,0.0,1.2467,1.3091,1.3593,1.3824,1.3648,1.3363,1.2969,1.2739,1.2264,1.1423,1.1097,0.0,0.0,0.0,0.0,0.0,0.0,0.0,0.0,0.0,0.0,0.0,0.0,0.0,0.0,0.0,0.0,0.0,0.0,0.0,0.0,0.0,0.0,0.0,0.0,0.0,0.0,0.0,0.0,0.0,0.0,0.0,0.0,0.0,0.0,0.0,0.0,0.0,0.0,0.0,0.0,0.0,0.0,0.0,0.0,0.0,0.0,0.0,0.0,0.0,0.0,0.0,0.0,0.0,1.2956,1.2983,1.282,1.3105,1.3159,1.3024,1.2644,1.2372,1.2142,1.1748,0.0,0.0,0.0,0.0,0.0,0.0,0.0,0.0,0.0,0.0,0.0,0.0,0.0,0.0,0.0,0.0,0.0,0.0,0.0,0.0,0.0,0.0,1.2427,1.2644,1.2888,1.2807,1.1803,0.0,0.0,0.0,0.0,0.0,0.0,0.0,0.0,0.0,0.0,0.0,1.2549,1.3214,1.3715,1.3865,1.3756,1.3539,1.3241,1.2983,1.2576,1.1952,1.1558,1.1151,0.0,0.0,0.0,0.0,0.0,0.0,0.0,0.0,0.0,0.0,0.0,0.0,0.0,0.0,0.0,0.0,0.0,0.0,0.0,0.0,0.0,0.0,0.0,0.0,0.0,0.0,0.0,0.0,0.0,0.0,0.0,0.0,1.2182,1.2359,0.0,0.0,0.0,0.0,0.0,0.0,0.0,0.0,0.0,0.0,0.0,0.0,0.0,1.2698,1.2874,1.3403,1.3607,1.3485,1.415,1.4326,1.4068,1.4231,1.4299,1.4272,1.4217,0.0,1.263,1.244,0.0,0.0,0.0,0.0,0.0,0.0,0.0,0.0,0.0,0.0,0.0,0.0,0.0,0.0,0.0,0.0,0.0,0.0,0.0,0.0,0.0,0.0,1.358,1.3498,1.3512,1.3498,1.3336,1.2712,1.2115,1.1925,1.1803,0.0,0.0,0.0,0.0,0.0,0.0,0.0,1.2861,1.3431,1.3865,1.4027,1.3905,1.3688,1.339,1.3336,1.2996,1.2277,1.2169,1.1938,1.1491,1.1192,0.0,0.0,0.0,0.0,0.0,0.0,0.0,0.0,0.0,0.0,0.0,0.0,0.0,0.0,0.0,0.0,0.0,0.0,0.0,0.0,0.0,0.0,0.0,0.0,0.0,0.0,0.0,0.0,0.0,1.2481,1.2874,1.2766,1.2589,1.2332,0.0,0.0,0.0,0.0,0.0,0.0,0.0,0.0,0.0,1.3593,1.3688,1.3892,1.4204,1.4557,1.4733,1.476,1.5086,1.5126,1.4923,1.5072,1.5045,1.4896,1.4977,1.4665,1.4055,1.3403,1.2956,1.2644,0.0,0.0,0.0,0.0,1.2223,1.225,1.2522,1.2562,1.2494,1.2467,0.0,0.0,0.0,0.0,0.0,0.0,0.0,1.2617,1.2929,1.3417,1.3892,1.4082,1.419,1.4258,1.4258,1.3878,1.3349,1.2698,1.2644,1.2481,1.1762,0.0,0.0,0.0,0.0,1.2901,1.3281,1.3702,1.4027,1.419,1.4068,1.3878,1.3661,1.3498,1.3186,1.2698,1.2508,1.225,1.1884,1.1653,1.1355,0.0,0.0,0.0,0.0,0.0,0.0,0.0,0.0,0.0,0.0,0.0,0.0,0.0,0.0,0.0,0.0,0.0,0.0,0.0,0.0,0.0,0.0,0.0,0.0,0.0,0.0,0.0,0.0,1.3173,1.358,1.3281,1.3308,1.3119,0.0,0.0,0.0,0.0,0.0,0.0,1.3838,1.4,1.4272,1.4679,1.4801,1.5031,1.5411,1.552,1.5642,1.575,1.575,1.5696,1.5588,1.5696,1.5628,1.5425,1.5533,1.552,1.5343,1.4367,1.3797,1.3471,1.3064,1.2861,1.2793,1.2874,1.2847,1.2861,1.3308,1.339,1.3281,1.3254,1.3173,1.2983,1.2535,0.0,0.0,0.0,0.0,1.3064,1.3512,1.3824,1.4109,1.4475,1.4652,1.4733,1.4733,1.4652,1.4326,1.3471,1.3417,1.3241,1.2386,0.0,0.0,1.2359,1.2793,1.3268,1.3634,1.3946,1.4177,1.4285,1.4204,1.4068,1.3919,1.3702,1.3431,1.3091,1.2861,1.2603,1.2305,1.2142,1.187,1.1463,0.0,0.0,0.0,0.0,0.0,0.0,0.0,0.0,0.0,0.0,0.0,0.0,0.0,0.0,0.0,0.0,0.0,0.0,0.0,0.0,0.0,0.0,0.0,0.0,0.0,0.0,0.0,0.0,0.0,1.4055,1.4258,0.0,0.0,0.0,0.0,1.396,1.4258,1.4624,1.5072,1.5235,1.5466,1.5764,1.5778,1.5872,1.6035,1.6049,1.6049,1.6062,1.6062,1.6049,1.6049,1.6049,1.6049,1.6035,1.6049,1.6049,1.5981,1.5221,1.4719,1.4421,1.4109,1.3824,1.3553,1.3417,1.3458,1.358,1.3607,1.3607,1.3648,1.3933,1.3729,1.3376,1.3349,1.3037,0.0,0.0,1.3349,1.3688,1.4136,1.4367,1.4516,1.4692,1.4733,1.4733,1.4733,1.4733,1.4624,1.4299,1.4014,1.3715,1.3376,0.0,1.3119,1.3119,1.339,1.3648,1.381,1.4095,1.4285,1.4299,1.4299,1.4231,1.4068,1.4041,1.3851,1.3403,1.3363,1.3227,1.3009,1.2766,1.2535,1.2237,1.1803,0.0,0.0,0.0,0.0,0.0,0.0,0.0,0.0,0.0,0.0,0.0,0.0,0.0,0.0,0.0,0.0,0.0,0.0,0.0,0.0,0.0,0.0,0.0,0.0,0.0,0.0,0.0,0.0,1.495,1.5113,0.0,1.4543,1.457,1.4719,1.4923,1.5303,1.5669,1.6022,1.6103,1.6225,1.6429,1.6334,1.5436,1.3825,1.5577,1.5629,1.3939,1.5629,1.651,1.651,1.6415,1.5335,1.3599,1.3599,1.2572,1.0825,1.0654,1.1358,1.2428,1.0349,0.9563,0.9581,1.1172,1.0806,0.9678,1.1293,1.0748,0.942,0.9581,0.9491,0.9347,0.9347,0.923,0.9455,1.109,1.1698,1.2173,1.3922,1.4543,1.4692,1.4855,1.5031,1.514,1.5045,1.5031,1.4964,1.4774,1.4557,1.4299,1.3905,1.3865,1.3838,1.3634,1.3783,1.3973,1.4122,1.4231,1.4299,1.4299,1.4299,1.4272,1.4217,1.4041,1.377,1.3417,1.3227,1.2983,1.2684,1.2617,1.2494,1.2291,1.2033,1.164,0.0,0.0,0.0,0.0,0.0,0.0,0.0,0.0,0.0,0.0,0.0,0.0,0.0,0.0,0.0,0.0,0.0,0.0,0.0,0.0,0.0,0.0,0.0,0.0,0.0,1.4296,1.4104,1.4006,1.3389,1.282,1.2362,1.2568,1.2808,1.293,1.3206,1.3551,1.3763,1.3774,1.3807,1.3885,1.3878,1.2928,1.1134,1.3001,1.3043,1.1339,1.3074,1.3896,1.3885,1.3867,1.2761,1.0991,1.1059,0.99,0.8133,0.7069,0.7674,0.8975,0.7728,0.7233,0.7389,0.9027,0.9178,0.874,1.0378,0.9329,0.7098,0.7098,0.7066,0.7117,0.7117,0.7084,0.7405,0.9024,0.9473,1.013,1.2697,1.3443,1.3738,1.4819,1.5194,1.5316,1.5276,1.5262,1.5248,1.5208,1.4991,1.4706,1.4353,1.4421,1.4421,1.4109,1.415,1.4245,1.4299,1.4299,1.4299,1.4299,1.4299,1.4299,1.4299,1.4014,1.3756,1.3566,1.3268,1.2996,1.2739,1.2684,1.2589,1.244,1.2291,1.202,1.1613,0.0,0.0,0.0,0.0,0.0,0.0,0.0,0.0,0.0,0.0,0.0,0.0,0.0,0.0,0.0,0.0,0.0,0.0,0.0,0.0,0.0,0.0,0.0,1.4638,1.2955,1.1661,1.1357,0.9304,0.7786,0.7181,0.7588,0.7898,0.7961,0.8245,0.8317,0.8498,0.8505,0.8498,0.8498,0.854,0.8425,0.839,0.8432,0.8432,0.839,0.8498,0.8498,0.8492,0.8526,0.8493,0.8385,0.8419,0.8279,0.8067,0.5264,0.4093,0.4289,0.6542,0.7301,0.7122,0.7011,0.8665,1.1003,1.0894,0.9111,0.6921,0.6921,0.6921,0.6914,0.6914,0.6914,0.6914,0.7006,0.7006,0.7664,1.0352,1.1124,1.1713,1.4296,1.5006,1.5141,1.5275,1.5316,1.5452,1.5601,1.5276,1.4936,1.4787,1.4882,1.4869,1.457,1.4516,0.0,1.4312,1.4299,1.4299,1.4299,1.4299,1.4299,1.4299,1.4014,1.3838,1.3752,1.3553,1.3322,1.3091,1.2956,1.2728,1.2516,1.2369,1.2289,1.2289,0.0,0.0,0.0,0.0,0.0,0.0,0.0,0.0,0.0,0.0,0.0,0.0,0.0,0.0,0.0,0.0,0.0,0.0,0.0,0.0,0.0,1.5737,1.6239,1.5995,1.3837,1.2344,1.2629,1.0159,0.8365,0.8249,0.8242,0.8352,0.8365,0.8547,0.8573,0.8651,0.8651,0.8624,0.8681,0.8551,0.7463,0.5393,0.7503,0.7503,0.5393,0.7475,0.8545,0.8492,0.8472,0.7382,0.543,0.5417,0.4223,0.2276,0.1504,0.1178,0.1175,0.1853,0.2026,0.2218,0.4041,0.5164,0.5524,0.3745,0.2581,0.1907,0.1988,0.1976,0.1963,0.1963,0.1952,0.2311,0.4063,0.452,0.518,0.7742,0.8462,0.8617,0.9473,1.118,1.2576,1.2521,1.405,1.5425,1.5466,1.5371,1.5276,1.5235,1.5167,1.5018,1.4719,1.4584,0.0,1.4312,1.4299,1.4299,1.4299,1.4299,1.4299,1.4299,1.4014,1.3797,1.3688,1.3308,1.2362,1.0688,1.0416,0.9688,0.8086,0.7758,0.7629,0.0,0.0,0.0,0.0,0.0,0.0,0.0,0.0,0.0,0.0,0.0,0.0,0.0,0.0,0.0,0.0,0.0,0.0,0.0,0.0,0.0,0.0,1.6646,1.7161,1.7256,1.3667,1.0649,0.957,0.6816,0.492,0.5056,0.5038,0.4909,0.4909,0.503,0.503,0.5023,0.5102,0.5079,0.5075,0.4929,0.4139,0.2473,0.4058,0.4058,0.2473,0.4167,0.4944,0.4903,0.4884,0.3984,0.2426,0.242,0.1535,0.0,0.0,0.0,0.0,0.0,0.0,0.0,0.0,0.319,0.2167,0.1764,0.0973,0.0,0.0,0.0,0.0,0.0,0.0,0.0281,0.1686,0.206,0.2721,0.52,0.5897,0.6227,0.7349,0.876,0.9958,0.9941,1.1163,1.2224,1.2331,1.231,0.0,1.2278,1.3871,1.5153,1.4801,1.4665,1.4529,1.4326,1.4299,1.4326,1.438,1.3401,1.2788,1.2836,1.1659,0.0,0.0,0.0,0.9623,0.826,0.8127,0.0,0.0,0.0,0.6228,0.6307,0.6258,0.0,0.0,1.0354,1.0374,0.0,0.0,0.0,0.0,0.0,0.0,0.0,0.0,0.0,0.0,0.0,0.0,0.0,0.0,0.0,0.0,1.7541,1.7797,1.7927,1.314,0.8421,0.5183,0.2337,0.0354,0.0,0.0,0.0,0.0,0.0,0.0,0.0,0.0,0.0,0.0,0.0,0.0,0.0,0.0,0.0,0.0,0.0,0.0,0.0,0.0,0.0,0.0,0.0,0.0,0.0,0.0,0.0,0.0,0.0,0.0,0.0315,0.2681,0.2026,0.03,0.2689,0.0,0.0,0.0,0.0,0.0,0.0,0.0,0.0,0.0,0.0,0.0479,0.28,0.3388,0.3978,0.6159,0.6951,0.7165,0.732,0.757,0.7858,0.8001,0.7967,0.7919,0.7827,1.1513,1.4424,1.3922,1.3846,1.3744,1.3477,1.3452,1.349,1.3617,0.0,0.0,1.0504,0.8168,0.6735,0.6902,0.6457,0.6093,0.5922,0.5693,0.5608,0.5766,0.5928,0.6038,0.6294,0.6446,0.6486,0.6293,0.6114,0.6347,0.0,0.0,0.0,0.0,0.0,0.0,0.0,0.0,0.0,0.0,0.0,0.0,0.0,0.0,0.0,1.7636,1.8097,1.7627,1.5654,1.436,1.2266,0.8862,0.5712,0.2884,0.0242,0.0,0.0,0.0,0.0,0.0,0.0,0.0,0.0,0.0,0.0,0.0,0.0,0.0,0.0,0.0,0.0,0.0,0.0,0.0,0.0,0.0,0.0,0.0,0.0,0.0,0.0,0.0,0.0,0.0,0.0106,0.063,0.0414,0.0102,0.0606,0.04,0.0,0.0,0.0,0.0,0.0,0.0,0.0,0.0,0.0,0.0098,0.0587,0.0689,0.0891,0.1389,0.3072,0.4557,0.4565,0.6202,0.7648,0.7834,0.7793,0.7662,0.782,0.8634,0.9181,0.8892,0.8804,0.8724,0.8529,0.8521,0.8521,0.8537,0.8087,0.7841,0.7821,0.7215,0.6883,0.687,0.5065,0.3861,0.3682,0.2134,0.1232,0.1239,0.1261,0.1275,0.1382,0.1384,0.1396,0.1517,0.5387,0.7278,0.0,0.0,0.0,0.0,0.0,0.0,0.0,0.0,0.0,0.0,0.0,1.6958,1.7256,0.0,1.8124,1.8572,1.883,1.8536,1.7502,1.7245,1.5467,1.0407,0.6961,0.4309,0.2711,0.0991,0.0,0.0,0.0,0.0,0.0,0.0,0.0,0.0,0.0,0.0,0.0,0.0,0.0,0.0,0.0,0.0,0.0,0.0,0.0,0.0,0.0,0.0,0.0,0.0,0.0,0.0,0.0,0.0,0.0,0.0,0.0,0.0,0.0,0.0,0.0,0.0,0.0,0.0,0.0,0.0,0.0,0.0,0.0,0.0,0.0,0.0,0.0,0.0,0.1013,0.193,0.193,0.2911,0.3785,0.3921,0.3884,0.3858,0.3894,0.3868,0.469,0.7049,0.737,0.7323,0.7157,0.7058,0.7177,0.7249,0.6099,0.5369,0.5447,0.4251,0.3468,0.3468,0.2335,0.1588,0.1595,0.0577,0.0,0.0,0.0,0.0,0.0,0.0,0.0,0.0104,0.2567,0.377,0.0,0.0,0.0,0.0,0.0,0.0,0.0,1.6144,1.6646,1.7283,1.7717,1.8138,1.8613,1.883,1.9061,1.9454,1.9522,1.963,1.9929,1.9956,1.7805,1.2022,0.825,0.5529,0.4253,0.1636,0.0,0.0,0.0,0.0,0.0,0.0,0.0,0.0,0.0,0.0,0.0,0.0,0.0,0.0,0.0,0.0,0.0,0.0,0.0,0.0,0.0,0.0,0.0,0.0,0.0,0.0,0.0,0.0,0.0,0.0,0.0,0.0,0.0,0.0,0.0,0.0,0.0,0.0,0.0,0.0,0.0,0.0,0.0,0.0,0.0,0.0,0.0,0.0,0.0,0.0,0.0,0.0,0.0,0.0,0.0,0.0,0.0,0.0,0.1388,0.5389,0.5929,0.5903,0.5761,0.5756,0.5792,0.5982,0.4132,0.2987,0.304,0.1172,0.0,0.0,0.0,0.0,0.0,0.0,0.0,0.0,0.0,0.0,0.0,0.0,0.0,0.0,0.0,0.0,1.4041,1.457,1.5113,1.556,1.5927,1.6483,0.0,1.7921,1.807,1.8803,1.9101,1.925,1.9318,1.9454,1.963,1.9807,1.982,1.9929,2.0241,2.0282,1.8925,1.5327,1.1639,0.7185,0.1145,0.0255,0.0,0.0,0.0,0.0,0.0,0.0,0.0,0.0,0.0,0.0,0.0,0.0,0.0,0.0,0.0,0.0,0.0,0.0,0.0,0.0,0.0,0.0,0.0,0.0,0.0,0.0,0.0,0.0,0.0,0.0,0.0,0.0,0.0,0.0,0.0,0.0,0.0,0.0,0.0,0.0,0.0,0.0,0.0,0.0,0.0,0.0,0.0,0.0,0.0,0.0,0.0,0.0,0.0,0.0,0.0,0.0,0.0,0.0,0.0203,0.0696,0.0787,0.0782,0.0781,0.0781,0.0782,0.0783,0.0587,0.0393,0.0397,0.0199,0.0,0.0,0.0,0.0,0.0,0.0,0.0,0.0,0.0,0.0,0.0,0.0,0.0,0.0,0.0,0.0,1.514,1.552,1.5872,1.6592,1.7053,1.7582,1.8491,1.8789,1.902,1.9603,1.9847,1.9956,1.9956,2.0159,2.0295,2.0254,2.0336,2.0431,2.058,1.8836,1.6204,1.2808,0.9367,0.6096,0.3202,0.1156,0.0,0.0,0.0,0.0,0.0,0.0,0.0,0.0,0.0,0.0,0.0,0.0,0.0,0.0,0.0,0.0,0.0,0.0,0.0,0.0,0.0,0.0,0.0,0.0,0.0,0.0,0.0,0.0,0.0,0.0,0.0,0.0,0.0,0.0,0.0,0.0,0.0,0.0,0.0,0.0,0.0,0.0,0.0,0.0,0.0,0.0,0.0,0.0,0.0,0.0,0.0,0.0,0.0,0.0,0.0,0.0,0.0,0.0,0.0,0.0,0.0,0.0,0.0,0.0,0.0,0.0,0.0,0.0,0.0,0.0,0.0,0.0,0.0,0.0,0.0,0.0,0.0,0.0,0.0,0.0,0.0,0.0,0.0,0.0,0.0,0.0,1.5913,1.6266,1.6632,1.7405,1.8002,1.8545,1.9115,1.9468,1.978,2.0159,2.0309,2.0376,2.0376,2.0553,2.0661,2.0553,2.0634,2.0446,1.942,1.7066,1.3737,0.9336,0.6695,0.4697,0.3847,0.1416,0.0,0.0,0.0,0.0,0.0,0.0,0.0,0.0,0.0,0.0,0.0,0.0,0.0,0.0,0.0,0.0,0.0,0.0,0.0,0.0,0.0,0.0,0.0,0.0,0.0,0.0,0.0,0.0,0.0,0.0,0.0,0.0,0.0,0.0,0.0,0.0,0.0,0.0,0.0,0.0,0.0,0.0,0.0,0.0,0.0,0.0,0.0,0.0,0.0,0.0,0.0,0.0,0.0,0.0,0.0,0.0,0.0,0.0,0.0,0.0,0.0,0.0,0.0,0.0,0.0,0.0,0.0,0.0,0.0,0.0,0.0,0.0,0.0,0.0,0.0,0.0,0.0,0.0,0.0,0.0,0.0,0.0,0.0,0.0,0.0,0.0,1.6117,1.6714,1.7487,1.7948,1.8626,1.9291,1.9752,2.0078,2.0349,2.0485,2.0526,2.0539,2.0539,2.0539,2.0539,2.0539,2.0539,1.9395,1.6057,1.5477,1.2847,0.61,0.5152,0.3763,0.051,0.0,0.0,0.0,0.0,0.0,0.0,0.0,0.0,0.0,0.0,0.0,0.0,0.0,0.0,0.0,0.0,0.0,0.0,0.0,0.0,0.0,0.0,0.0,0.0,0.0,0.0,0.0,0.0,0.0,0.0,0.0,0.0,0.0,0.0,0.0,0.0,0.0,0.0,0.0,0.0,0.0,0.0,0.0,0.0,0.0,0.0,0.0,0.0,0.0,0.0,0.0,0.0,0.0,0.0,0.0,0.0,0.0,0.0,0.0,0.0,0.0,0.0,0.0,0.0,0.0,0.0,0.0,0.0,0.0,0.0,0.0,0.0,0.0,0.0,0.0,0.0,0.0,0.0,0.0,0.0,0.0,0.0,0.0,0.0,0.0,0.0,0.0,1.6944,1.7405,1.7921,1.8762,1.9237,1.9644,2.0187,2.0471,2.058,2.0431,2.0309,2.0187,1.9997,2.0037,2.0132,2.0227,2.0512,1.9536,1.6035,1.3572,1.0389,0.5654,0.3151,0.1261,0.0125,0.0,0.0899,0.3229,0.1306,0.1048,0.3257,0.1184,0.0,0.0,0.0,0.0,0.0,0.0,0.0,0.0,0.0,0.0,0.0,0.0,0.0,0.0,0.0,0.0,0.0,0.0,0.0,0.0,0.0,0.0,0.0,0.0,0.0,0.0,0.0,0.0,0.0,0.0,0.0,0.0,0.0,0.0,0.0,0.0,0.0,0.0,0.0,0.0,0.0,0.0,0.0,0.0,0.0,0.0,0.0,0.0,0.0,0.0,0.0,0.0,0.0,0.0,0.0,0.0,0.0,0.0,0.0,0.0,0.0,0.0,0.0,0.0,0.0,0.0,0.0,0.0,0.0,0.0,0.0,0.0,0.0,0.0,0.0,0.0,0.0,0.0,0.0,0.0,1.765,1.8043,1.8409,1.9359,1.9698,1.9942,2.0431,2.058,2.0512,2.0173,1.9956,1.9752,1.94,1.9468,1.9644,1.9902,2.0282,1.891,1.4381,1.1799,0.8754,0.3791,0.1391,0.0,0.0,0.0,0.0895,0.309,0.1304,0.0919,0.3137,0.1188,0.0,0.0,0.0,0.0,0.0,0.0,0.0,0.0,0.0,0.0,0.0,0.0,0.0,0.0,0.0,0.0,0.0,0.0,0.0,0.0,0.0,0.0,0.0,0.0,0.0,0.0,0.0,0.0,0.0,0.0,0.0,0.0,0.0,0.0,0.0,0.0,0.0,0.0,0.0,0.0,0.0,0.0,0.0,0.0,0.0,0.0,0.0,0.0,0.0,0.0,0.0,0.0,0.0,0.0,0.0,0.0,0.0,0.0,0.0,0.0,0.0,0.0,0.0,0.0,0.0,0.0,0.0,0.0,0.0,0.0,0.0,0.0,0.0,0.0,0.0,0.0,0.0,0.0,0.0,0.0,1.8192,1.8586,1.8993,1.9712,1.9997,2.0173,2.0458,2.0404,2.0159,1.9712,1.9361,1.8985,1.866,1.861,1.8865,1.9428,1.9655,1.7606,1.1138,1.0282,0.7675,0.0775,0.0,0.0,0.0,0.0,0.0,0.0,0.0,0.0131,0.0264,0.0132,0.0,0.0,0.0,0.0,0.0,0.0,0.0,0.0,0.0,0.0,0.0,0.0,0.0,0.0,0.0,0.0,0.0,0.0,0.0,0.0,0.0,0.0,0.0,0.0,0.0,0.0,0.0,0.0,0.0,0.0,0.0,0.0,0.0,0.0,0.0,0.0,0.0,0.0,0.0,0.0,0.0,0.0,0.0,0.0,0.0,0.0,0.0,0.0,0.0,0.0,0.0,0.0,0.0,0.0,0.0,0.0,0.0,0.0,0.0,0.0,0.0,0.0,0.0,0.0,0.0,0.0,0.0,0.0,0.0,0.0,0.0,0.0,0.0,0.0,0.0,0.0,0.0,0.0,0.0,0.0,1.8843,1.9278,1.9698,2.0105,2.0159,2.0119,2.0187,1.9929,1.9535,1.9074,1.7061,1.5191,1.4819,1.5169,1.5564,1.598,1.6199,1.5055,1.0913,0.8268,0.5096,0.0533,0.0,0.0,0.0,0.0,0.0,0.0,0.0,0.1174,0.3655,0.1445,0.0,0.0,0.0,0.0,0.0,0.0,0.0,0.0,0.0,0.0,0.0,0.0,0.0,0.0,0.0,0.0,0.0,0.0,0.0,0.0,0.0,0.0,0.0,0.0,0.0,0.0,0.0,0.0,0.0,0.0,0.0,0.0,0.0,0.0,0.0,0.0,0.0,0.0,0.0,0.0,0.0,0.0,0.0,0.0,0.0,0.0,0.0,0.0,0.0,0.0,0.0,0.0,0.0,0.0,0.0,0.0,0.0,0.0,0.0,0.0,0.0,0.0,0.0,0.0,0.0,0.0,0.0,0.0,0.0,0.0,0.0,0.0,0.0,0.0,0.0,0.0,0.0,0.0,0.0,0.0,1.9305,1.9685,2.0037,2.0282,2.0119,1.9861,1.9657,1.9223,1.8294,1.6664,1.5729,1.4707,1.3211,1.4473,1.5836,1.6187,1.6777,1.556,1.0956,0.8734,0.57,0.0544,0.0,0.0,0.0,0.0,0.0,0.0,0.0,0.0782,0.2736,0.1047,0.0,0.0,0.0,0.0,0.0,0.0,0.0,0.0,0.0,0.0,0.0,0.0,0.0,0.0,0.0,0.0,0.0,0.0,0.0,0.0,0.0,0.0,0.0,0.0,0.0,0.0,0.0,0.0,0.0,0.0,0.0,0.0,0.0,0.0,0.0,0.0,0.0,0.0,0.0,0.0,0.0,0.0,0.0,0.0,0.0,0.0,0.0,0.0,0.0,0.0,0.0,0.0,0.0,0.0,0.0,0.0,0.0,0.0,0.0,0.0,0.0,0.0,0.0,0.0,0.0,0.0,0.0,0.0,0.0,0.0,0.0,0.0,0.0,0.0,0.0,0.0,0.0,0.0,0.0,0.0,1.9712,1.9942,2.0173,2.0254,1.9942,1.9481,1.8952,1.8128,1.6557,1.3565,1.4123,1.4479,1.1693,1.3736,1.6206,1.7104,1.788,1.6513,1.1073,1.003,0.7299,0.0826,0.0,0.0,0.0,0.0,0.0,0.0,0.0,0.0,0.0,0.0,0.0,0.0,0.0,0.0,0.0,0.0,0.0,0.0,0.0,0.0,0.0,0.0,0.0,0.0,0.0,0.0,0.0,0.0,0.0,0.0,0.0,0.0,0.0,0.0,0.0,0.0,0.0,0.0,0.0,0.0,0.0,0.0,0.0,0.0,0.0,0.0,0.0,0.0,0.0,0.0,0.0,0.0,0.0,0.0,0.0,0.0,0.0,0.0,0.0,0.0,0.0,0.0,0.0,0.0,0.0,0.0,0.0,0.0,0.0,0.0,0.0,0.0,0.0,0.0,0.0,0.0,0.0,0.0,0.0,0.0,0.0,0.0,0.0,0.0,0.0,0.0,0.0,0.0,0.0,0.0,2.0173,2.0336,2.0376,2.0037,1.9712,1.9223,1.8274,1.5958,1.3774,1.2621,0.9167,0.6114,0.5575,0.6395,0.8164,1.1162,1.1678,1.1412,1.049,0.7849,0.4541,0.0422,0.0,0.0,0.0,0.0,0.0,0.0,0.0,0.0,0.0,0.0,0.0,0.0,0.0,0.0,0.0,0.0,0.0,0.0,0.0,0.0,0.0,0.0,0.0,0.0,0.0,0.0,0.0,0.0,0.0,0.0,0.0,0.0,0.0,0.0,0.0,0.0,0.0,0.0,0.0,0.0,0.0,0.0,0.0,0.0,0.0,0.0,0.0,0.0,0.0,0.0,0.0,0.0,0.0,0.0,0.0,0.0,0.0,0.0,0.0,0.0,0.0,0.0,0.0,0.0,0.0,0.0,0.0,0.0,0.0,0.0,0.0,0.0,0.0,0.0,0.0,0.0,0.0,0.0,0.0,0.0,0.0,0.0,0.0,0.0,0.0,0.0,0.0,0.0,0.0,0.0,2.0309,2.0431,2.0431,1.9983,1.9468,1.8762,1.7555,1.4825,1.2012,0.9968,0.7632,0.5529,0.4176,0.5631,0.8064,1.1291,1.2009,1.1683,1.0019,0.8403,0.5515,0.0558,0.0,0.0,0.0,0.0,0.0,0.0,0.0,0.0,0.0,0.0,-0.0774,-0.2577,-0.0903,-0.0903,-0.2577,-0.0897,0.0,0.0,0.0,0.0,0.0,0.0,0.0,0.0,0.0,0.0,0.0,0.0,0.0,0.0,0.0,0.0,0.0,0.0,0.0,0.0,0.0,0.0,0.0,0.0,0.0,0.0,0.0,0.0,0.0,0.0,0.0,0.0,0.0,0.0,0.0,0.0,0.0,0.0,0.0,0.0,0.0,0.0,0.0,0.0,0.0,0.0,0.0,0.0,0.0,0.0,0.0,0.0,0.0,0.0,0.0,0.0,0.0,0.0,0.0,0.0,0.0,0.0,0.0,0.0,0.0,0.0,0.0,0.0,0.0,0.0,0.0,0.0,0.0,0.0,2.0254,2.0363,2.0309,1.9766,1.9156,1.8188,1.625,1.3439,1.0308,0.7058,0.6275,0.5517,0.3346,0.5217,0.7957,1.0958,1.1882,1.1328,0.8813,0.8529,0.6424,0.0688,0.0,0.0,0.0,0.0,0.0,0.0,-0.0665,-0.1051,-0.1044,-0.1038,-0.2711,-0.6045,-0.3605,-0.3476,-0.6174,-0.3583,-0.1788,-0.115,-0.1134,-0.0748,0.0,0.0,0.0,0.0,0.0,0.0,0.0,0.0,0.0,0.0,0.0,0.0,0.0,0.0,0.0,0.0,0.0,0.0,0.0,0.0,0.0,0.0,0.0,0.0,0.0,0.0,0.0,0.0,0.0,0.0,0.0,0.0,0.0,0.0,0.0,0.0,0.0,0.0,0.0,0.0,0.0,0.0,0.0,0.0,0.0,0.0,0.0,0.0,0.0,0.0,0.0,0.0,0.0,0.0,0.0,0.0,0.0,0.0,0.0,0.0,0.0,0.0,0.0,0.0,0.0,0.0,0.0,0.0,0.0,0.0,2.001,2.0132,1.9942,1.9074,1.8599,1.738,1.3542,1.0569,0.7742,0.4549,0.2254,0.0671,0.039,0.0603,0.1871,0.5297,0.5859,0.586,0.5551,0.5487,0.4076,0.0408,0.0,0.0,0.0,0.0,0.0,0.0,-0.293,-0.4586,-0.4687,-0.4684,-0.6215,-0.9762,-0.9506,-0.9506,-0.9756,-0.95,-0.77,-0.4628,-0.4687,-0.3019,0.0,0.0,0.0,0.0,0.0,0.0,0.0,0.0,0.0,0.0,0.0,0.0,0.0,0.0,0.0,0.0,0.0,0.0,0.0,0.0,0.0,0.0,0.0,0.0,0.0,0.0,0.0,0.0,0.0,0.0,0.0,0.0,0.0,0.0,0.0,0.0,0.0,0.0,0.0,0.0,0.0,0.0,0.0,0.0,0.0,0.0,0.0,0.0,0.0,0.0,0.0,0.0,0.0,0.0,0.0,0.0,0.0,0.0,0.0,0.0,0.0,0.0,0.0,0.0,0.0,0.0,0.0,0.0,0.0,0.0,1.9576,1.9766,1.9644,1.883,1.826,1.689,1.3128,1.0056,0.7155,0.4171,0.1675,0.0,0.0,0.0,0.101,0.4067,0.4557,0.4583,0.4522,0.4529,0.3459,0.0393,0.0,0.0,0.0,0.0,0.0,0.0,-0.1205,-0.2904,-0.4976,-0.7134,-0.9788,-1.3227,-1.142,-1.1292,-1.3354,-0.925,-0.6431,-0.502,-0.3045,-0.1261,0.0,0.0,0.0,0.0,0.0,0.1083,0.2756,0.0835,0.1189,0.272,0.0818,0.0,0.0,0.0,0.0,0.0,0.0,0.0,0.0,0.0,0.0,0.0,0.0,0.0,0.0,0.0,0.0,0.0,0.0,0.0,0.0,0.0,0.0,0.0,0.0,0.0,0.0,0.0,0.0,0.0,0.0,0.0,0.0,0.0,0.0,0.0,0.0,0.0,0.0,0.0,0.0,0.0,0.0,0.0,0.0,0.0,0.0,0.0,0.0,0.0,0.0,0.0,0.0,0.0,0.0,0.0,0.0,0.0,0.0,0.0,1.6871,1.7339,1.7669,1.6127,1.5395,1.4147,1.0726,0.8277,0.5901,0.3149,0.1211,0.0,0.0,0.0,0.0699,0.2656,0.2997,0.2968,0.2902,0.2975,0.2257,0.0253,0.0,0.0,0.0,0.0,0.0,0.0,-0.0939,-0.2514,-0.4992,-0.8418,-1.1427,-1.3857,-1.1555,-1.1427,-1.3857,-0.9115,-0.6174,-0.502,-0.2665,-0.101,0.0,0.0,0.049,0.1345,0.0365,0.242,0.6009,0.2754,0.274,0.4615,0.2343,0.082,0.0,0.0,0.0,0.0,0.0,0.0,0.0,0.0,0.0,0.0,0.0,0.0,0.0,0.0,0.0,0.0,0.0,0.0,0.0,0.0,0.0,0.0,0.0,0.0,0.0,0.0,0.0,0.0,0.0,0.0,0.0,0.0,0.0,0.0,0.0,0.0,0.0,0.0,0.0,0.0,0.0,0.0,0.0,0.0,0.0,0.0,0.0,0.0,0.0,0.0,0.0,0.0,0.0,0.0,0.0,0.0,0.0,0.0,1.1184,1.1938,1.3418,1.0096,0.9093,0.8166,0.4957,0.4147,0.331,0.0558,0.0,0.0,0.0,0.0,0.0,0.0,0.0,0.0,0.0,0.0,0.0,0.0,0.0,0.0,0.0,0.0,0.0,0.0,-0.3075,-0.5123,-0.5127,-0.8418,-1.0275,-1.0403,-1.0275,-1.0275,-1.0403,-1.0268,-0.848,-0.5149,-0.5067,-0.3277,0.0,0.0,0.1726,0.4675,0.1356,0.3663,0.9242,0.6009,0.4648,0.4699,0.4699,0.2705,0.0,0.0,0.0,0.0,0.0,0.0,0.0,0.0,0.0,0.0,0.0,0.0,0.0,0.0,0.0,0.0,0.0,0.0,0.0,0.0,0.0,0.0,0.0,0.0,0.0,0.0,0.0,0.0,0.0,0.0,0.0,0.0,0.0,0.0,0.0,0.0,0.0,0.0,0.0,0.0,0.0,0.0,0.0,0.0,0.0,0.0,0.0,0.0,0.0,0.0,0.0,0.0,0.0,0.0,0.0,0.0,0.0,0.0,0.9748,1.0118,1.0593,0.9277,0.8811,0.7828,0.4838,0.399,0.3107,0.0567,0.0,0.0,0.0,0.0,0.0,0.0,0.0,0.0,0.0,0.0,0.0,0.0,0.0,0.0,0.0,0.0,0.0,0.0,-0.0939,-0.1589,-0.1581,-0.2609,-0.5428,-1.014,-1.0268,-1.0268,-1.0268,-0.7967,-0.6174,-0.502,-0.2791,-0.1009,0.0,0.0,0.185,0.4798,0.3817,0.7108,1.2795,0.9408,0.8146,0.7975,0.5659,0.2822,0.0,0.0,0.0,-0.0348,-0.2396,-0.3062,-0.3392,-0.5443,-0.4722,-0.3051,-0.3025,-0.1608,0.0,0.0,0.0,0.0,0.0,0.0,0.0,0.0,0.0,0.0,0.0,0.0,0.0,0.0,0.0,0.0,0.0,0.0,0.0,0.0,0.0,0.0,0.0,0.0,0.0,0.0,0.0,0.0,0.0,0.0,0.0,0.0,0.0,0.0,0.0,0.0,0.0,0.0,0.0,0.0,0.0,0.0,0.0,0.0,0.0,0.0,0.566,0.6564,0.7116,0.5899,0.5424,0.4864,0.3059,0.2457,0.1882,0.0286,0.0,0.0,0.0,0.0,0.0,0.0,0.0,0.0,0.0,0.0,0.0,0.0,0.0,0.0,0.0,0.0,0.0,0.0,0.0,0.0,0.0,0.0,-0.1943,-0.6302,-0.6427,-0.6427,-0.6427,-0.4246,-0.3221,-0.309,-0.1017,0.0,0.0,0.0,0.2466,0.6641,0.5413,0.9322,0.0,1.146,0.9587,0.9427,0.6016,0.1998,-0.1763,-0.175,-0.2551,-0.3692,-0.5576,-0.6211,-0.6408,-0.8196,-0.7549,-0.5846,-0.4727,-0.2351,0.0,0.0,0.0,0.0,0.0,0.0,0.0,0.0,0.0,0.0,0.0,0.0,0.0,0.0,0.0,0.0,0.0,0.0,0.0,0.0,0.0,0.0,0.0,0.0,0.0,0.0,0.0,0.0,0.0,0.0,0.0,0.0,0.0,0.0,0.0,0.0,0.0,0.0,0.0,0.0,0.0,0.0,0.0,0.0,0.0,0.0,0.0,0.1936,0.3314,0.0683,0.0,0.0,0.0,0.0,0.0,0.0,0.0,0.0,0.0,0.0,0.0,0.0,0.0,0.0,0.0,0.0,0.0,0.0,0.0,0.0,0.0,0.0,0.0,0.0,0.0,0.0,0.0,0.0,0.0,0.0,0.0,0.0,0.0,0.0,0.0,0.0,0.0,0.0,0.0,0.0,0.345,0.9329,0.6268,1.0151,1.8211,1.2172,0.9321,0.8657,0.5533,0.0469,-0.5041,-0.5,-0.6798,-0.9259,-0.9409,-0.9324,-0.9253,-0.9058,-0.8933,-0.8265,-0.5434,-0.2554,-0.0213,-0.0107,0.0,0.0,0.0,0.0,0.0,0.0,0.0,0.0,0.0,0.0,0.0,0.0,0.0,0.0,0.0,0.0,0.0,0.0,0.0,0.0,0.0,0.0,0.0,0.0,0.0,0.0,0.0,0.0,0.0,0.0,0.0,0.0,0.0,0.0,0.0,0.0,0.0,0.0,0.0,0.0,0.0,0.0,0.0,0.0,0.0,0.0,0.0834,0.0184,0.0,0.0,0.0,0.0,0.0,0.0,0.0,0.0,0.0,0.0,0.0,0.0,0.0,0.0,0.0,0.0,0.0,0.0,0.0,0.0,0.0,0.0,0.0,0.0,0.0,0.0,0.0,0.0,0.0,0.0,0.0,0.0,0.0,0.0,0.0,0.0,0.0,0.0,0.0,0.0,0.222,0.6023,0.529,0.7613,1.1987,1.0264,0.6711,0.2265,0.1412,-0.2683,-0.8123,-0.8178,-0.8454,-0.9289,-1.1562,-1.2409,-1.2352,-1.2182,-1.2031,-1.1366,-0.8405,-0.5523,-0.2767,-0.0639,0.0,0.0,0.0,0.0,0.0,0.0,0.0,0.0,0.0,0.0,0.0,0.0,0.0,0.0,0.0,0.0,0.0,0.0,0.0,0.0,0.0,0.0,0.0,0.0,0.0,0.0,0.0,0.0,0.0,0.0,0.0,0.0,0.0,0.0,0.0,0.0,0.0,0.0,0.0,0.0,0.0,0.0,0.0,0.0,0.0,0.0,0.0,0.0,0.0,0.0,0.0,0.0,0.0,0.0,0.0,0.0,0.0,0.0,0.0,0.0,0.0,0.0,0.0,0.0,0.0,0.0,0.0,0.0,0.0,0.0,0.0,0.0,0.0,0.0,0.0,0.0,0.0,0.0,0.0,0.0,0.0,0.0,0.0,0.0,0.0,0.0,0.0,0.0,0.185,0.4921,0.4921,0.5884,0.7545,0.5902,0.2389,-0.2138,-0.3642,-0.8025,-1.3379,-1.332,-1.4898,-1.717,-1.7477,-1.6561,-1.5196,-1.5104,-1.4951,-1.4303,-1.1363,-0.933,-0.7214,-0.3084,-0.1916,-0.1597,-0.032,0.0,0.0,0.0,0.0,0.0,0.0,0.0,0.0,0.0,0.0,0.0,0.0,0.0,0.0,0.0,0.0,0.0,0.0,0.0,0.0,0.0,0.0,0.0,0.0,0.0,0.0,0.0,0.0,0.0,0.0,0.0,0.0,0.0,0.0,0.0,0.0,0.0,0.0,0.0,0.0,0.0,0.0,0.0,0.0,0.0,0.0,0.0,0.0,0.0,0.0,0.0,0.0,0.0,0.0,0.0,0.0,0.0,-0.0439,-0.0795,-0.0729,-0.0753,-0.0643,0.0,0.0,0.0,0.0,0.0,0.0,0.0,0.0,0.0,0.0,0.0,0.0,0.0,0.0,0.0,0.0,0.0,0.0,0.0,0.0,0.0,0.0,0.0,0.148,0.4177,0.3566,0.3541,0.3376,0.0,-0.3095,-0.6252,-0.9025,-1.3352,-1.8269,-1.8696,-2.1877,-2.5828,-2.3708,-2.0778,-1.8023,-1.7868,-1.7411,-1.6551,-1.4096,-1.3359,-1.2189,-0.6478,-0.4572,-0.3509,-0.0746,0.0,0.0,0.0,0.0,0.0,0.0,0.0,0.0,0.0,0.0,0.0,0.0,0.0,0.0,0.0,0.0,0.0,0.0,0.0,0.0,0.0,0.0,0.0,0.0,0.0,0.0,0.0,0.0,0.0,0.0,0.0,0.0,0.0,0.0,0.0,0.0,0.0,0.0,0.0,0.0,0.0,0.0,0.0,0.0,0.0,0.0,0.0,0.0,0.0,0.0,0.0,0.0,0.0,0.0,0.0,0.0,0.0,-0.2412,-0.4294,-0.436,-0.4302,-0.3202,-0.0391,0.0,0.0,0.0,0.0,0.0,0.0,0.0,0.0,0.0,0.0,0.0,0.0,0.0,0.0,0.0,0.0,0.0,0.0,0.0,0.0,0.0,0.0,0.0246,0.0611,-0.2209,-0.3295,-0.3487,-0.672,-0.9903,-1.2655,-1.2947,-1.5224,-1.8541,-2.0952,-2.2201,-2.3202,-2.4969,-2.3563,-2.1095,-2.0808,-1.8963,-1.688,-1.6446,-1.6341,-1.5172,-0.9443,-0.6054,-0.3509,-0.0746,0.0,0.0,0.0,0.0,0.0,0.0,0.0,0.0,0.0,0.0,0.0,0.0,0.0,0.0,0.0,0.0,0.0,0.0,0.0,0.0,0.0,0.0,0.0,0.0,0.0,0.0,0.0,0.0,0.0,0.0,0.0,0.0,0.0,0.0,0.0,0.0,0.0,0.0,0.0,0.0,0.0,0.0,0.0,0.0,0.0,0.0,0.0,0.0,0.0,0.0,0.0,0.0,0.0,0.0,0.0,-0.0652,-0.241,-0.4053,-0.5773,-0.7652,-0.7972,-0.7287,-0.5712,-0.5608,-0.4851,-0.2908,-0.2761,-0.1967,-0.0132,0.0,0.0,0.0,0.0,0.0,0.0,0.0,0.0,0.0,0.0,0.0,0.0,0.0,0.0,0.0,-0.1722,-0.2568,-0.2681,-0.5981,-0.8354,-0.9903,-1.1498,-1.3793,-1.6493,-1.6373,-1.8028,-2.1048,-2.5442,-2.5959,-2.4867,-2.742,-2.5414,-2.1699,-2.1323,-1.9307,-1.6985,-1.6985,-1.5908,-1.378,-0.9647,-0.7532,-0.5523,-0.1171,0.0,0.0,0.0,0.0,0.0,0.0,0.0,0.0,0.0,0.0,0.0,0.0,0.0,0.0,0.0,0.0,0.0,0.0,0.0,0.0,0.0,-0.1384,-0.1703,-0.0107,-0.1384,-0.1597,-0.0107,0.0,0.0,0.0,0.0,0.0,0.0,0.0,0.0,0.0,0.0,0.0,0.0,0.0,0.0,0.0,-0.0468,-0.0774,-0.0195,0.0,0.0,0.0,0.0,0.0,0.0,0.0,0.0,0.0,0.0,-0.1351,-0.5585,-0.626,-0.7516,-1.0979,-1.1544,-1.1247,-1.0343,-1.0357,-0.9212,-0.6529,-0.5594,-0.4025,-0.143,-0.0388,0.0,0.0,0.0,0.0,0.0,0.0,0.0,0.0,0.0,0.0,0.0,0.0,-0.037,-0.1232,-0.3666,-0.5106,-0.6065,-0.9327,-1.2001,-1.4205,-1.5039,-1.6661,-1.8531,-1.8491,-2.008,-2.2828,-2.7238,-2.7888,-2.673,-2.8601,-2.5902,-2.1699,-2.1272,-1.8873,-1.6064,-1.6026,-1.399,-1.1134,-0.8272,-0.7532,-0.6372,-0.1277,0.0,0.0,0.0,0.0,0.0,0.0,0.0,0.0,0.0,0.0,-0.0213,-0.0852,-0.0959,-0.0959,-0.0959,-0.0959,-0.0746,-0.0107,0.0,0.0,0.0,-0.1916,-0.2341,-0.0213,-0.2022,-0.2341,-0.0107,0.0,0.0,0.0,0.0,0.0,0.0,0.0,0.0,0.0,0.0,0.0,0.0,0.0,0.0,0.0,-0.1712,-0.3006,-0.0593,0.0,0.0,0.0,0.0,0.0,0.0,0.0,0.0,0.0,0.0,-0.2146,-0.879,-0.9864,-1.106,-1.4603,-1.5005,-1.3857,-1.0659,-1.0282,-1.0153,-0.9904,-0.6945,-0.5024,-0.4766,-0.1805,0.0,0.0,0.0,0.0,0.0,0.0,0.0,0.0,0.0,0.0,0.0,0.0,-0.1603,-0.4552,-0.4643,-0.6419,-0.9375,-1.2607,-1.404,-1.4316,-1.7401,-1.857,-1.8518,-1.8396,-1.9931,-2.2236,-2.2656,-2.4359,-2.6312,-2.6398,-2.4343,-2.161,-2.1407,-1.765,-1.3285,-1.3074,-1.1028,-0.8167,-0.5311,-0.4465,-0.3828,-0.0746,0.0,0.0,0.0,0.0,0.0,0.0,0.0,0.0,0.0,0.0,-0.0852,-0.3403,-0.3934,-0.3934,-0.3934,-0.3934,-0.2977,-0.032,0.0,0.0,0.0,-0.0213,-0.0213,0.0,-0.0213,-0.0213,0.0,0.0,0.0,0.0,0.0,0.0,0.0,0.0,0.0,0.0,0.0,0.0,0.0,0.0,0.0,0.0,-0.2073,-0.3999,-0.2753,-0.4008,-0.4421,-0.0853,0.0,0.0,0.0,0.0,0.0,0.0,-0.1639,-0.4578,-0.9554,-1.2013,-1.4623,-1.8073,-1.8618,-1.8097,-1.68,-1.6673,-1.5781,-1.3729,-1.2331,-1.0659,-0.848,-0.7197,-0.6427,-0.6427,-0.6384,-0.6337,-0.6169,-0.6248,-0.6197,-0.6146,-0.6146,-0.6146,-0.6023,-0.4063,-0.4665,-0.7931,-0.981,-1.1291,-1.2628,-1.5846,-1.7129,-1.6986,-1.8311,-1.8626,-1.8247,-1.8097,-1.8614,-1.9713,-2.1562,-2.2822,-2.4017,-2.5497,-2.3027,-1.8991,-1.8737,-1.4821,-1.0224,-1.0086,-0.8061,-0.5629,-0.4465,-0.2977,-0.1384,-0.032,0.0,0.0,0.0,0.0,0.0,0.0,0.0,-0.0533,-0.2235,-0.2661,-0.3509,-0.6372,-0.5417,-0.4253,-0.4253,-0.2661,-0.1172,-0.0107,0.0,0.0,0.0,0.0,-0.0746,-0.2448,-0.0959,0.0,0.0,0.0,0.0,0.0,0.0,0.0,0.0,0.0,0.0,0.0,0.0,0.0,0.0,0.0,0.0,-0.0273,-0.2735,-0.5387,-0.4435,-0.6463,-0.7417,-0.2509,-0.133,-0.1356,-0.1533,-0.0707,0.0,0.0,-0.2722,-0.6121,-0.9764,-1.3089,-1.6507,-2.0004,-2.0539,-2.0539,-2.0539,-2.0539,-1.9636,-1.7194,-1.6036,-1.4377,-1.2067,-1.0915,-1.0268,-1.0268,-1.0348,-1.0152,-1.005,-1.0002,-0.9928,-0.9825,-0.9825,-1.0301,-1.1255,-0.9052,-0.9046,-1.133,-1.3381,-1.4834,-1.5824,-1.8,-1.8776,-1.8531,-1.864,-1.8423,-1.8002,-1.7867,-1.7772,-1.7841,-1.8988,-1.9379,-1.9428,-2.04,-1.8088,-1.4642,-1.4562,-1.1205,-0.7243,-0.7119,-0.5099,-0.2871,-0.2871,-0.149,-0.0213,-0.1065,-0.0639,0.0,0.0,0.0,0.0,0.0,-0.0746,-0.1916,-0.3828,-0.4886,-0.616,-0.8167,-0.6902,-0.5205,-0.4359,-0.2554,-0.0959,-0.0107,0.0,0.0,0.0,0.0,-0.0746,-0.2661,-0.1916,-0.1278,-0.1278,-0.2129,-0.1916,-0.0107,-0.0852,-0.1278,-0.1278,-0.1278,-0.1809,-0.2659,-0.2659,-0.2659,-0.2659,-0.2659,-0.2659,-0.0751,-0.3926,-0.7459,-0.5109,-0.6529,-0.7898,-0.5196,-0.4335,-0.4387,-0.4917,-0.2297,0.0,0.0,-0.272,-0.6156,-0.9803,-1.3114,-1.6533,-1.9978,-2.0539,-2.0539,-2.0539,-2.0539,-2.0539,-2.0539,-1.746,-1.5408,-1.5408,-1.2315,-1.0403,-1.0403,-1.0403,-1.0327,-1.005,-1.005,-0.9975,-0.9948,-0.9948,-1.1491,-1.4562,-1.4562,-1.4613,-1.4715,-1.449,-1.6079,-1.9183,-1.8884,-1.8667,-1.8531,-1.8531,-1.8274,-1.784,-1.7704,-1.7446,-1.6988,-1.4144,-1.3099,-1.2589,-0.9872,-0.8769,-0.8707,-0.8707,-0.6776,-0.4405,-0.4263,-0.2235,0.0,0.0,0.0,-0.0639,-0.3509,-0.2129,-0.0107,-0.0107,-0.0107,-0.0107,-0.0107,-0.2235,-0.4253,-0.4253,-0.6584,-0.859,-0.859,-0.8484,-0.7532,-0.4678,-0.4147,-0.319,-0.032,0.0,0.0,0.0,0.0,0.0,0.0,-0.2554,-0.4253,-0.4253,-0.6902,-0.5947,-0.032,-0.2765,-0.4253,-0.4253,-0.4253,-0.5629,-0.8484,-0.8484,-0.8484,-0.8484,-0.8484,-0.8484,-0.295,-0.5517,-0.8708,-0.9811,-1.0905,-1.1607,-1.1139,-0.7705,-0.4012,-0.1989,-0.0745,-0.0736,-0.3173,-0.632,-0.9737,-1.3296,-1.6637,-1.9177,-2.0385,-2.0539,-2.0539,-2.0539,-2.0539,-2.0539,-2.0539,-1.9636,-1.8988,-1.8988,-1.8013,-1.7321,-1.7321,-1.7229,-1.7114,-1.6952,-1.6952,-1.6859,-1.682,-1.6605,-1.7043,-1.7958,-1.787,-1.7782,-1.7732,-1.7657,-1.8039,-1.8884,-1.8803,-1.8626,-1.8369,-1.8138,-1.7921,-1.7471,-1.5438,-1.4581,-1.4144,-1.1212,-1.0104,-0.998,-0.9136,-0.7473,-0.5701,-0.5701,-0.3754,-0.1281,-0.1278,-0.0639,0.0,0.0,-0.1384,-0.319,-0.3934,-0.5099,-0.5947,-0.5947,-0.5947,-0.5947,-0.5947,-0.669,-0.7849,-0.9753,-1.0914,-1.1451,-1.1451,-0.9858,-0.7532,-0.4678,-0.2554,-0.0956,-0.0106,0.0,0.0,0.0,0.0,0.0,0.0,-0.2554,-0.4253,-0.4253,-0.8801,-0.9858,-0.616,-0.6796,-0.722,-0.722,-0.722,-0.7637,-0.8484,-0.8484,-0.8484,-0.8484,-0.8484,-0.8484,-0.5738,-0.711,-0.8913,-1.0696,-1.1347,-1.2087,-1.3813,-1.0407,-0.6382,-0.4546,-0.4147,-0.4727,-0.6825,-0.9866,-1.2806,-1.5063,-1.8149,-2.0376,-2.0526,-2.0539,-2.0539,-2.0539,-2.0539,-2.0539,-2.0539,-2.0539,-2.0539,-2.0539,-2.0417,-2.0336,-2.0336,-2.0187,-2.0037,-1.9875,-1.982,-1.9712,-1.9576,-1.9413,-1.9305,-1.925,-1.9101,-1.8952,-1.8816,-1.8938,-1.8938,-1.8843,-1.8654,-1.8477,-1.8287,-1.7935,-1.702,-1.5681,-1.3874,-1.2482,-1.0991,-0.8083,-0.7007,-0.6899,-0.5715,-0.4196,-0.268,-0.268,-0.1497,-0.0213,-0.1278,-0.1703,-0.1916,-0.3084,-0.4568,-0.616,-0.7326,-0.8907,-0.985,-0.8661,-0.8443,-0.8443,-0.8443,-0.9285,-1.0555,-1.239,-1.3569,-1.3675,-1.1451,-0.9647,-0.7108,-0.3084,-0.1065,0.0,0.0,0.0,0.0,0.0,0.0,0.0,0.0,-0.3607,-0.5947,-0.5947,-1.1204,-1.3493,-1.1816,-1.0686,-1.0159,-1.0126,-1.0159,-1.0669,-1.1645,-1.1835,-1.1854,-1.1816,-1.1816,-1.1835,-0.8941,-0.8868,-0.8886,-0.9616,-0.9935,-1.0855,-1.4027,-1.2696,-1.0652,-1.0389,-1.0357,-1.0369,-1.0684,-1.3186,-1.535,-1.581,-1.836,-2.0376,-2.0512,-2.0526,-2.0526,-2.0512,-2.0766,-2.0907,-2.0907,-2.116,-2.1287,-2.0907,-2.0755,-2.0532,-2.0282,-2.0132,-1.9983,-1.982,-1.9698,-1.9576,-1.9413,-1.925,-1.9115,-1.8979,-1.8816,-1.8654,-1.8518,-1.8803,-1.8938,-1.8898,-1.8477,-1.8301,-1.826,-1.7826,-1.5911,-1.3161,-1.2716,-1.0789,-0.7743,-0.4886,-0.3828,-0.3403,-0.0852,0.0,0.0,-0.032,-0.0426,-0.0959,-0.3722,-0.4572,-0.5099,-0.7743,-0.8696,-0.9436,-1.2084,-1.2927,-1.237,-0.9748,-0.9106,-0.9106,-0.9113,-1.1095,-1.2907,-1.3011,-1.5172,-1.5277,-0.9866,-0.8907,-0.6896,-0.1277,-0.0426,-0.0426,-0.0426,-0.0212,-0.0105,-0.0315,-0.0105,0.0,0.0,-0.5171,-0.847,-0.8477,-1.3647,-1.6727,-1.6727,-1.4319,-1.2959,-1.2875,-1.2969,-1.418,-1.6537,-1.6836,-1.6904,-1.6754,-1.6754,-1.6822,-1.1339,-1.171,-1.2747,-1.5407,-1.4814,-1.388,-1.5051,-1.469,-1.3357,-1.0814,-1.032,-1.1097,-1.3801,-1.4916,-1.6288,-1.9026,-1.9965,-2.0471,-2.0376,-2.0376,-2.0336,-2.02,-2.2646,-2.4207,-2.4207,-2.6699,-2.7217,-2.4473,-2.417,-2.2866,-1.9943,-1.9766,-1.963,-1.9359,-1.9427,-1.9413,-1.925,-1.9115,-1.8952,-1.8816,-1.8654,-1.8518,-1.8369,-1.8423,-1.8464,-1.845,-1.8233,-1.8138,-1.8111,-1.7785,-1.5911,-1.2944,-1.057,-0.7805,-0.478,-0.1916,-0.0852,-0.0852,-0.0213,0.0,-0.032,-0.2554,-0.3296,-0.3828,-0.669,-0.7538,-0.7743,-0.8272,-1.007,-1.1978,-1.2505,-1.4423,-1.5882,-1.5106,-1.4861,-1.4886,-1.5099,-1.5468,-1.5846,-1.5987,-1.6551,-1.5908,-1.24,-1.1767,-0.9858,-0.4147,-0.3296,-0.3288,-0.3265,-0.1368,-0.0839,-0.3015,-0.1353,0.0,0.0,-0.5113,-0.8334,-0.8396,-1.3526,-1.6564,-1.6564,-1.5975,-1.5718,-1.5808,-1.5833,-1.6132,-1.67,-1.689,-1.6904,-1.6754,-1.6754,-1.6768,-1.3825,-1.3699,-1.3519,-1.584,-1.5635,-1.531,-1.718,-1.7512,-1.7046,-1.5404,-1.4992,-1.5601,-1.7437,-1.7842,-1.8479,-2.0145,-2.1906,-2.2858,-2.2581,-2.4034,-2.4947,-2.464,-2.6273,-2.7311,-2.7311,-2.9023,-2.9288,-2.7452,-2.7267,-2.5572,-2.2191,-2.1858,-2.1017,-1.9305,-1.925,-1.9223,-1.9196,-1.8993,-1.8803,-1.8654,-1.8491,-1.8287,-1.8002,-1.8219,-1.8314,-1.8314,-1.8165,-1.8057,-1.7851,-1.6216,-1.3733,-1.0702,-0.7723,-0.4803,-0.2022,-0.0533,0.0,0.0,0.0,0.0,-0.0426,-0.3296,-0.4253,-0.4993,-0.9224,-1.0492,-1.0817,-1.2189,-1.3675,-1.4739,-1.4739,-1.5752,-1.6849,-1.6768,-1.67,-1.6659,-1.6741,-1.6646,-1.6605,-1.6822,-1.6876,-1.5936,-1.3137,-1.1556,-0.9647,-0.669,-0.6266,-0.6256,-0.6225,-0.494,-0.4599,-0.6002,-0.486,-0.3934,-0.3833,-0.7751,-1.0239,-1.0186,-1.4179,-1.6497,-1.6429,-1.6483,-1.6524,-1.6537,-1.6605,-1.6564,-1.6429,-1.6646,-1.6714,-1.6632,-1.6564,-1.6619,-1.5662,-1.5066,-1.3848,-1.4974,-1.5449,-1.6434,-1.9233,-1.9956,-2.0037,-2.0051,-2.02,-2.0363,-2.0485,-2.0526,-2.068,-2.1287,-2.3677,-2.5591,-2.5866,-2.8284,-2.9885,-2.9522,-3.0006,-3.039,-3.039,-3.0916,-3.1037,-3.0511,-3.0304,-2.8522,-2.4589,-2.418,-2.2671,-1.9424,-1.9101,-1.902,-1.9128,-1.8884,-1.8667,-1.8491,-1.8314,-1.8043,-1.7554,-1.8043,-1.8192,-1.8192,-1.8043,-1.7921,-1.7579,-1.4439,-1.1357,-0.8379,-0.5332,-0.2448,0.0,0.0,0.0,0.0,0.0,0.0,-0.0426,-0.3296,-0.4572,-0.5947,-1.1134,-1.3032,-1.399,-1.6341,-1.6985,-1.6971,-1.6944,-1.6849,-1.6637,-1.6714,-1.6592,-1.6497,-1.651,-1.6415,-1.6388,-1.6659,-1.6624,-1.6054,-1.3736,-1.1442,-0.976,-0.933,-0.9224,-0.9224,-0.9224,-0.8738,-0.8653,-0.8987,-0.8554,-0.8218,-0.8056,-1.0648,-1.2237,-1.2257,-1.4914,-1.6388,-1.6279,-1.6388,-1.6388,-1.6279,-1.6429,-1.6388,-1.6117,-1.6388,-1.651,-1.6483,-1.5855,-1.5717,-1.5383,-1.627,-1.7177,-1.8195,-1.855,-1.8906,-1.9657,-1.9807,-1.9752,-1.9875,-2.0132,-2.0336,-2.0349,-2.0458,-2.1428,-2.4417,-2.5173,-2.6414,-2.8867,-2.952,-2.9744,-2.9319,-3.195,-3.3752,-3.3752,-3.6515,-3.7041,-3.4013,-3.3521,-3.057,-2.4415,-2.3927,-2.2385,-1.8974,-1.8938,-1.8938,-1.8816,-1.8776,-1.8626,-1.8342,-1.8057,-1.7826,-1.765,-1.7608,-1.7731,-1.7731,-1.7582,-1.7568,-1.7418,-1.4304,-1.1295,-0.8379,-0.5332,-0.2448,0.0,0.0,0.0,0.0,0.0,0.0,-0.0426,-0.3296,-0.5841,-0.8484,-1.1767,-1.4423,-1.6551,-1.688,-1.6985,-1.6944,-1.6822,-1.6768,-1.6714,-1.6578,-1.6442,-1.6374,-1.6497,-1.6415,-1.6361,-1.6524,-1.6659,-1.6547,-1.6249,-1.6041,-1.5054,-1.2505,-1.2189,-1.2189,-1.2189,-0.9892,-0.9284,-1.168,-0.9636,-0.8062,-0.8049,-1.0524,-1.2135,-1.2135,-1.4681,-1.613,-1.6117,-1.613,-1.613,-1.6117,-1.6388,-1.6442,-1.6279,-1.6442,-1.6456,-1.6233,-1.3958,-1.2845,-1.5791,-1.67,-1.7595,-1.8409,-1.8721,-1.8925,-1.9291,-1.9332,-1.9332,-1.9468,-2.0994,-2.2451,-2.2851,-2.3113,-2.4369,-2.7499,-2.9792,-3.1461,-3.2355,-3.3982,-3.4892,-3.4366,-3.5697,-3.6536,-3.6268,-3.7852,-3.8111,-3.6409,-3.6141,-3.3197,-2.673,-2.6382,-2.4005,-1.9118,-1.8871,-1.8871,-1.8884,-1.8721,-1.8477,-1.8192,-1.7962,-1.7745,-1.7514,-1.7514,-1.7514,-1.7514,-1.7446,-1.7405,-1.7163,-1.4226,-1.125,-0.8319,-0.5319,-0.2448,0.0,0.0,0.0,0.0,0.0,0.0,-0.0426,-0.3278,-0.6135,-0.9013,-1.1873,-1.4739,-1.6958,-1.6876,-1.6917,-1.6931,-1.6686,-1.6619,-1.6578,-1.6442,-1.6293,-1.6198,-1.6266,-1.6225,-1.6252,-1.6483,-1.6646,-1.6754,-1.6754,-1.6876,-1.6525,-1.5167,-1.4946,-1.4946,-1.4946,-1.3778,-1.3346,-1.447,-1.3475,-1.26,-1.2537,-1.3695,-1.4383,-1.4343,-1.5483,-1.6171,-1.609,-1.6239,-1.6252,-1.609,-1.6212,-1.6239,-1.6185,-1.4717,-1.4036,-1.3947,-1.1138,-0.9936,-1.575,-1.6374,-1.689,-1.7758,-1.8084,-1.8301,-1.8721,-1.8843,-1.8925,-1.9061,-2.1746,-2.4384,-2.5588,-2.6133,-2.7513,-3.072,-3.3538,-3.5364,-3.5561,-3.7616,-3.8825,-3.821,-3.8157,-3.8076,-3.7836,-3.8076,-3.8157,-3.7863,-3.7809,-3.5017,-2.8687,-2.8261,-2.5369,-1.9159,-1.8816,-1.8816,-1.8938,-1.864,-1.8355,-1.8097,-1.7894,-1.7663,-1.7419,-1.7378,-1.7338,-1.7311,-1.7351,-1.7297,-1.6976,-1.4181,-1.1649,-0.933,-0.6372,-0.3615,-0.1065,-0.1065,-0.0639,0.0,0.0,0.0,-0.0319,-0.2422,-0.558,-0.8878,-1.0984,-1.4155,-1.6904,-1.6836,-1.689,-1.6904,-1.6605,-1.6524,-1.6469,-1.6293,-1.6157,-1.6076,-1.6076,-1.6076,-1.6144,-1.6361,-1.6537,-1.6632,-1.6632,-1.6768,-1.6822,-1.6714,-1.6686,-1.6686,-1.6686,-1.6564,-1.6429,-1.632,-1.6279,-1.6212,-1.609,-1.6076,-1.6076,-1.6076,-1.6185,-1.6185,-1.6035,-1.6239,-1.6252,-1.6022,-1.6022,-1.6049,-1.6076,-1.345,-1.2194,-1.2176,-0.8665,-0.7056,-1.4665,-1.5059,-1.5574,-1.6754,-1.7161,-1.746,-1.8179,-1.8464,-1.8599,-1.8762,-2.1562,-2.4925,-2.7795,-2.8643,-3.0225,-3.3737,-3.4482,-3.5537,-3.8126,-3.8628,-3.8504,-3.7916,-3.7863,-3.7809,-3.7809,-3.8076,-3.8157,-3.7863,-3.7809,-3.5017,-2.8687,-2.8005,-2.515,-1.8994,-1.8762,-1.8762,-1.8776,-1.8477,-1.8247,-1.8097,-1.7785,-1.7582,-1.7419,-1.727,-1.7134,-1.7012,-1.7148,-1.7202,-1.6976,-1.4181,-1.2818,-1.2189,-0.933,-0.6478,-0.3934,-0.3934,-0.2341,0.0,0.0,0.0,0.0,-0.0211,-0.3884,-0.8382,-0.8591,-1.2459,-1.6795,-1.6931,-1.6971,-1.6904,-1.6605,-1.6524,-1.6442,-1.6157,-1.609,-1.6076,-1.6076,-1.6076,-1.609,-1.6103,-1.6225,-1.6334,-1.6334,-1.6456,-1.6537,-1.6537,-1.6537,-1.6537,-1.6537,-1.6415,-1.632,-1.6307,-1.6185,-1.609,-1.6076,-1.6076,-1.6076,-1.6076,-1.609,-1.6022,-1.5872,-1.5886,-1.5886,-1.5859,-1.5859,-1.594,-1.6076,-1.345,-1.2153,-1.1953,-0.6637,-0.4208,-1.2379,-1.3701,-1.514,-1.6157,-1.6578,-1.6904,-1.7473,-1.7867,-1.8179,-1.8423,-2.1072,-2.3834,-2.5149,-2.9089,-3.3215,-3.648,-3.7253,-3.7708,-3.8539,-3.8557,-3.829,-3.7863,-3.7649,-3.7462,-3.7275,-3.7515,-3.7569,-3.7275,-3.7275,-3.5355,-3.1184,-2.9059,-2.5987,-2.1982,-1.9834,-1.8708,-1.8626,-1.8423,-1.8247,-1.8097,-1.7785,-1.7568,-1.7419,-1.7256,-1.7121,-1.6985,-1.7134,-1.7148,-1.6947,-1.5984,-1.4458,-1.2611,-1.1556,-0.9436,-0.669,-0.489,-0.3509,-0.2446,-0.0635,0.0,-0.0319,-0.1988,-0.5217,-0.8688,-1.0461,-1.3652,-1.6632,-1.6795,-1.6836,-1.6768,-1.6469,-1.6456,-1.6442,-1.6157,-1.6076,-1.6076,-1.6076,-1.6076,-1.6117,-1.6212,-1.6279,-1.6307,-1.6307,-1.6429,-1.6483,-1.6402,-1.6388,-1.6388,-1.6388,-1.6252,-1.6157,-1.6157,-1.6117,-1.6076,-1.6076,-1.6076,-1.6076,-1.6076,-1.6076,-1.6062,-1.6008,-1.59,-1.5859,-1.5859,-1.5764,-1.5832,-1.6076,-1.345,-1.2012,-1.1743,-0.6476,-0.3973,-1.2002,-1.326,-1.4746,-1.5696,-1.6035,-1.6334,-1.7039,-1.7392,-1.769,-1.8097,-2.0786,-2.3127,-2.3382,-2.7922,-3.2736,-3.6105,-3.6923,-3.7374,-3.8042,-3.8023,-3.7809,-3.7408,-3.7301,-3.7168,-3.6981,-3.7195,-3.7275,-3.6981,-3.6927,-3.5596,-3.2508,-3.0397,-2.7503,-2.3603,-2.1441,-1.9706,-1.8531,-1.8396,-1.8247,-1.8097,-1.7785,-1.7568,-1.7419,-1.7256,-1.7121,-1.6985,-1.708,-1.7066,-1.6985,-1.7026,-1.5946,-1.4096,-1.4096,-1.24,-0.9647,-0.7743,-0.5841,-0.3931,-0.2009,-0.1375,-0.1692,-0.3444,-0.655,-1.0004,-1.2023,-1.4479,-1.6632,-1.6781,-1.6795,-1.67,-1.6442,-1.6374,-1.632,-1.613,-1.6076,-1.6076,-1.6076,-1.6076,-1.6117,-1.6212,-1.6239,-1.6239,-1.6239,-1.6307,-1.6347,-1.6252,-1.6239,-1.6239,-1.6239,-1.6144,-1.6076,-1.6076,-1.6076,-1.6076,-1.6076,-1.6076,-1.6076,-1.6076,-1.6076,-1.6062,-1.6008,-1.5913,-1.5859,-1.5859,-1.571,-1.5778,-1.6076,-1.3316,-1.1951,-1.1693,-0.7339,-0.5232,0.0,0.0,0.0,-1.5343,-1.5493,-1.571,-1.6876,-1.7039,-1.7121,-1.7717,-2.0493,-2.2726,-2.2743,-2.5348,-2.8736,-3.2527,-3.3263,-3.4147,-3.6452,-3.7195,-3.7168,-3.658,-3.6767,-3.6927,-3.6927,-3.7195,-3.7248,-3.6981,-3.6927,-3.5545,-3.2709,-3.2161,-2.9437,-2.3679,-2.345,-2.1891,-1.8774,-1.8623,-1.8459,-1.8196,-1.7909,-1.7568,-1.7405,-1.7256,-1.7121,-1.6985,-1.6985,-1.6985,-1.6985,-1.7134,-1.7107,-1.6985,-1.6985,-1.5277,-1.2821,-1.2716,-0.9224,-0.4465,-0.4359,-0.4229,-0.4195,-0.4405,-0.8016,-1.241,-1.2719,-1.463,-1.6768,-1.6931,-1.6863,-1.67,-1.6551,-1.6293,-1.6076,-1.6076,-1.6076,-1.6076,-1.6076,-1.6076,-1.6076,-1.6076,-1.6076,-1.6076,-1.6076,-1.6076,-1.6076,-1.6076,-1.6076,-1.6076,-1.6076,-1.6076,-1.6076,-1.6076,-1.6076,-1.6076,-1.6076,-1.6076,-1.6076,-1.6076,-1.6076,-1.6008,-1.5859,-1.5859,-1.5859,-1.5859,-1.571,-1.5778,-1.6062,-1.3325,-1.188,-1.188,-0.9202,-0.778,-1.1222,0.0,0.0,0.0,0.0,0.0,-1.5913,-1.6198,-1.6524,-1.7229,-1.8079,-1.8929,-1.9381,-2.1812,-2.4938,-2.8394,-3.1116,-3.3106,-3.3807,-3.5931,-3.7248,-3.6874,-3.6714,-3.6607,-3.6607,-3.6687,-3.6794,-3.6927,-3.6767,-3.6383,-3.5682,-3.3637,-3.0864,-2.7289,-2.6923,-2.6348,-2.5622,-2.501,-2.355,-2.1381,-2.0919,-1.9538,-1.7256,-1.7216,-1.7121,-1.6985,-1.7093,-1.708,-1.6985,-1.7026,-1.7012,-1.6985,-1.6985,-1.6551,-1.5592,-1.3464,-1.1662,-1.007,-0.8061,-0.7308,-0.7607,-0.9546,-1.1127,-1.2708,-1.4807,-1.5819,-1.6347,-1.6714,-1.6632,-1.6429,-1.6374,-1.6225,-1.6076,-1.6076,-1.6076,-1.6076,-1.6076,-1.6076,-1.6076,-1.6076,-1.6076,-1.6076,-1.6076,-1.6076,-1.6076,-1.6076,-1.6076,-1.6076,-1.6076,-1.6076,-1.6076,-1.6076,-1.6076,-1.6076,-1.6076,-1.6076,-1.6076,-1.6076,-1.6076,-1.6062,-1.6022,-1.5913,-1.5859,-1.5859,-1.5601,-1.5574,-1.5764,-1.4932,-1.4517,-1.4517,-1.1701,-0.9403,-1.1892,-1.2983,-1.4163,-1.457,0.0,0.0,-1.575,-1.5954,-1.6198,-1.6944,-1.7202,-1.7687,-1.9161,-2.0951,-2.318,-2.6345,-2.9778,-3.2574,-3.395,-3.5896,-3.7088,-3.6794,-3.6714,-3.666,-3.65,-3.65,-3.6527,-3.658,-3.6313,-3.6259,-3.658,-3.5151,-3.313,-3.029,-3.0046,-2.9257,-2.7924,-2.7439,-2.6192,-2.4348,-2.3945,-2.2101,-1.9068,-1.9008,-1.8255,-1.6985,-1.7134,-1.7107,-1.6985,-1.7039,-1.7039,-1.6985,-1.6985,-1.6985,-1.6761,-1.5054,-1.378,-1.2505,-1.0817,-1.0264,-1.0441,-1.2101,-1.3281,-1.4638,-1.7412,-1.8097,-1.8195,-1.9527,-1.9687,-1.9559,-1.9477,-1.9379,-1.9298,-1.9298,-1.8525,-1.7734,-1.7734,-1.6857,-1.6076,-1.6076,-1.6076,-1.6076,-1.6076,-1.6076,-1.6076,-1.6076,-1.6076,-1.6076,-1.6076,-1.6076,-1.6076,-1.6076,-1.6076,-1.6076,-1.6076,-1.6022,-1.6008,-1.6076,-1.6022,-1.6008,-1.6076,-1.5995,-1.5954,-1.5954,-1.5655,-1.5493,-1.5452,-1.5506,-1.5547,-1.5437,-1.2718,-1.1192,-1.4155,-1.4136,-1.4312,-1.4936,-1.4828,0.0,-1.59,-1.594,-1.6053,-1.7085,-1.7447,-1.8434,-2.1046,-2.2089,-2.3456,-2.6112,-2.9438,-3.2613,-3.5236,-3.6334,-3.6767,-3.6446,-3.666,-3.6767,-3.6473,-3.6473,-3.6393,-3.6179,-3.5912,-3.5885,-3.6099,-3.666,-3.5707,-3.3028,-3.262,-3.116,-2.8457,-2.7984,-2.7515,-2.7269,-2.6837,-2.4895,-2.1716,-2.1441,-1.9715,-1.6985,-1.7134,-1.7107,-1.6985,-1.7134,-1.7107,-1.6985,-1.6985,-1.6985,-1.6985,-1.6985,-1.5382,-1.3148,-1.3148,-1.3284,-1.3417,-1.3631,-1.548,-1.8071,-2.0372,-2.1071,-2.1409,-2.3627,-2.4147,-2.4065,-2.3941,-2.388,-2.388,-2.388,-2.2126,-2.0363,-2.0068,-1.8129,-1.6474,-1.6175,-1.6076,-1.6076,-1.6076,-1.6076,-1.6076,-1.6076,-1.609,-1.6103,-1.609,-1.609,-1.6103,-1.609,-1.6076,-1.6076,-1.6076,-1.594,-1.5913,-1.6049,-1.5913,-1.59,-1.6049,-1.6062,-1.6062,-1.6076,-1.5791,-1.5493,-1.5181,-1.533,-1.5398,-1.5289,-1.2945,-1.2981,-1.4918,-1.4516,-1.4746,-1.4529,-1.476,0.0,-1.5045,-1.5099,-1.5842,-1.839,-1.8826,-1.972,-2.2656,-2.5537,-2.7704,-2.8156,-3.1696,-3.394,-3.2556,-3.4785,-3.6393,-3.5859,-3.6072,-3.6233,-3.6153,-3.6366,-3.658,-3.6767,-3.6714,-3.6607,-3.642,-3.6767,-3.6834,-3.6693,-3.3959,-3.3268,-3.5024,-3.2163,-3.0516,-3.0274,-2.9762,-2.6723,-2.1529,-2.139,-1.9715,-1.6985,-1.7134,-1.7107,-1.6985,-1.7134,-1.7107,-1.6985,-1.6985,-1.6985,-1.6985,-1.6985,-1.6656,-1.6131,-1.6131,-1.7559,-1.9376,-1.9407,-2.126,-2.3431,-2.3663,-2.3669,-2.3592,-2.3866,-2.4004,-2.4065,-2.3941,-2.388,-2.388,-2.388,-2.3491,-2.2614,-2.0461,-1.9593,-1.8623,-1.6474,-1.6076,-1.6076,-1.6076,-1.6076,-1.6076,-1.6076,-1.6185,-1.6225,-1.6103,-1.6185,-1.6225,-1.609,-1.6076,-1.6076,-1.6076,-1.594,-1.5859,-1.59,-1.5764,-1.575,-1.5886,-1.59,-1.5954,-1.6076,-1.5791,-1.5493,-1.5181,-1.533,-1.5343,-1.5221,-1.4606,-1.454,-1.6943,-1.6537,-1.7009,-1.8256,-1.8556,0.0,0.0,-1.8871,-1.9432,-2.1344,-2.1348,-2.2078,-2.5354,-2.7161,-2.8867,-3.0565,-3.2914,-3.411,-3.2877,-3.463,-3.5965,-3.5672,-3.5752,-3.5805,-3.5645,-3.6019,-3.6286,-3.6286,-3.6286,-3.6286,-3.6286,-3.658,-3.6927,-3.7382,-3.5459,-3.5143,-3.6714,-3.458,-3.35,-3.333,-3.2797,-3.0258,-2.5804,-2.5804,-2.3348,-1.9067,-1.9401,-1.8584,-1.7093,-1.7161,-1.7148,-1.708,-1.7012,-1.6985,-1.6985,-1.6985,-1.7915,-1.9052,-1.9052,-2.0791,-2.3156,-2.3156,-2.3929,-2.5134,-2.6107,-2.7161,-2.7933,-2.7792,-2.7862,-2.7836,-2.7792,-2.7768,-2.7768,-2.7768,-2.6783,-2.5529,-2.4172,-2.1832,-1.9593,-1.8327,-1.6956,-1.6076,-1.6076,-1.6022,-1.5995,-1.6076,-1.6144,-1.6171,-1.609,-1.6144,-1.6171,-1.609,-1.6076,-1.6049,-1.5981,-1.5832,-1.575,-1.575,-1.5601,-1.5588,-1.5737,-1.575,-1.575,-1.575,-1.5601,-1.5411,-1.5181,-1.5194,-1.5194,-1.5181,-1.5031,-1.4977,-1.978,-1.9511,-2.0043,-2.223,-2.2586,-2.2566,0.0,0.0,0.0,-2.4276,-2.4015,-2.4578,-2.796,-2.8416,-2.9184,-3.2147,-3.316,-3.3587,-3.348,-3.4416,-3.5164,-3.5271,-3.5404,-3.5378,-3.5217,-3.5565,-3.5752,-3.5565,-3.5485,-3.5591,-3.5885,-3.6286,-3.6607,-3.6821,-3.6058,-3.5952,-3.65,-3.5373,-3.5084,-3.5618,-3.503,-3.3225,-3.0198,-3.0151,-2.718,-2.2003,-2.174,-2.0539,-1.8766,-1.8208,-1.8299,-1.8707,-1.8063,-1.7811,-1.7811,-1.8424,-1.9975,-2.1933,-2.1933,-2.3672,-2.6035,-2.6035,-2.6152,-2.668,-2.852,-3.0303,-3.1664,-3.1664,-3.1664,-3.1664,-3.1664,-3.1664,-3.1664,-3.1664,-3.0115,-2.8368,-2.7888,-2.4074,-2.0559,-2.0068,-1.7886,-1.6008,-1.6035,-1.594,-1.5886,-1.5981,-1.6049,-1.6062,-1.6008,-1.6049,-1.6062,-1.6008,-1.5995,-1.594,-1.5818,-1.5683,-1.5601,-1.5601,-1.5452,-1.5438,-1.5588,-1.5628,-1.556,-1.5411,-1.5384,-1.5289,-1.514,-1.4991,-1.5004,-1.514,-1.4964,-1.4882,-2.3611,-2.3184,-2.336,-2.2912,-2.33,-2.347,-2.2464,0.0,-2.3208,-2.54,0.0,-2.6533,-2.9612,0.0,0.0,-3.1022,-3.1984,-3.2519,-3.1984,-3.2706,-3.348,-3.4015,-3.4549,-3.495,-3.5164,-3.503,-3.5004,-3.5217,-3.5004,-3.4977,-3.5271,-3.6072,-3.65,-3.6553,-3.3923,-3.3788,-3.65,-3.3267,-3.2995,-3.5618,-3.503,-3.3225,-3.0198,-2.9962,-2.815,-2.4978,-2.235,-2.249,-2.4478,-2.1726,-2.2054,-2.4019,-2.1622,-2.0583,-2.0895,-2.3362,-2.4495,-2.4701,-2.4701,-2.6546,-2.8811,-2.8811,-3.0091,-3.1738,-3.1644,-3.1739,-3.1664,-3.1664,-3.1664,-3.1664,-3.1664,-3.1664,-3.1664,-3.1664,-3.1474,-3.0592,-2.8272,-2.5529,-2.2809,-2.0461,-1.7607,-1.5723,-1.5859,-1.5859,-1.5818,-1.571,-1.5913,-1.5981,-1.5723,-1.5913,-1.5981,-1.5723,-1.5683,-1.5683,-1.5669,-1.552,-1.5438,-1.5438,-1.5289,-1.5276,-1.5425,-1.556,-1.556,-1.5411,-1.5276,-1.514,-1.4991,-1.4841,-1.4841,-1.4991,-1.4692,-1.457,-2.6005,-2.5834,-2.6371,-2.739,-2.7766,-2.7862,-2.7425,-2.7135,-2.7245,-2.8711,0.0,0.0,0.0,0.0,0.0,0.0,-3.1343,-3.169,-3.145,-3.1877,-3.2438,-3.3026,0.0,0.0,-3.4389,-3.4015,-3.3988,-3.4629,-3.4095,-3.4148,-3.5137,-3.5538,-3.5965,-3.65,-3.5113,-3.5113,-3.65,-3.47,-3.4308,-3.5618,-3.5217,-3.4321,-3.2862,-3.2913,-3.1279,-2.8142,-2.5221,-2.4699,-2.5491,-2.2368,-2.2816,-2.5376,-2.5666,-2.4906,-2.3568,-2.4804,-2.624,-2.7567,-2.7567,-2.942,-3.1617,-3.1287,-3.1718,-3.2225,-3.1931,-3.177,-3.1664,-3.1664,-3.1664,-3.1664,-3.1664,-3.1664,-3.1664,-3.1664,-3.153,-3.1114,-2.9955,-2.7605,-2.4927,-2.2327,-1.9626,-1.7239,-1.5891,-1.5601,-1.5601,-1.5628,-1.575,-1.5778,-1.5655,-1.575,-1.5778,-1.5655,-1.5642,-1.5601,-1.552,-1.5452,-1.5371,-1.5289,-1.5221,-1.5208,-1.5276,-1.5343,-1.5303,-1.5153,-1.5086,-1.4991,-1.4841,-1.4679,-1.4638,-1.4706,-1.457,-1.4516,-2.9871,-2.9759,-3.0221,-3.0981,-3.1129,-3.1022,-3.0996,-3.0621,-3.0381,-3.0782,-3.0327,0.0,0.0,0.0,-3.0087,-3.0595,0.0,-3.0969,-3.0889,-3.1183,-3.1637,0.0,0.0,0.0,0.0,-3.2946,-3.2893,-3.3881,-3.3053,-3.3133,-3.4629,-3.495,-3.5404,-3.6126,-3.6099,-3.6206,-3.65,-3.5992,-3.5752,-3.5752,-3.5538,-3.5191,-3.4763,-3.5057,-3.3403,-3.0084,-2.7206,-2.6346,-2.6787,-2.3587,-2.4426,-2.7811,-2.9765,-2.9288,-2.7465,-2.7465,-2.8687,-3.0432,-3.0432,-3.1768,-3.332,-3.2732,-3.2412,-3.2144,-3.177,-3.1664,-3.1664,-3.1664,-3.1664,-3.1664,-3.1664,-3.1664,-3.1637,-3.1557,-3.137,-3.1209,-3.1129,-2.8843,-2.6409,-2.4533,-2.1565,-1.8661,-1.6744,-1.5874,-1.5438,-1.5506,-1.5547,-1.556,-1.552,-1.5547,-1.556,-1.552,-1.5479,-1.5411,-1.5303,-1.5248,-1.5194,-1.5126,-1.5167,-1.5181,-1.5181,-1.514,-1.5072,-1.4977,-1.4882,-1.4787,-1.4679,-1.4529,-1.4448,-1.4448,-1.4448,-1.4448,-3.6598,-3.5901,-3.5361,-3.1987,-3.145,-3.1423,-3.0568,-3.0808,-3.0942,-3.014,-3.0381,-3.0675,-3.0434,-3.0114,-3.0007,-3.0327,-3.0381,0.0,0.0,-3.0461,-3.1049,-3.1637,-3.2465,-3.2973,0.0,-3.1957,-3.177,-3.2946,-3.1931,-3.1931,-3.34,-3.4309,-3.4923,-3.5217,-3.5778,-3.6206,-3.65,-3.6206,-3.6046,-3.6046,-3.6046,-3.5591,-3.4763,-3.5057,-3.34,-3.0212,-2.6996,-2.7244,-2.9631,-2.666,-2.8507,-3.3153,-3.3545,-3.3466,-3.31,-3.31,-3.32,-3.33,-3.33,-3.33,-3.332,-3.2732,-3.2643,-3.2412,-3.1851,-3.1664,-3.1664,-3.1664,-3.1664,-3.1664,-3.1664,-3.1664,-3.1583,-3.1316,-3.1236,-3.1156,-3.0862,-2.8786,-2.69,-2.6783,-2.2656,-1.9064,-1.897,-1.6999,-1.5357,-1.5221,-1.5316,-1.5371,-1.5221,-1.533,-1.5357,-1.5208,-1.5072,-1.4991,-1.4991,-1.4841,-1.4828,-1.4964,-1.5113,-1.5181,-1.5181,-1.5045,-1.4977,-1.4977,-1.4679,-1.4529,-1.4516,-1.438,-1.4312,-1.4312,-1.4312,-1.4312,-3.9532,-3.8411,-3.6773,-3.517,-3.3322,-3.177,-3.1102,-3.1076,-3.1022,-3.0354,-3.1763,-3.2421,-3.0411,-3.1296,-3.1717,-3.0061,-2.9766,-2.974,0.0,-3.014,-3.0648,-3.1049,-3.169,-3.1957,0.0,0.0,-3.1263,-3.2064,-3.3131,-3.445,-3.5944,-3.8329,-3.9215,-3.8044,-3.8446,-3.7988,-3.65,-3.6393,-3.6259,-3.6072,-3.5885,-3.5618,-3.5324,-3.5244,-3.4505,-3.3145,-3.0177,-3.0279,-3.2353,-2.9722,-3.0636,-3.3748,-3.3855,-3.3828,-3.3694,-3.348,-3.34,-3.34,-3.34,-3.3293,-3.3106,-3.2893,-3.2706,-3.2465,-3.2064,-3.1957,-3.1904,-3.1717,-3.1664,-3.1637,-3.1423,-3.137,-3.1289,-3.1022,-3.0782,-3.0621,-3.0515,-2.969,-2.8443,-2.6775,-2.5032,-2.3312,-2.165,-2.052,-1.8752,-1.551,-1.5004,-1.495,-1.4896,-1.4936,-1.5491,-1.6979,-1.5744,-1.5455,-1.6977,-1.5672,-1.476,-1.4814,-1.4869,-1.4896,-1.4896,-1.4841,-1.4774,-1.4665,-1.457,-1.4462,-1.4367,-1.4326,-1.4299,-1.4299,-1.4299,-1.4299,-4.0168,-3.9122,-3.7422,-3.589,-3.4046,-3.2358,-3.1557,-3.1557,-3.1732,-3.193,-3.3147,-3.4021,-3.3393,-3.325,-3.2778,-3.1427,-3.0117,-2.9366,0.0,-2.99,-3.0274,-3.0461,-3.0996,0.0,0.0,-3.0621,-3.1015,-3.2644,-3.3828,-3.5592,-3.7905,-3.9523,-4.0006,-3.9122,-3.8754,-3.7932,-3.634,-3.751,-3.8164,-3.7968,-3.7661,-3.7438,-3.7326,-3.5989,-3.4584,-3.3145,-3.1312,-3.1231,-3.2226,-3.0926,-3.1706,-3.3908,-3.4015,-3.3988,-3.3855,-3.3534,-3.34,-3.34,-3.34,-3.3293,-3.3106,-3.3,-3.2839,-3.2625,-3.2225,-3.2091,-3.2038,-3.1744,-3.1664,-3.161,-3.1316,-3.1236,-3.1129,-3.0728,-3.0488,-3.0327,-3.0221,-3.006,-2.9451,-2.7805,-2.6785,-2.565,-2.4015,-2.2785,-2.1038,-1.7959,-1.7357,-1.7155,-1.7155,-1.7155,-1.7788,-1.9303,-1.7992,-1.7657,-1.9107,-1.7208,-1.5904,-1.5904,-1.516,-1.4733,-1.4733,-1.4692,-1.4611,-1.4516,-1.4462,-1.4394,-1.4299,-1.4299,-1.4299,-1.4299,-1.5168,-1.5506]},{"header":{"parameterUnit":"m.s-1","parameterCategory":1,"la1":30.6,"la2":29.2853,"lo1":-89.7004,"lo2":-87.6739,"dy":0.0162,"dx":0.0183,"nx":112,"ny":82,"refTime":"2024-09-11T12:00:00:Z","depth":0,"parameterNumber":3,"parameterNumberName":"V-component_of_WINDS"},"data":[0.0,0.0,0.0,0.0,0.0,0.0,0.0,0.0,0.0,0.0,0.0,0.0,0.0,0.0,0.0,0.0,0.0,0.0,0.0,0.0,0.0,0.0,0.0,0.0,0.0,0.0,0.0,0.0,0.0,0.0,0.0,0.0,0.0,0.0,0.0,0.0,0.0,0.0,0.0,0.0,0.0,0.0,0.0,0.0,0.0,0.0,0.0,0.0,0.0,0.0,0.0,0.0,0.0,0.0,0.0,0.0,0.0,0.0,0.0,0.0,0.0,0.0,0.0,0.0,0.0,0.0,0.0,0.0,0.0,0.0,0.0,0.0,0.0,0.0,0.0,0.0,0.0,0.0,0.0,0.0,0.0,0.0,0.0,0.0,0.0,0.0,0.0,0.0,0.0,0.0,6.4705,6.7782,7.0552,7.1629,7.0244,6.8244,6.5013,6.0242,0.0,0.0,0.0,0.0,0.0,0.0,0.0,0.0,0.0,0.0,0.0,0.0,0.0,0.0,0.0,0.0,0.0,0.0,0.0,0.0,0.0,0.0,0.0,0.0,0.0,0.0,0.0,0.0,0.0,0.0,0.0,0.0,0.0,0.0,0.0,0.0,0.0,0.0,0.0,0.0,0.0,0.0,0.0,0.0,0.0,0.0,0.0,0.0,0.0,0.0,0.0,0.0,0.0,0.0,0.0,0.0,0.0,0.0,0.0,0.0,0.0,0.0,0.0,0.0,0.0,0.0,0.0,0.0,0.0,0.0,0.0,0.0,0.0,0.0,0.0,0.0,0.0,0.0,0.0,0.0,0.0,0.0,0.0,0.0,0.0,0.0,0.0,0.0,0.0,0.0,0.0,0.0,0.0,0.0,0.0,0.0,0.0,0.0,0.0,0.0,0.0,0.0,0.0,0.0,6.6474,7.1937,7.2322,7.2091,7.186,6.8936,6.5551,6.1947,0.0,0.0,0.0,0.0,0.0,0.0,0.0,0.0,0.0,0.0,0.0,0.0,0.0,0.0,0.0,0.0,0.0,0.0,0.0,0.0,0.0,0.0,0.0,0.0,0.0,0.0,0.0,0.0,0.0,0.0,0.0,0.0,0.0,0.0,0.0,0.0,0.0,0.0,0.0,0.0,0.0,0.0,0.0,0.0,0.0,0.0,0.0,0.0,0.0,0.0,0.0,0.0,0.0,0.0,0.0,0.0,0.0,0.0,0.0,0.0,0.0,0.0,0.0,0.0,0.0,0.0,0.0,0.0,0.0,0.0,0.0,0.0,0.0,0.0,0.0,0.0,0.0,0.0,0.0,0.0,0.0,0.0,0.0,0.0,0.0,0.0,0.0,0.0,0.0,0.0,0.0,0.0,0.0,0.0,0.0,0.0,0.0,0.0,0.0,0.0,0.0,0.0,0.0,6.6628,6.909,7.363,7.3783,7.3399,7.2937,6.9783,6.6397,6.2935,5.9165,0.0,0.0,0.0,0.0,0.0,0.0,0.0,0.0,0.0,0.0,0.0,0.0,0.0,0.0,0.0,0.0,0.0,0.0,0.0,0.0,0.0,0.0,0.0,0.0,0.0,0.0,0.0,0.0,0.0,0.0,0.0,0.0,0.0,0.0,0.0,0.0,0.0,0.0,0.0,0.0,0.0,0.0,0.0,0.0,0.0,0.0,0.0,0.0,0.0,0.0,0.0,0.0,0.0,0.0,0.0,0.0,0.0,0.0,0.0,0.0,0.0,0.0,0.0,0.0,0.0,0.0,0.0,0.0,0.0,0.0,0.0,0.0,0.0,0.0,0.0,0.0,0.0,0.0,0.0,0.0,0.0,0.0,0.0,0.0,0.0,0.0,0.0,0.0,0.0,0.0,0.0,0.0,0.0,0.0,0.0,0.0,0.0,0.0,0.0,0.0,0.0,0.0,7.009,7.1706,7.4707,7.463,7.4168,7.3553,6.9769,6.6244,6.3243,5.8858,0.0,0.0,0.0,0.0,0.0,0.0,0.0,0.0,0.0,0.0,0.0,0.0,0.0,0.0,0.0,0.0,0.0,0.0,0.0,0.0,0.0,0.0,0.0,0.0,0.0,0.0,0.0,0.0,0.0,0.0,0.0,0.0,0.0,0.0,0.0,0.0,0.0,0.0,0.0,0.0,0.0,0.0,0.0,0.0,0.0,0.0,0.0,0.0,0.0,0.0,0.0,0.0,0.0,0.0,0.0,0.0,0.0,0.0,0.0,0.0,0.0,0.0,0.0,0.0,0.0,0.0,0.0,0.0,0.0,0.0,0.0,0.0,0.0,0.0,0.0,0.0,0.0,0.0,0.0,0.0,0.0,0.0,0.0,0.0,0.0,0.0,0.0,0.0,0.0,0.0,0.0,0.0,0.0,0.0,0.0,0.0,0.0,0.0,0.0,0.0,0.0,0.0,7.1245,7.3937,7.5707,7.4476,7.3553,7.3476,6.8167,6.4089,6.2332,5.7473,0.0,0.0,0.0,0.0,0.0,0.0,0.0,0.0,0.0,0.0,0.0,0.0,0.0,0.0,0.0,0.0,0.0,0.0,0.0,0.0,0.0,0.0,0.0,0.0,0.0,0.0,0.0,0.0,0.0,0.0,0.0,0.0,0.0,0.0,0.0,0.0,0.0,0.0,0.0,0.0,0.0,0.0,0.0,0.0,0.0,0.0,0.0,0.0,0.0,0.0,0.0,0.0,0.0,0.0,0.0,0.0,0.0,0.0,0.0,0.0,0.0,0.0,0.0,0.0,0.0,0.0,0.0,0.0,0.0,0.0,0.0,0.0,0.0,0.0,0.0,0.0,0.0,0.0,0.0,0.0,0.0,0.0,0.0,0.0,0.0,0.0,0.0,0.0,0.0,0.0,0.0,0.0,0.0,0.0,0.0,0.0,0.0,0.0,0.0,0.0,0.0,0.0,7.0475,7.2937,0.0,7.4938,7.4091,7.3538,6.9475,6.5551,6.2332,0.0,0.0,0.0,0.0,0.0,0.0,0.0,0.0,0.0,0.0,0.0,0.0,0.0,0.0,0.0,0.0,0.0,0.0,0.0,0.0,0.0,0.0,0.0,0.0,0.0,0.0,0.0,0.0,0.0,0.0,0.0,0.0,0.0,0.0,0.0,0.0,0.0,0.0,0.0,0.0,0.0,0.0,0.0,0.0,0.0,0.0,0.0,0.0,0.0,0.0,0.0,0.0,0.0,0.0,0.0,0.0,0.0,0.0,0.0,0.0,0.0,0.0,0.0,0.0,0.0,0.0,0.0,0.0,0.0,0.0,0.0,0.0,0.0,0.0,0.0,0.0,0.0,0.0,0.0,0.0,0.0,0.0,0.0,0.0,0.0,0.0,0.0,0.0,0.0,0.0,0.0,0.0,0.0,0.0,0.0,0.0,0.0,0.0,0.0,0.0,0.0,0.0,6.7859,7.0552,7.3091,7.5707,7.5014,7.4014,7.3168,6.9244,6.5243,6.1473,0.0,0.0,0.0,0.0,0.0,0.0,0.0,0.0,0.0,0.0,0.0,0.0,0.0,0.0,0.0,0.0,0.0,0.0,0.0,0.0,0.0,0.0,0.0,0.0,0.0,0.0,0.0,0.0,0.0,0.0,0.0,0.0,0.0,0.0,0.0,0.0,0.0,0.0,0.0,0.0,0.0,0.0,0.0,0.0,0.0,0.0,0.0,0.0,0.0,0.0,0.0,0.0,0.0,0.0,0.0,0.0,0.0,0.0,0.0,0.0,0.0,0.0,0.0,0.0,0.0,0.0,0.0,0.0,0.0,0.0,0.0,0.0,0.0,0.0,0.0,0.0,0.0,0.0,0.0,0.0,0.0,0.0,0.0,0.0,0.0,0.0,0.0,0.0,0.0,0.0,0.0,0.0,0.0,0.0,0.0,0.0,0.0,0.0,0.0,0.0,0.0,0.0,6.809,7.2091,7.5014,7.5938,7.4476,7.3168,7.2245,6.6782,6.2243,0.0,0.0,0.0,0.0,0.0,0.0,0.0,0.0,0.0,0.0,0.0,0.0,0.0,0.0,0.0,0.0,0.0,0.0,0.0,0.0,0.0,0.0,0.0,0.0,0.0,0.0,0.0,0.0,0.0,0.0,0.0,0.0,0.0,0.0,0.0,0.0,0.0,0.0,0.0,0.0,0.0,0.0,0.0,0.0,0.0,0.0,0.0,0.0,0.0,0.0,0.0,0.0,0.0,0.0,0.0,0.0,0.0,0.0,0.0,0.0,0.0,0.0,0.0,0.0,0.0,0.0,0.0,0.0,0.0,0.0,0.0,0.0,0.0,0.0,0.0,0.0,0.0,0.0,0.0,0.0,0.0,0.0,0.0,0.0,0.0,0.0,0.0,0.0,0.0,0.0,0.0,0.0,0.0,0.0,0.0,0.0,0.0,0.0,0.0,0.0,0.0,0.0,0.0,6.9013,7.2476,7.5245,7.6784,7.5399,7.3783,7.2322,6.8398,6.4166,5.9781,0.0,0.0,0.0,0.0,0.0,0.0,0.0,0.0,0.0,0.0,0.0,0.0,0.0,0.0,0.0,0.0,0.0,0.0,0.0,0.0,0.0,0.0,0.0,0.0,0.0,0.0,0.0,0.0,0.0,0.0,0.0,0.0,0.0,0.0,0.0,0.0,0.0,0.0,0.0,0.0,0.0,0.0,0.0,0.0,0.0,0.0,0.0,0.0,0.0,0.0,0.0,0.0,0.0,0.0,0.0,0.0,0.0,0.0,0.0,0.0,0.0,0.0,0.0,0.0,0.0,0.0,0.0,0.0,0.0,0.0,0.0,0.0,0.0,0.0,0.0,0.0,0.0,0.0,0.0,0.0,0.0,0.0,0.0,0.0,0.0,0.0,0.0,0.0,0.0,0.0,0.0,0.0,0.0,0.0,0.0,0.0,0.0,0.0,0.0,0.0,0.0,0.0,6.8936,7.2706,7.563,7.663,7.5553,7.4014,7.2322,6.9398,6.5474,6.0319,0.0,0.0,0.0,0.0,0.0,0.0,0.0,0.0,0.0,0.0,0.0,0.0,0.0,0.0,0.0,0.0,0.0,0.0,0.0,0.0,0.0,0.0,0.0,0.0,0.0,0.0,0.0,0.0,0.0,0.0,0.0,0.0,0.0,0.0,0.0,0.0,0.0,0.0,0.0,0.0,0.0,0.0,0.0,0.0,0.0,0.0,0.0,0.0,0.0,0.0,0.0,0.0,0.0,0.0,0.0,0.0,0.0,0.0,0.0,0.0,0.0,0.0,0.0,0.0,0.0,0.0,0.0,0.0,0.0,0.0,0.0,0.0,0.0,0.0,0.0,0.0,0.0,0.0,0.0,0.0,0.0,0.0,0.0,0.0,0.0,0.0,0.0,0.0,0.0,0.0,0.0,0.0,0.0,0.0,0.0,0.0,0.0,0.0,0.0,0.0,0.0,0.0,6.8552,7.2937,7.6092,7.6245,7.5399,7.4091,7.2322,7.0014,6.6397,6.1243,0.0,0.0,0.0,0.0,0.0,0.0,0.0,0.0,0.0,0.0,0.0,0.0,0.0,0.0,0.0,0.0,0.0,0.0,0.0,0.0,0.0,0.0,0.0,0.0,0.0,0.0,0.0,0.0,0.0,0.0,0.0,0.0,0.0,0.0,0.0,0.0,0.0,0.0,0.0,0.0,0.0,0.0,0.0,0.0,0.0,0.0,0.0,0.0,0.0,0.0,0.0,0.0,0.0,0.0,0.0,0.0,0.0,0.0,0.0,0.0,6.155,5.8781,0.0,0.0,0.0,0.0,0.0,0.0,0.0,0.0,0.0,0.0,0.0,0.0,0.0,0.0,0.0,0.0,0.0,0.0,0.0,0.0,0.0,0.0,0.0,0.0,0.0,0.0,0.0,0.0,0.0,0.0,0.0,0.0,0.0,0.0,0.0,0.0,0.0,0.0,0.0,0.0,7.0167,7.363,7.6476,7.7861,7.663,7.4784,7.2399,7.1091,6.7936,6.2178,6.0704,0.0,0.0,0.0,0.0,0.0,0.0,0.0,0.0,0.0,0.0,0.0,0.0,0.0,0.0,0.0,0.0,0.0,0.0,0.0,0.0,0.0,0.0,0.0,0.0,0.0,0.0,0.0,0.0,0.0,0.0,0.0,0.0,0.0,0.0,0.0,0.0,0.0,0.0,0.0,0.0,0.0,0.0,0.0,0.0,0.0,0.0,0.0,0.0,0.0,0.0,0.0,0.0,0.0,0.0,0.0,0.0,0.0,0.0,0.0,6.632,6.3935,0.0,0.0,0.0,0.0,0.0,0.0,0.0,0.0,0.0,0.0,0.0,0.0,0.0,0.0,0.0,0.0,0.0,0.0,0.0,0.0,0.0,0.0,0.0,0.0,0.0,0.0,0.0,0.0,0.0,0.0,0.0,0.0,0.0,0.0,0.0,0.0,0.0,0.0,0.0,0.0,7.0706,7.4245,7.7092,7.84,7.74,7.5784,7.3553,7.2245,6.9552,6.4782,6.2935,0.0,0.0,0.0,0.0,0.0,0.0,0.0,0.0,0.0,0.0,0.0,0.0,0.0,0.0,0.0,0.0,0.0,0.0,0.0,0.0,0.0,0.0,0.0,0.0,0.0,0.0,0.0,0.0,0.0,0.0,0.0,0.0,0.0,0.0,0.0,0.0,0.0,0.0,0.0,0.0,0.0,0.0,0.0,0.0,0.0,0.0,0.0,0.0,0.0,0.0,0.0,0.0,0.0,7.3476,7.363,7.2706,7.4322,7.463,7.386,7.1706,7.0167,6.8859,6.6628,0.0,0.0,0.0,0.0,0.0,0.0,0.0,0.0,0.0,0.0,0.0,0.0,0.0,0.0,0.0,0.0,0.0,0.0,0.0,0.0,0.0,0.0,7.0475,7.1706,7.3091,7.2629,6.6936,0.0,0.0,0.0,0.0,0.0,0.0,0.0,0.0,0.0,0.0,0.0,7.1168,7.4938,7.7784,7.8631,7.8015,7.6784,7.5091,7.363,7.1321,6.7782,6.5551,6.3243,0.0,0.0,0.0,0.0,0.0,0.0,0.0,0.0,0.0,0.0,0.0,0.0,0.0,0.0,0.0,0.0,0.0,0.0,0.0,0.0,0.0,0.0,0.0,0.0,0.0,0.0,0.0,0.0,0.0,0.0,0.0,0.0,6.909,7.009,0.0,0.0,0.0,0.0,0.0,0.0,0.0,0.0,0.0,0.0,0.0,0.0,0.0,7.2014,7.3014,7.6015,7.7169,7.6476,8.0246,8.1246,7.9785,8.0708,8.1093,8.0939,8.0631,0.0,7.1629,7.0552,0.0,0.0,0.0,0.0,0.0,0.0,0.0,0.0,0.0,0.0,0.0,0.0,0.0,0.0,0.0,0.0,0.0,0.0,0.0,0.0,0.0,0.0,7.7015,7.6553,7.663,7.6553,7.563,7.2091,6.8706,6.7628,6.6936,0.0,0.0,0.0,0.0,0.0,0.0,0.0,7.2937,7.6169,7.8631,7.9554,7.8861,7.763,7.5938,7.563,7.3707,6.9629,6.9013,6.7705,6.5166,6.3474,0.0,0.0,0.0,0.0,0.0,0.0,0.0,0.0,0.0,0.0,0.0,0.0,0.0,0.0,0.0,0.0,0.0,0.0,0.0,0.0,0.0,0.0,0.0,0.0,0.0,0.0,0.0,0.0,0.0,7.0783,7.3014,7.2399,7.1398,6.9937,0.0,0.0,0.0,0.0,0.0,0.0,0.0,0.0,0.0,7.7092,7.763,7.8784,8.0554,8.2554,8.3555,8.3708,8.5555,8.5786,8.4632,8.5478,8.5324,8.4478,8.4939,8.317,7.9708,7.6015,7.3476,7.1706,0.0,0.0,0.0,0.0,6.9321,6.9475,7.1014,7.1245,7.086,7.0706,0.0,0.0,0.0,0.0,0.0,0.0,0.0,7.1552,7.3322,7.6092,7.8784,7.9862,8.0477,8.0862,8.0862,7.8707,7.5707,7.2014,7.1706,7.0783,6.6705,0.0,0.0,0.0,0.0,7.3168,7.5322,7.7707,7.9554,8.0477,7.9785,7.8707,7.7476,7.6553,7.4784,7.2014,7.0937,6.9475,6.7398,6.609,6.4397,0.0,0.0,0.0,0.0,0.0,0.0,0.0,0.0,0.0,0.0,0.0,0.0,0.0,0.0,0.0,0.0,0.0,0.0,0.0,0.0,0.0,0.0,0.0,0.0,0.0,0.0,0.0,0.0,7.4707,7.7015,7.5322,7.5476,7.4399,0.0,0.0,0.0,0.0,0.0,0.0,7.8477,7.94,8.0939,8.3247,8.3939,8.5247,8.7401,8.8017,8.8709,8.9325,8.9325,8.9017,8.8402,8.9017,8.8632,8.7478,8.8094,8.8017,8.7017,8.1477,7.8246,7.6399,7.4091,7.2937,7.2552,7.3014,7.286,7.2937,7.5476,7.5938,7.5322,7.5168,7.4707,7.363,7.1091,0.0,0.0,0.0,0.0,7.4091,7.663,7.84,8.0015,8.2093,8.3093,8.3555,8.3555,8.3093,8.1246,7.6399,7.6092,7.5091,7.0244,0.0,0.0,7.009,7.2552,7.5245,7.7323,7.9092,8.04,8.1016,8.0554,7.9785,7.8938,7.7707,7.6169,7.4245,7.2937,7.1475,6.9783,6.8859,6.7321,6.5013,0.0,0.0,0.0,0.0,0.0,0.0,0.0,0.0,0.0,0.0,0.0,0.0,0.0,0.0,0.0,0.0,0.0,0.0,0.0,0.0,0.0,0.0,0.0,0.0,0.0,0.0,0.0,0.0,0.0,7.9708,8.0862,0.0,0.0,0.0,0.0,7.9169,8.0862,8.2939,8.5478,8.6401,8.7709,8.9402,8.9479,9.0017,9.0941,9.1018,9.1018,9.1095,9.1095,9.1018,9.1018,9.1018,9.1018,9.0941,9.1018,9.1018,9.0633,8.6324,8.3478,8.1785,8.0015,7.84,7.6861,7.6092,7.6322,7.7015,7.7169,7.7169,7.74,7.9015,7.7861,7.5861,7.5707,7.3937,0.0,0.0,7.5707,7.763,8.0169,8.1477,8.2324,8.3324,8.3555,8.3555,8.3555,8.3555,8.2939,8.1093,7.9477,7.7784,7.5861,0.0,7.4399,7.4399,7.5938,7.74,7.8323,7.9939,8.1016,8.1093,8.1093,8.0708,7.9785,7.9631,7.8554,7.6015,7.5784,7.5014,7.3308,7.2399,7.1091,6.9398,6.6936,0.0,0.0,0.0,0.0,0.0,0.0,0.0,0.0,0.0,0.0,0.0,0.0,0.0,0.0,0.0,0.0,0.0,0.0,0.0,0.0,0.0,0.0,0.0,0.0,0.0,0.0,0.0,0.0,8.4786,8.5709,0.0,8.2477,8.2631,8.3478,8.4632,8.6786,8.8863,9.0864,9.1325,9.2018,9.3172,9.2633,9.2866,9.3909,9.3714,9.4022,9.4682,9.4022,9.3633,9.3633,9.3095,9.2883,9.3074,9.3074,9.3139,9.3201,9.1727,8.928,8.6376,8.4289,8.3123,8.2492,8.1424,8.1395,8.1773,8.1644,8.1639,8.1882,8.2492,8.1716,8.0474,8.0474,7.9466,7.8416,7.8912,7.9456,8.0254,8.1554,8.2477,8.3324,8.4247,8.5247,8.5863,8.5324,8.5247,8.4863,8.3785,8.2554,8.1093,7.8861,7.8631,7.8477,7.7323,7.8169,7.9246,8.0092,8.0708,8.1093,8.1093,8.1093,8.0939,8.0631,7.9631,7.8092,7.6092,7.5014,7.363,7.1937,7.1552,7.086,6.9706,6.8244,6.6013,0.0,0.0,0.0,0.0,0.0,0.0,0.0,0.0,0.0,0.0,0.0,0.0,0.0,0.0,0.0,0.0,0.0,0.0,0.0,0.0,0.0,0.0,0.0,0.0,0.0,8.6007,8.9046,8.8429,9.0262,9.0503,8.7963,8.8723,8.9715,9.0566,9.2499,9.4186,9.5655,9.5733,9.5965,9.6506,9.5718,9.5772,9.6783,9.6314,9.6623,9.7625,9.6856,9.6583,9.6506,9.564,9.5321,9.5542,9.5219,9.5189,9.5357,9.5128,9.3592,9.1121,8.8334,8.7044,8.6638,8.4991,8.466,8.4942,8.4521,8.4329,8.4311,8.4311,8.3922,8.3447,8.3447,8.3058,8.2559,8.2398,8.2347,8.2505,8.3098,8.3693,8.4357,8.5126,8.617,8.6863,8.6632,8.6555,8.6478,8.6247,8.5016,8.3401,8.14,8.1785,8.1785,8.0015,8.0246,8.0785,8.1093,8.1093,8.1093,8.1093,8.1093,8.1093,8.1093,7.9477,7.8015,7.6938,7.5245,7.3707,7.2245,7.1937,7.1398,7.0552,6.9706,6.8167,6.5859,0.0,0.0,0.0,0.0,0.0,0.0,0.0,0.0,0.0,0.0,0.0,0.0,0.0,0.0,0.0,0.0,0.0,0.0,0.0,0.0,0.0,0.0,0.0,8.3016,8.8668,9.2471,9.0855,9.4465,9.6248,9.3866,9.5088,9.6317,9.7096,9.7935,9.8791,9.9638,9.9716,9.9638,9.9638,9.885,9.8782,9.9647,9.886,9.886,9.9647,9.9638,9.9638,9.956,9.8695,9.8305,9.8315,9.7449,9.7069,9.7087,9.6419,9.6163,9.5841,9.2112,9.0252,8.9247,8.667,8.6049,8.649,8.5638,8.4903,8.4404,8.4404,8.4404,8.4326,8.4326,8.4326,8.4326,8.4319,8.4319,8.4418,8.5075,8.5214,8.5372,8.6007,8.6203,8.6418,8.7187,8.7418,8.7632,8.8479,8.6632,8.4709,8.3862,8.4401,8.4324,8.2631,8.2324,0.0,8.117,8.1093,8.1093,8.1093,8.1093,8.1093,8.1093,7.9477,7.8477,7.8492,7.6861,7.5553,7.4721,7.3952,7.3119,7.2363,7.1516,7.1054,7.1054,0.0,0.0,0.0,0.0,0.0,0.0,0.0,0.0,0.0,0.0,0.0,0.0,0.0,0.0,0.0,0.0,0.0,0.0,0.0,0.0,0.0,8.9248,9.2095,9.071,9.3987,9.703,9.8412,9.9797,10.0668,10.06,10.0522,10.0513,10.0668,10.1516,10.1827,10.1428,10.1428,10.1117,10.0485,10.0261,10.0426,10.0793,10.0971,10.0971,10.0793,10.0582,10.0183,9.956,9.9327,9.9335,9.9461,9.9227,9.9207,9.9349,9.8504,9.8196,9.7883,9.4357,9.2868,9.2395,9.03,8.9225,8.8734,8.7967,8.7618,8.7401,8.6774,8.6227,8.568,8.568,8.5212,8.4734,8.459,8.4488,8.4685,8.5274,8.5912,8.6525,8.7378,8.7885,8.8091,8.7704,8.7472,8.7478,8.7709,8.7171,8.6632,8.6401,8.6017,8.517,8.3478,8.2708,0.0,8.117,8.1093,8.1093,8.1093,8.1093,8.1093,8.1093,7.9477,7.8246,7.763,7.5476,7.437,7.4866,7.4115,7.4214,7.5348,7.4597,7.414,0.0,0.0,0.0,0.0,0.0,0.0,0.0,0.0,0.0,0.0,0.0,0.0,0.0,0.0,0.0,0.0,0.0,0.0,0.0,0.0,0.0,0.0,9.4403,9.7326,9.7865,9.9613,10.1317,10.2915,10.3995,10.4806,10.5269,10.4879,10.4572,10.4572,10.4723,10.4723,10.4567,10.3859,10.3391,10.3313,10.2616,10.2494,10.3017,10.3279,10.3279,10.3017,10.3197,10.2928,10.207,10.1679,10.1406,10.1064,10.083,10.0535,10.0234,9.9375,9.8984,9.875,0.0,0.0,0.0,0.0,9.135,9.0286,8.9826,8.9213,8.8594,8.8125,8.7422,8.6719,8.6719,8.6406,8.5937,8.5843,8.5834,8.5972,8.6563,8.7066,8.767,8.8445,8.8944,8.9133,8.8977,8.8517,8.8377,8.9151,8.8996,0.0,8.8764,8.758,8.594,8.3939,8.317,8.2401,8.1246,8.1093,8.1246,8.1554,8.1721,8.1898,8.2207,8.0409,0.0,0.0,0.0,7.564,7.6194,7.5737,0.0,0.0,0.0,7.913,8.0143,7.952,0.0,0.0,7.7987,7.8142,0.0,0.0,0.0,0.0,0.0,0.0,0.0,0.0,0.0,0.0,0.0,0.0,0.0,0.0,0.0,0.0,9.9481,10.1578,10.433,10.5119,10.5524,10.5498,10.7084,10.828,10.8437,10.8437,10.8515,10.8593,10.789,10.7734,10.8437,10.6875,0.0,0.0,0.0,10.5078,10.5937,10.6015,10.6015,10.5937,10.6562,10.6406,10.5625,10.4687,10.3906,10.3125,10.2265,10.1484,10.0703,9.9609,9.9062,9.8672,9.7187,9.664,9.6406,9.4493,9.2868,9.1562,9.1288,0.0,0.0,8.875,8.8203,8.7656,8.75,8.7578,8.7656,8.7656,8.7734,8.7889,8.8471,8.8685,8.8895,8.9476,8.9574,8.9792,9.0485,8.9916,8.9813,9.1447,9.1058,9.0513,9.06,8.8945,8.6778,8.4327,8.3864,8.3248,8.1629,8.1475,8.1706,8.2477,0.0,0.0,8.4033,8.2016,8.1049,8.1975,7.9817,7.8514,7.8527,7.8935,8.0195,8.2455,8.3461,8.502,8.7273,8.8045,8.8591,8.8605,8.2273,8.1785,0.0,0.0,0.0,0.0,0.0,0.0,0.0,0.0,0.0,0.0,0.0,0.0,0.0,0.0,0.0,10.0019,10.2635,10.5332,10.8801,11.0004,10.9785,10.8075,10.8991,11.0118,11.1093,11.1093,11.1406,11.2109,11.2031,11.1718,11.1172,11.0234,10.9375,10.8828,10.8515,10.8437,10.8593,10.9297,10.9297,10.8593,10.7969,0.0,10.6406,10.5625,10.5234,10.4922,10.4062,10.3594,10.3281,10.1015,9.9219,9.789,9.7578,9.75,9.7343,9.6326,9.4843,9.3281,9.2576,9.164,9.0547,8.914,8.8594,8.8359,8.7734,8.7969,0.0,8.8437,8.8984,8.9531,8.9685,9.0232,9.0777,9.0927,9.0807,9.0745,9.0901,9.0099,8.9674,9.0678,9.0211,8.983,9.0522,8.9663,8.8274,8.6418,8.5564,8.4786,8.3786,8.3708,8.3708,8.3863,8.3986,8.4324,8.511,8.3517,8.2839,8.3781,8.2814,8.2253,8.2261,8.5051,8.6866,8.7335,8.8897,8.9913,9.0458,9.0614,9.1395,9.2722,8.9682,8.8764,0.0,0.0,0.0,0.0,0.0,0.0,0.0,0.0,0.0,0.0,0.0,9.6172,9.7865,0.0,10.2789,10.5328,10.679,10.8585,11.1288,11.204,11.1826,11.0605,11.1815,11.2808,11.2936,11.3511,11.3984,11.4375,11.4062,11.3828,11.3828,11.2578,11.1875,11.1875,11.1093,11.0625,11.0625,11.1015,11.0781,11.0,11.0,10.9297,10.7969,10.7578,10.6875,10.6093,10.5234,10.4609,10.3984,10.1406,9.9531,9.8281,9.789,9.7734,9.7578,9.6797,9.5937,9.5078,9.4219,9.3047,9.1797,9.0937,9.0078,8.9297,8.8906,8.9062,8.9375,8.9375,8.9687,9.0078,9.0547,9.1328,9.2031,9.25,9.2885,9.3105,9.3105,9.1985,9.1249,9.2104,9.1245,9.0621,9.1479,9.0855,8.9486,8.7137,8.6405,8.586,8.5012,8.4941,8.5245,8.6101,8.5877,8.6239,8.7487,8.6536,8.5867,8.5867,8.5593,8.561,8.6001,8.8123,8.9765,9.0625,9.1953,9.2812,9.3281,9.3281,9.3906,9.5156,9.4105,9.3361,0.0,0.0,0.0,0.0,0.0,0.0,0.0,9.1556,9.4403,9.8019,10.0481,10.2866,10.5559,10.679,10.8098,11.0329,11.0714,11.1329,11.3022,11.3176,11.3218,11.3191,11.439,11.5101,11.4608,11.5379,11.6015,11.6172,11.5625,11.5468,11.6172,11.4765,11.4297,11.5,11.3515,11.2578,11.2578,11.2734,11.2187,11.1406,11.1875,11.1328,10.9765,10.9531,10.8515,10.7109,10.6015,10.4765,10.3515,10.1406,9.9922,9.8906,9.8203,9.7812,9.7656,9.6953,9.664,9.6406,9.5703,9.4453,9.3047,9.2734,9.164,9.0469,9.0078,9.0156,9.0312,9.0469,9.0547,9.0703,9.1797,9.2422,9.3047,9.3984,9.4687,9.5234,9.5234,9.4062,9.3281,9.3984,9.3047,9.2265,9.2969,9.2344,9.0849,8.8116,8.7534,8.7144,8.6449,8.6371,8.6916,8.8313,8.8028,8.8309,8.987,8.9523,8.8984,8.8515,8.8359,8.8672,8.9687,9.0547,9.1719,9.3359,9.4219,9.5,9.5703,9.5703,9.6015,9.6719,9.6719,9.6328,7.9631,8.2631,8.5709,8.8248,9.0325,9.348,0.0,10.1635,10.2481,10.6636,10.8329,10.9175,10.956,11.0329,11.1329,11.2329,11.2406,11.3022,11.4791,11.5022,11.5411,11.6417,11.5587,11.5401,11.6635,11.6796,11.7187,11.7968,11.789,11.789,11.7968,11.7109,11.6562,11.6718,11.5781,11.5312,11.5312,11.5312,11.4922,11.4062,11.3437,11.25,11.1562,11.0,10.9218,10.8906,10.6484,10.4062,10.1875,10.1562,10.0469,9.8984,9.8906,9.8359,9.7656,9.7578,9.7109,9.6484,9.6406,9.5703,9.4687,9.3125,9.25,9.2031,9.0469,9.0547,9.1328,9.2109,9.2344,9.2656,9.4375,9.4297,9.3984,9.4844,9.5156,9.5234,9.5234,9.5078,9.4922,9.5078,9.4922,9.4765,9.4922,9.4219,9.2968,9.1091,9.0153,8.9606,8.9528,8.9528,8.9606,8.9762,8.9685,9.0077,9.1015,9.1015,9.1328,9.1953,9.1328,9.164,9.3281,9.414,9.5078,9.6015,9.6875,9.7344,9.7422,9.7422,9.75,9.7578,9.7578,9.75,8.5863,8.8017,9.0017,9.4095,9.6711,9.9712,10.4866,10.6559,10.7867,11.1175,11.256,11.3176,11.3176,11.433,11.5099,11.4868,11.533,11.5869,11.6715,11.6455,11.6219,11.5778,11.5793,11.6324,11.7378,11.7728,11.789,11.8281,11.8828,11.8828,11.8281,11.8437,11.8281,11.7812,11.6875,11.6484,11.6484,11.6015,11.5625,11.5234,11.4375,11.3515,11.2578,11.0937,10.8984,10.7031,10.6015,10.3672,10.0781,10.0781,9.9844,9.8203,9.8203,9.8047,9.7734,9.7734,9.75,9.7187,9.7187,9.664,9.5859,9.5078,9.4219,9.3203,9.25,9.25,9.289,9.3281,9.375,9.4297,9.5,9.5312,9.5469,9.5859,9.6328,9.664,9.664,9.6328,9.5937,9.5937,9.5547,9.5234,9.5234,9.4453,9.3672,9.289,9.164,9.0781,9.0781,9.0781,9.0781,9.0781,9.1172,9.164,9.2031,9.25,9.3203,9.4062,9.375,9.3906,9.4609,9.5469,9.6094,9.6484,9.7265,9.7734,9.7734,9.8203,9.8203,9.7734,9.8203,9.8203,9.0248,9.2249,9.4326,9.8711,10.2097,10.5174,10.8406,11.0406,11.2175,11.433,11.5176,11.5561,11.5561,11.6561,11.7176,11.6561,11.7023,11.7452,11.7626,11.6806,11.6065,11.5404,11.5666,11.6311,11.7515,11.8038,11.8437,11.8593,11.9218,11.9297,11.8672,11.9297,11.9218,11.8281,11.789,11.7578,11.7422,11.6797,11.6172,11.5703,11.5078,11.4297,11.3125,11.1406,10.8984,10.6172,10.5703,10.3906,10.1328,10.0937,9.9765,9.8359,9.8125,9.789,9.7734,9.7734,9.7734,9.7734,9.7734,9.7344,9.6797,9.6562,9.5625,9.4531,9.4297,9.4297,9.4297,9.4531,9.4922,9.5312,9.5781,9.6172,9.6562,9.6797,9.7265,9.7734,9.7734,9.7265,9.6797,9.6797,9.6328,9.5859,9.5859,9.5156,9.4609,9.4609,9.3359,9.2187,9.1719,9.164,9.164,9.164,9.2187,9.2812,9.3281,9.3672,9.4453,9.5781,9.5703,9.5625,9.5859,9.6484,9.6797,9.6797,9.7422,9.7734,9.7734,9.8359,9.8281,9.7734,9.8359,9.8281,9.1402,9.4788,9.9173,10.1789,10.5636,10.9406,11.2022,11.3868,11.5407,11.6176,11.6407,11.6484,11.6484,11.6484,11.6484,11.6484,11.6484,11.668,11.7028,11.5609,11.4987,11.6402,11.5119,11.4938,11.6795,11.7812,11.8672,11.9531,11.9609,11.9609,11.9609,11.9609,11.9218,11.8281,11.9062,11.9062,11.8281,11.8203,11.7422,11.5781,11.5703,11.4765,11.3125,11.1406,10.9609,10.7812,10.6172,10.5,10.3984,10.2265,10.1015,10.0078,9.9297,9.8437,9.7734,9.7734,9.7734,9.7734,9.7734,9.7656,9.75,9.6719,9.6484,9.625,9.539,9.5156,9.5312,9.6172,9.5859,9.5547,9.7187,9.7031,9.6719,9.75,9.7656,9.7734,9.7734,9.7656,9.7656,9.7656,9.7656,9.7656,9.7656,9.6953,9.6406,9.6406,9.5625,9.4453,9.2812,9.2578,9.2578,9.2578,9.2578,9.3281,9.5,9.4375,9.5,9.75,9.6875,9.6797,9.7578,9.7656,9.7656,9.7656,9.7656,9.7734,9.7734,9.7734,9.7734,9.7734,9.7734,9.7734,9.6095,9.8711,10.1635,10.6405,10.9098,11.1406,11.4484,11.6099,11.6715,11.5869,11.5176,11.4484,11.3407,11.3637,11.4176,11.4714,11.633,11.7528,11.782,11.7972,11.7275,11.5095,11.5504,11.5618,11.4609,11.6328,11.7731,11.8393,11.968,12.0073,11.9408,12.0619,12.0703,11.9218,11.9375,11.9218,11.8281,11.8281,11.7968,11.7422,11.6328,11.4609,11.2265,11.1718,11.0234,10.789,10.6797,10.5234,10.3203,10.2109,10.1094,10.0312,10.0,9.9687,9.9453,9.9453,9.9062,9.8515,9.789,9.7734,9.7656,9.7344,9.6953,9.6484,9.6172,9.6094,9.6094,9.6406,9.664,9.6953,9.7578,9.75,9.7344,9.7656,9.7734,9.7734,9.7734,9.7734,9.7734,9.7734,9.7734,9.7734,9.7734,9.7031,9.6484,9.6484,9.5781,9.5,9.4375,9.4297,9.4297,9.4297,9.4297,9.4765,9.5937,9.5781,9.625,9.7578,9.7422,9.7422,9.7656,9.7734,9.7734,9.7734,9.7734,9.7734,9.7734,9.8281,9.8594,9.8594,9.914,9.914,10.0096,10.2327,10.4405,10.979,11.1714,11.3099,11.5869,11.6715,11.633,11.4407,11.3176,11.2022,11.0021,11.0406,11.1406,11.2868,11.5022,11.6918,11.8191,11.8476,11.78,11.5797,11.5929,11.5703,11.4687,11.6015,11.7262,11.8006,11.9524,12.0309,11.9802,12.101,12.1093,11.9609,11.9922,11.9531,11.8281,11.7968,11.75,11.6875,11.5468,11.3984,11.2422,11.2031,11.1015,10.9297,10.7812,10.6172,10.4609,10.2812,10.1719,10.1172,10.0469,10.0312,10.0312,10.0312,9.9922,9.9375,9.8437,9.7969,9.7734,9.7734,9.7344,9.6953,9.6953,9.6953,9.6953,9.6953,9.7265,9.7734,9.7734,9.7734,9.7734,9.7734,9.7734,9.7734,9.7734,9.7734,9.7734,9.7734,9.7734,9.7734,9.7734,9.7265,9.6953,9.6953,9.6484,9.6015,9.5703,9.539,9.5234,9.5234,9.5234,9.5547,9.6406,9.6484,9.6875,9.7656,9.7734,9.7734,9.7734,9.7734,9.7734,9.7734,9.7734,9.7734,9.7734,9.8594,9.8984,9.8984,9.9531,9.9531,10.3174,10.5405,10.7713,11.1791,11.3407,11.4407,11.6022,11.5715,11.433,11.1791,11.0504,10.9063,10.6503,10.6908,10.837,11.0889,11.2911,11.5225,11.8383,11.752,11.7092,11.8435,11.6406,11.5468,11.6875,11.7109,11.7422,11.8203,11.9062,12.0,12.0781,12.0937,12.0468,11.9609,12.039,12.0,11.8281,11.7422,11.6172,11.4609,11.3672,11.3203,11.3125,11.2265,11.1875,11.1718,10.9062,10.7969,10.7734,10.4375,10.2969,10.289,10.1172,10.0469,10.0469,10.0469,10.039,10.0234,9.9453,9.8515,9.7734,9.7734,9.7734,9.7734,9.7734,9.7734,9.7734,9.7734,9.7734,9.7734,9.7734,9.7734,9.7734,9.7734,9.7734,9.7734,9.7734,9.7734,9.7734,9.7734,9.7734,9.7734,9.7734,9.7734,9.7734,9.7734,9.7734,9.7422,9.664,9.5859,9.5312,9.5312,9.5312,9.5625,9.6484,9.6562,9.6875,9.7656,9.7734,9.7734,9.7734,9.7734,9.7734,9.7734,9.7734,9.7734,9.7734,9.8515,9.8984,9.9062,9.8984,9.8984,10.6867,10.9329,11.1714,11.4022,11.433,11.4099,11.4484,11.3022,11.0791,10.8175,10.6216,10.3974,10.1423,10.3819,10.6525,10.7727,11.259,11.7319,12.0208,12.2064,12.2863,12.2264,12.1562,12.039,11.8203,11.8593,11.8515,11.7422,11.8672,11.9603,11.9631,12.0382,12.0468,11.9609,11.9765,11.9375,11.8281,11.7422,11.6484,11.539,11.4609,11.3515,11.2187,11.2031,11.1484,11.0781,10.8906,10.7969,10.7812,10.5,10.4297,10.4687,10.3594,10.3203,10.3203,10.3203,10.2422,10.1172,10.1015,9.9922,9.8594,9.789,9.7734,9.7734,9.7734,9.7734,9.7734,9.7734,9.7734,9.7734,9.7734,9.7734,9.7734,9.7734,9.7734,9.7734,9.7734,9.7734,9.7734,9.7734,9.7734,9.7734,9.7734,9.7734,9.7734,9.7734,9.7734,9.7656,9.7422,9.7187,9.7031,9.7031,9.7031,9.7187,9.7344,9.7422,9.75,9.7656,9.7734,9.7734,9.7734,9.7734,9.7734,9.7734,9.7734,9.7734,9.7734,9.789,9.8672,9.9922,9.9297,9.9375,10.9483,11.1637,11.3637,11.5022,11.4099,11.2637,11.1483,10.9021,10.5773,10.2324,10.0732,9.9149,9.6285,9.9815,10.3641,10.5168,11.061,11.6228,12.0675,12.2971,12.4322,12.4608,12.4297,12.3203,12.0781,12.0312,11.9609,11.8203,11.8984,11.9528,11.9422,11.9995,12.0078,11.9609,11.9609,11.8984,11.7734,11.6875,11.6015,11.5234,11.4297,11.3203,11.1875,11.1875,11.1406,11.0468,10.9218,10.8593,10.8437,10.5781,10.5078,10.539,10.4531,10.4219,10.4219,10.4219,10.3594,10.2578,10.1875,10.0703,9.9453,9.8515,9.8047,9.7734,9.7734,9.7734,9.7734,9.7734,9.7734,9.7734,9.7734,9.7734,9.7734,9.7734,9.7734,9.7734,9.7734,9.7734,9.7734,9.7734,9.7734,9.7734,9.7734,9.7734,9.7734,9.7734,9.7734,9.7734,9.7734,9.7734,9.7734,9.7734,9.7734,9.7734,9.7734,9.7734,9.7734,9.7734,9.7734,9.7734,9.7734,9.7734,9.7734,9.7734,9.7734,9.7734,9.7734,9.8047,9.875,9.9687,9.9219,9.9297,11.1791,11.3099,11.4407,11.4868,11.3099,11.0483,10.7482,10.4137,10.0283,9.5763,9.5208,9.4759,9.1915,9.6212,10.0894,10.3597,10.8299,11.3887,12.0508,12.2324,12.3769,12.6169,12.5781,12.4922,12.3906,12.2422,12.1015,11.9922,11.9922,11.9765,11.9375,11.9375,11.9375,11.9375,11.9375,11.8672,11.7187,11.6406,11.5625,11.4765,11.3828,11.289,11.2109,11.1797,11.1328,11.0468,10.9609,10.9218,10.9062,10.6719,10.5703,10.5703,10.4765,10.4375,10.4531,10.4375,10.4297,10.3984,10.25,10.1328,10.0312,9.9297,9.8437,9.7734,9.7734,9.7734,9.7734,9.7734,9.7734,9.7734,9.7734,9.7734,9.7734,9.7734,9.7734,9.7734,9.7734,9.7734,9.7734,9.7734,9.7734,9.7734,9.7734,9.7734,9.7734,9.7734,9.7734,9.7734,9.7734,9.7734,9.7734,9.7734,9.7734,9.7734,9.7734,9.7734,9.7734,9.7734,9.7734,9.7734,9.7734,9.7734,9.7734,9.7734,9.7734,9.7734,9.7734,9.8437,9.8906,9.8984,9.8984,9.8984,11.4407,11.533,11.5561,11.3637,11.1791,10.9021,10.3635,9.9351,9.5733,9.2739,9.2044,9.1749,9.1158,9.5959,10.092,10.4012,10.8828,11.4589,12.1422,12.3892,12.609,12.8905,12.8515,12.7265,12.5703,12.4687,12.3203,12.0781,12.1328,12.0781,11.8593,11.8515,11.8515,11.8515,11.8515,11.8437,11.8125,11.7187,11.6718,11.6484,11.5,11.3828,11.289,11.1484,11.0703,11.0468,10.8906,10.8593,10.9218,10.7265,10.6875,10.7422,10.5937,10.5703,10.6172,10.5469,10.4765,10.4219,10.3906,10.2734,10.1094,9.9531,9.8437,9.7734,9.7734,9.7734,9.7734,9.7734,9.7734,9.7734,9.7734,9.7734,9.7734,9.7734,9.7734,9.7734,9.7734,9.7734,9.7734,9.7734,9.7734,9.7734,9.7734,9.7734,9.7734,9.7734,9.7734,9.7734,9.7734,9.7734,9.7734,9.7734,9.7734,9.7734,9.7734,9.7734,9.7734,9.7734,9.7734,9.7734,9.7734,9.7734,9.7734,9.7734,9.7734,9.7734,9.7734,9.7812,9.8281,9.8984,9.8984,9.8984,11.5176,11.5869,11.5869,11.333,11.0406,10.6405,9.9558,9.4943,9.1244,8.8345,8.8343,8.8812,8.8964,9.3737,9.8342,10.0068,10.4389,11.0006,11.7464,12.0175,12.3236,12.7967,12.8203,12.7812,12.7422,12.539,12.3593,12.2265,12.1797,12.0781,11.9062,11.8515,11.82,11.8097,11.8199,11.8199,11.8097,11.7418,11.7031,11.7031,11.5312,11.3984,11.3125,11.1406,11.039,10.9922,10.8593,10.8203,10.8515,10.7187,10.6875,10.7187,10.6015,10.6015,10.6562,10.5781,10.5469,10.539,10.4531,10.3125,10.1406,10.0078,9.9062,9.8359,9.8359,9.8047,9.7734,9.7734,9.7734,9.7734,9.7734,9.7734,9.7734,9.7734,9.7734,9.7734,9.7734,9.7734,9.7734,9.7734,9.7734,9.7734,9.7734,9.7734,9.7734,9.7734,9.7734,9.7734,9.7734,9.7734,9.7734,9.7734,9.7734,9.7734,9.7734,9.7734,9.7734,9.7734,9.7734,9.7734,9.7734,9.8125,9.8125,9.7734,9.8125,9.8125,9.7734,9.7734,9.789,9.8281,9.8281,9.8594,11.4868,11.5484,11.5176,11.2099,10.8636,10.3809,9.5819,9.1281,8.7913,8.4941,8.5708,8.7091,8.7592,9.1883,9.5763,9.7118,10.0393,10.5566,11.3565,11.6485,12.0062,12.6092,12.7109,12.7578,12.8281,12.5703,12.3984,12.3828,12.1873,12.0386,11.9605,11.8901,11.8328,11.7813,11.7992,11.7995,11.7807,11.7289,11.7095,11.7182,11.5463,11.4294,11.3672,11.1797,11.0468,10.9765,10.8906,10.8515,10.8203,10.75,10.7109,10.6875,10.6093,10.6328,10.6875,10.6093,10.6172,10.6484,10.5,10.3515,10.2031,10.0937,9.9765,9.875,9.875,9.8203,9.7734,9.7734,9.7734,9.7734,9.7734,9.7734,9.7734,9.7734,9.7734,9.7734,9.7734,9.7734,9.7734,9.7734,9.7734,9.7734,9.7734,9.7734,9.7734,9.7734,9.7734,9.7734,9.7734,9.7734,9.7734,9.7734,9.7734,9.7734,9.7734,9.7734,9.7734,9.7734,9.789,9.7969,9.7969,9.8828,9.8984,9.8281,9.8906,9.8906,9.8281,9.8281,9.8281,9.8281,9.8437,9.8828,11.3483,11.4176,11.3099,10.8175,10.5482,10.1808,9.2688,8.9298,8.7392,8.5034,8.6064,8.7888,8.9452,9.2107,9.5294,9.8999,10.1237,10.5227,11.2988,11.6902,12.0478,12.4608,12.6406,12.7265,12.7422,12.6406,12.5468,12.4687,12.2074,12.0068,11.9283,11.9205,11.8587,11.7485,11.7506,11.7506,11.7408,11.7429,11.7482,11.7799,11.6077,11.5273,11.539,11.289,11.1718,11.1562,11.0703,10.9922,10.9218,10.9062,10.8593,10.7812,10.6875,10.7109,10.7812,10.6875,10.6562,10.6562,10.5703,10.4765,10.3672,10.2031,9.9844,9.7812,9.7812,9.7734,9.7734,9.7734,9.7734,9.7734,9.7734,9.7734,9.7734,9.7734,9.7734,9.7734,9.7734,9.7734,9.7734,9.7734,9.7734,9.7734,9.7734,9.7734,9.7734,9.7734,9.7734,9.7734,9.7734,9.7734,9.7734,9.7734,9.7734,9.7734,9.7734,9.7734,9.7734,9.7734,9.8437,9.8906,9.8906,9.9687,10.0078,10.0078,10.0078,10.0078,10.0078,10.0078,10.0078,10.0078,10.0937,10.0937,11.1021,11.2099,11.1406,10.679,10.3558,9.9593,9.1958,8.8257,8.6109,8.4897,8.5296,8.664,8.8828,9.0469,9.2572,9.5538,9.708,9.9973,10.6232,10.9203,11.3228,12.0077,12.1484,12.3281,12.6875,12.6093,12.5078,12.4765,12.2728,12.098,11.9975,11.877,11.7797,11.7225,11.7257,11.727,11.721,11.7527,11.7793,11.794,11.6288,11.5618,11.5703,11.3125,11.1875,11.1875,11.1015,11.0307,10.9809,10.9372,10.8978,10.8403,10.7184,10.7187,10.789,10.7031,10.7031,10.7265,10.6015,10.4922,10.3828,10.1562,9.9765,9.8515,9.8515,9.8125,9.7734,9.7734,9.7734,9.7734,9.7734,9.7734,9.7734,9.7734,9.7734,9.7734,9.7734,9.7734,9.7734,9.7734,9.7734,9.7734,9.7734,9.7734,9.7734,9.7734,9.7734,9.7734,9.7734,9.7734,9.7734,9.7734,9.7734,9.7734,9.7734,9.8203,9.8515,9.8515,9.9297,9.9765,9.9765,10.0625,10.0781,10.0312,10.0781,10.0781,10.0312,10.0312,10.0312,10.0312,10.0703,10.0937,10.7275,10.8704,10.8492,10.4782,10.1495,9.7573,9.1482,8.7971,8.5734,8.4863,8.5382,8.664,8.8672,9.0,9.1481,9.3634,9.4718,9.7142,10.2302,10.4879,10.8883,11.6015,11.75,12.0,12.5312,12.539,12.5234,12.5234,12.2965,12.1302,12.0365,11.8529,11.7335,11.7073,11.7323,11.7335,11.7073,11.7459,11.7807,11.794,11.6297,11.5698,11.5703,11.3437,11.2186,11.2101,11.1562,11.0911,11.007,10.9731,10.9184,10.8417,10.7396,10.7418,10.789,10.7031,10.7109,10.7422,10.5703,10.4687,10.3828,10.1484,10.0078,9.9375,9.9062,9.8359,9.7734,9.7734,9.7734,9.7734,9.7734,9.7734,9.7734,9.7734,9.7734,9.7734,9.7734,9.7734,9.7734,9.7734,9.7734,9.7734,9.7734,9.7734,9.7734,9.7734,9.7734,9.7734,9.7734,9.7734,9.7734,9.7734,9.7734,9.7734,9.7734,9.8281,9.875,9.8984,9.9844,10.039,10.0703,10.1484,10.1797,10.1484,10.2109,10.2109,10.1484,10.1484,10.1328,10.1094,10.1094,10.1094,10.2124,10.3768,10.3666,10.1373,9.8958,9.5746,9.0802,8.834,8.6655,8.5232,8.6875,8.8906,8.9844,9.1406,9.3125,9.4922,9.5937,9.8281,10.3515,10.7109,11.0312,11.289,11.5468,11.8437,12.1875,12.4531,12.6015,12.6015,12.2539,12.0359,12.0438,11.8529,11.7442,11.743,11.7442,11.7442,11.743,11.7364,11.7585,11.7934,11.6061,11.55,11.5703,11.3984,11.3033,11.2715,11.3038,11.1893,10.9768,11.007,10.9198,10.7632,10.7632,10.7778,10.789,10.7031,10.6719,10.6484,10.4765,10.4219,10.3906,10.2187,10.1015,10.0078,9.9297,9.8359,9.7734,9.7734,9.7734,9.7734,9.7734,9.7734,9.7734,9.7734,9.7734,9.7734,9.7734,9.7734,9.7734,9.7734,9.7734,9.7734,9.7734,9.7734,9.7734,9.7734,9.7734,9.7734,9.7734,9.7734,9.7734,9.7734,9.7734,9.7734,9.7734,9.7734,9.8047,9.8984,9.9844,10.0703,10.1562,10.2422,10.3281,10.4062,10.4219,10.4219,10.4219,10.4219,10.3672,10.289,10.289,10.2031,9.5755,9.7288,9.7708,9.5252,9.3649,9.1776,8.8618,8.7018,8.6272,8.6639,8.7344,8.8515,9.0547,9.1328,9.3047,9.7109,9.8047,9.9609,10.3594,10.6562,10.9765,11.3593,11.9531,12.3437,12.3906,12.4687,12.5234,12.5234,12.2965,12.1396,12.0771,11.9581,11.8391,11.7375,11.7364,11.7364,11.7364,11.7621,11.7807,11.794,11.6294,11.562,11.5703,11.3984,11.3031,11.271,11.2826,11.2197,11.1219,11.0302,10.9619,10.8927,10.7977,10.7775,10.789,10.7031,10.6719,10.6405,10.4582,10.3939,10.3616,10.1729,10.0592,9.9875,9.9016,9.8268,9.7734,9.7734,9.7734,9.7734,9.7734,9.7734,9.7734,9.7734,9.7734,9.7734,9.7734,9.7734,9.7734,9.7734,9.7734,9.7734,9.7734,9.7734,9.7734,9.7734,9.7734,9.789,9.8515,9.8594,9.8594,9.8594,9.8594,9.8359,9.7734,9.8281,9.8672,9.8984,10.039,10.1328,10.1562,10.2969,10.3594,10.3281,10.3906,10.3906,10.3281,10.3281,10.289,10.2031,10.1406,10.0781,9.0918,9.2423,9.3009,9.1529,9.0306,8.9086,8.7603,8.6606,8.6229,8.7265,8.7734,8.8672,9.0859,9.1328,9.2656,9.6875,9.7812,9.9375,10.3203,10.5937,10.9218,11.3906,12.0234,12.3906,12.3437,12.4218,12.4765,12.4765,12.289,12.1484,12.0937,11.9765,11.8734,11.78,11.7715,11.7715,11.7715,11.7892,11.8081,11.8006,11.648,11.5703,11.5703,11.3984,11.302,11.2617,11.2682,11.2191,0.0,11.0187,10.9581,10.9125,10.8035,10.7716,10.772,10.6939,10.6297,10.5717,10.4226,10.3407,10.2925,10.1309,10.0106,9.9124,9.8402,9.794,9.7734,9.7734,9.7734,9.7734,9.7734,9.7734,9.7734,9.7734,9.7734,9.7734,9.7734,9.7734,9.7734,9.7734,9.7734,9.7734,9.7734,9.7734,9.7734,9.7734,9.7734,9.789,9.8437,9.8515,9.8515,9.8515,9.8515,9.8281,9.7734,9.8203,9.8672,9.8984,10.0312,10.1328,10.1562,10.2969,10.3594,10.3437,10.3906,10.3906,10.3437,10.2734,10.2031,10.1094,10.0625,10.0078,0.0,8.8729,8.9313,8.945,8.8359,8.7265,8.7265,8.6719,0.0,8.7422,8.8203,8.9219,9.1094,9.1328,9.2187,9.5,9.625,9.8281,10.25,10.5469,10.9218,11.4297,11.8593,12.1172,12.1172,12.3437,12.4765,12.4765,12.2422,12.1015,12.0937,11.9297,11.8281,11.8203,11.8203,11.8203,11.8281,11.8281,11.8281,11.8281,11.6484,11.5703,11.5703,11.3984,11.2916,11.2269,11.256,11.1806,11.0303,11.0032,10.929,10.8483,10.7827,10.7499,10.7382,10.6523,10.5484,10.4512,10.3636,10.2702,10.1924,10.1001,9.96,9.8168,9.7583,9.7544,9.7656,9.7734,9.7734,9.7734,9.7734,9.7734,9.7734,9.7734,9.7734,9.7734,9.7734,9.7734,9.7734,9.7734,9.7734,9.7734,9.7734,9.7734,9.7734,9.7734,9.7734,9.7734,9.7812,9.7812,9.7812,9.7812,9.7812,9.7734,9.7734,9.7734,9.8047,9.8828,9.9765,10.0703,10.1484,10.25,10.3281,10.4062,10.3984,10.3984,10.3984,10.2265,10.1015,10.0312,10.0234,9.9687,8.3594,0.0,8.4918,8.4296,8.4297,8.4687,0.0,8.5859,8.664,8.8125,8.8594,8.9453,9.1875,9.1719,9.2812,9.7344,9.9375,10.1484,10.4531,10.9922,11.5,11.8906,12.2109,12.3906,12.3906,12.4375,12.4765,12.4765,12.2968,12.1562,12.0937,11.9922,11.8672,11.7265,11.7265,11.7578,11.8281,11.8281,11.8281,11.8281,11.6484,11.5703,11.5703,11.3984,11.3025,11.2573,11.2688,11.2398,11.1702,11.0383,10.9717,10.9273,10.7881,10.6919,10.6174,10.5386,10.4502,10.3568,10.2475,10.1982,10.1517,10.0121,9.888,9.7858,9.7294,9.7265,9.7539,9.7654,9.7734,9.7734,9.7734,9.7734,9.7734,9.7734,9.7734,9.7734,9.7734,9.7734,9.7734,9.7734,9.7734,9.7734,9.7734,9.7734,9.7734,9.7734,9.7734,9.7969,9.8594,9.8672,9.8672,9.8672,9.8672,9.8437,9.7734,9.7734,9.7812,9.7969,9.9453,10.039,10.0625,10.2734,10.3672,10.3203,10.2578,10.2187,10.2187,10.0469,9.9844,10.0312,9.8906,9.8594,8.2265,8.3515,8.4687,8.4219,8.4453,8.5,8.5859,8.5547,8.5625,8.7734,8.7812,8.8594,9.1953,9.1875,9.2969,9.8125,10.0078,10.2734,10.7734,11.2968,11.7422,12.0468,12.25,12.3828,12.4218,12.3828,12.3593,12.3593,12.2031,12.0781,12.0312,11.9062,11.7968,11.7031,11.6562,11.6562,11.7109,11.7109,11.7109,11.7109,11.5781,11.5234,11.5234,11.3828,11.3031,11.2705,11.2705,11.2268,11.1385,11.0311,10.9505,10.8885,10.7673,10.6416,10.5168,10.4703,10.3543,10.1923,10.1712,10.0995,10.0182,9.8852,9.7848,9.7156,9.6914,9.6895,9.7076,9.7451,9.7559,9.7565,9.7656,9.7734,9.7734,9.7734,9.7734,9.7734,9.7734,9.7734,9.7734,9.7734,9.7734,9.7734,9.7734,9.7734,9.7734,9.7734,9.7734,9.789,9.8359,9.8437,9.8437,9.8437,9.8437,9.8203,9.7734,9.7734,9.7734,9.7734,9.8984,9.9687,9.9687,10.1406,10.2187,10.1719,10.1172,10.0781,10.039,9.9844,9.9453,9.9062,9.8515,9.8359,8.2812,8.4922,8.6797,8.6015,8.6094,8.6562,8.7187,8.5625,8.4687,8.7031,8.7031,8.789,9.2031,9.2422,9.375,9.875,10.0702,10.4137,11.1404,11.4997,11.7889,12.039,12.1484,12.2265,12.3203,12.25,12.2109,12.2187,12.0625,11.9609,11.9609,11.789,11.6875,11.6797,11.6015,11.5468,11.5312,11.5625,11.5703,11.5781,11.4922,11.4531,11.4531,11.3593,11.3037,11.2579,11.2678,11.1897,11.0495,11.0,10.9096,10.8022,10.7199,10.588,10.4271,10.4036,10.2376,10.0322,10.0684,9.9893,9.8442,9.7596,9.6885,9.6322,9.6475,9.658,9.6656,9.7206,9.7393,9.7437,9.7653,9.7734,9.7734,9.7734,9.7734,9.7734,9.7734,9.7734,9.7734,9.7734,9.7734,9.7734,9.7734,9.7734,9.7734,9.7734,9.7734,9.7734,9.7734,9.7734,9.7734,9.7734,9.7734,9.7734,9.7734,9.7734,9.7734,9.7734,9.8515,9.9062,9.9219,9.9922,10.0234,10.0078,10.0078,9.9765,9.8984,9.9609,9.9219,9.789,9.8515,9.8437,8.5,8.8047,8.9453,8.5078,8.5625,8.7109,8.6562,8.6094,8.6094,8.7265,8.7969,8.9453,9.3047,9.4765,9.7187,10.1562,10.5285,10.929,11.4135,11.5936,11.7378,11.953,12.0625,12.1406,12.2265,12.1562,12.1406,12.2109,12.0625,11.9609,11.9609,11.789,11.6718,11.6015,11.5078,11.4297,11.3593,11.5,11.5781,11.5703,11.4922,11.4531,11.4531,11.3593,11.2812,11.2029,11.2478,11.1826,11.0179,10.9873,10.9082,10.7932,10.6402,10.4996,10.3826,10.241,10.1187,10.0,9.8767,9.8148,9.767,9.6852,9.6434,9.6345,9.634,9.6358,9.647,9.6963,9.7233,9.7437,9.7653,9.7734,9.7734,9.7734,9.7734,9.7734,9.7734,9.7734,9.7734,9.7734,9.7734,9.7734,9.7734,9.7734,9.7734,9.7734,9.7734,9.7734,9.7734,9.7734,9.7734,9.7734,9.7734,9.7734,9.7734,9.7734,9.7734,9.7734,9.8515,9.9297,10.0078,10.0234,9.9922,9.9219,9.9219,9.914,9.8984,9.8359,9.8359,9.8828,9.8203,9.7812,8.375,8.6953,8.9297,8.6953,8.9062,9.1406,9.0547,8.9297,8.8515,8.9375,8.9844,9.1328,9.5234,9.6953,9.9685,10.5207,10.9221,11.2508,11.4823,11.5819,11.7039,11.8925,11.9478,12.0136,12.1137,12.0515,12.0218,12.0781,11.9609,11.8906,11.8906,11.7265,11.6172,11.5781,11.4531,11.3593,11.3203,11.3984,11.4375,11.4297,11.3984,11.3828,11.3828,11.2721,11.208,11.1686,11.1793,11.0779,10.9082,10.9397,10.8423,10.6385,10.5613,10.4234,10.231,10.0179,9.9481,9.9276,9.7223,9.6959,9.7377,9.618,9.5968,9.6326,9.6326,9.6352,9.6521,9.6864,9.7052,9.7265,9.7571,9.7734,9.7734,9.7734,9.7734,9.7734,9.7734,9.7734,9.7734,9.7734,9.7734,9.7734,9.7734,9.7734,9.7734,9.7734,9.7734,9.7734,9.7734,9.7734,9.7734,9.7734,9.7568,9.7563,9.7656,9.7568,9.7565,9.7656,9.8047,9.8515,9.8906,9.8906,9.8672,9.8281,9.8281,9.8281,9.8281,9.8359,9.8359,9.8281,9.8359,9.8125,8.3047,8.5858,8.8746,8.9218,9.1797,9.4375,9.4687,9.2812,9.1328,9.2812,9.3281,9.4375,9.7734,10.0,10.3194,10.8841,11.2404,11.4676,11.5338,11.5911,11.6803,11.822,11.8376,11.8705,11.9587,11.9165,11.8994,11.921,11.8593,11.8281,11.8281,11.6875,11.6015,11.5703,11.4297,11.3437,11.3203,11.3203,11.3203,11.3203,11.3203,11.3202,11.2962,11.1971,11.1367,11.1084,11.078,10.9579,10.7897,10.873,10.7466,10.5097,10.4866,10.3301,10.0887,9.9057,9.8471,9.8467,9.6556,9.6668,9.7377,9.5951,9.5974,9.6643,9.6411,9.6491,9.6783,9.6991,9.7052,9.7213,9.757,9.7734,9.7734,9.7734,9.7734,9.7734,9.7734,9.7734,9.7734,9.7734,9.7734,9.7656,9.7652,9.7651,9.7651,9.7651,9.7651,9.7653,9.7656,9.7734,9.7734,9.7734,9.7559,9.755,9.7656,9.7557,9.755,9.7656,9.7734,9.7734,9.7734,9.7734,9.7734,9.7734,9.7734,9.7734,9.7734,9.8359,9.8359,9.7734,9.8359,9.8359,8.5234,8.717,8.8855,9.0623,9.1328,9.2578,9.6562,9.5469,9.4531,9.7812,9.9062,9.9765,10.0078,10.4687,10.9276,11.1686,11.4184,11.6193,11.6825,11.6932,11.7073,11.7407,11.752,11.7531,11.763,11.7764,11.8018,11.8029,11.8189,11.8281,11.8281,11.7422,11.6562,11.5781,11.4922,11.3984,11.3203,11.3203,11.3203,11.3203,11.3203,11.3035,11.272,11.1935,11.0908,10.9913,10.9589,10.847,10.6936,10.7586,10.6677,10.502,10.4328,10.2534,10.0299,10.0125,9.908,9.7771,9.7667,9.7636,9.7477,9.6562,9.7001,9.7616,9.6856,9.6795,9.7,9.7277,9.7397,9.7425,9.7653,9.7734,9.7734,9.7734,9.7734,9.7734,9.7734,9.7734,9.7734,9.7734,9.7734,9.7652,9.744,9.742,9.742,9.742,9.742,9.7454,9.7656,9.7734,9.7734,9.7734,9.7656,9.7656,9.7734,9.7656,9.7656,9.7734,9.7734,9.7734,9.7734,9.7734,9.7734,9.7734,9.7734,9.7734,9.7734,9.7734,9.7734,9.7734,9.7734,9.7734,8.3515,8.6381,8.9363,9.0114,9.1787,9.4193,9.773,9.8594,9.9687,10.3125,10.4062,10.4297,10.4297,10.7331,11.0374,11.2015,11.4292,11.5956,11.6576,11.6727,11.673,11.6766,11.6784,11.6908,11.7088,11.7322,11.7407,11.7585,11.767,11.7715,11.7715,11.6935,11.6077,11.5304,11.4439,11.3503,11.2566,11.2566,11.2566,11.2573,11.2817,11.2481,11.1672,11.0738,10.9733,10.8722,10.8458,10.7392,10.5754,10.6563,10.5636,10.3482,10.2635,10.1669,10.0825,10.0366,9.9847,9.9084,9.8148,9.7794,9.7702,9.6956,9.6999,9.7276,9.6977,9.7009,9.7259,9.7397,9.7454,9.7568,9.7656,9.7734,9.7734,9.7734,9.7734,9.7734,9.7734,9.7734,9.7655,9.7552,9.7542,9.7437,9.7213,9.7271,9.7407,9.7407,9.7542,9.7649,9.7656,9.7734,9.7734,9.7734,9.7734,9.7653,9.7547,9.7651,9.7734,9.7734,9.7734,9.7734,9.7734,9.7734,9.7734,9.7734,9.7734,9.7734,9.7734,9.7734,9.7734,9.7734,9.7734,9.7734,8.3515,8.6441,8.9682,9.0282,9.243,9.5572,9.9968,10.1632,10.3585,10.8114,10.7966,10.7187,10.75,10.8481,10.9908,11.1605,11.3781,11.5624,11.6419,11.6484,11.6484,11.6484,11.6484,11.656,11.6788,11.6874,11.7089,11.7271,11.7384,11.7364,11.7364,11.6808,11.6041,11.4873,11.4329,11.3473,11.2305,11.2305,11.2106,11.1778,11.19,11.1822,11.13,10.997,10.8995,10.8303,10.7567,10.6482,10.5097,10.5713,10.4482,10.2097,10.1327,10.0789,10.0538,10.001,9.9696,9.9368,9.8615,9.8191,9.7974,9.7433,9.7404,9.7465,9.7239,9.7288,9.7457,9.7457,9.7567,9.7656,9.765,9.7654,9.7734,9.7734,9.7734,9.7734,9.7734,9.7653,9.7559,9.7425,9.7299,9.7227,9.7,9.7177,9.7283,9.7402,9.7544,9.7651,9.7656,9.7734,9.7734,9.7734,9.7734,9.7653,9.7542,9.7559,9.7648,9.7648,9.7555,9.7559,9.7656,9.7652,9.7648,9.7648,9.7648,9.7561,9.7464,9.7464,9.7464,9.7464,9.7464,9.7464,8.609,8.7724,8.9769,9.1733,9.3366,9.6317,10.3463,10.4519,10.5768,11.2627,11.0835,10.8281,10.9218,10.8403,10.8419,11.066,11.2913,11.491,11.6265,11.6484,11.6484,11.6484,11.6484,11.6484,11.6484,11.6827,11.7037,11.7037,11.7167,11.743,11.743,11.743,11.6574,11.4873,11.4873,11.4017,11.2294,11.2294,11.1676,11.0608,11.0608,11.0995,11.177,11.0066,10.9213,10.879,10.7098,10.5867,10.5097,10.5097,10.3635,10.1173,10.0404,9.9577,9.8863,9.9073,9.8665,9.8102,9.9119,9.8987,9.8287,9.8287,9.8439,9.8417,9.7641,9.7552,9.7734,9.7734,9.7734,9.7654,9.7437,9.7555,9.7656,9.7656,9.7656,9.7656,9.7656,9.7552,9.7407,9.7407,9.7199,9.6964,9.6964,9.6973,9.7052,9.7387,9.7412,9.7448,9.7656,9.7656,9.7656,9.7656,9.7656,9.7656,9.7734,9.7544,9.7407,9.7407,9.7177,9.724,9.7656,9.7461,9.7407,9.7407,9.7407,9.7259,9.6973,9.6973,9.6973,9.6973,9.6973,9.6973,8.448,8.7091,9.0441,9.1428,9.5709,10.0897,10.5978,10.6832,10.8128,11.3967,11.3825,11.2419,11.183,11.1305,11.1293,11.2341,11.3869,11.537,11.6352,11.6484,11.6484,11.6484,11.6484,11.6484,11.6484,11.656,11.6589,11.6589,11.619,11.59,11.59,11.5282,11.4509,11.3427,11.3427,11.2809,11.1709,11.1109,11.0727,11.0266,10.9726,10.9186,10.8878,10.8415,10.7798,10.7098,10.6636,10.5636,10.4174,10.2866,10.1635,10.0365,10.0303,9.98,9.9073,9.9369,9.9252,9.9108,9.9425,9.9093,9.8507,9.8507,9.8287,9.7882,9.7648,9.7654,9.7734,9.7734,9.7568,9.7448,9.742,9.7288,9.724,9.724,9.724,9.724,9.724,9.7192,9.7027,9.6854,9.673,9.6746,9.6746,9.6843,9.7052,9.7387,9.7544,9.7417,9.6953,9.6875,9.6875,9.6875,9.6875,9.7109,9.7656,9.7544,9.7407,9.7407,9.6945,9.6843,9.7227,9.7184,9.7154,9.7154,9.7154,9.7043,9.6973,9.6973,9.6973,9.6973,9.6973,9.6973,8.7546,9.0345,9.3639,9.5732,9.959,10.4066,10.8578,11.0605,11.2397,11.5692,11.5159,11.3964,11.3623,11.2772,11.2398,11.3457,11.4587,11.5561,11.6407,11.6484,11.6484,11.6484,11.6484,11.6484,11.6484,11.6484,11.6484,11.6484,11.5792,11.533,11.533,11.4484,11.3637,11.2714,11.2406,11.1791,11.1021,11.0098,10.9483,10.9175,10.8329,10.7482,10.6713,10.7405,10.7405,10.6867,10.579,10.4789,10.3712,10.1712,10.0364,9.9712,9.9506,9.8981,9.8372,9.8575,9.8658,9.8665,9.8741,9.8582,9.8244,9.8244,9.8035,9.7656,9.7648,9.7563,9.7559,9.7451,9.7315,9.7227,9.7146,9.6935,9.6765,9.6565,9.6506,9.6506,9.6506,9.6429,9.6377,9.6552,9.6551,9.6536,9.6746,9.6864,9.7084,9.7451,9.765,9.75,9.7031,9.6719,9.6484,9.6484,9.6484,9.6719,9.7187,9.7199,9.724,9.724,9.6461,9.6009,9.623,9.6598,9.6655,9.6344,9.6655,9.6443,9.57,9.6385,9.654,9.623,9.623,9.6385,9.2852,9.537,9.7878,10.2205,10.4372,10.6636,11.1228,11.4768,11.733,11.7275,11.5474,11.4217,11.4895,11.3533,11.2788,11.4302,11.5107,11.5561,11.633,11.6407,11.6407,11.633,11.6285,11.6339,11.6339,11.6293,11.627,11.6339,11.5493,11.4978,11.5022,11.4176,11.333,11.2406,11.1714,11.1021,11.0098,10.9175,10.8406,10.7636,10.6713,10.579,10.502,10.6636,10.7405,10.7175,10.4789,10.3789,10.3558,10.1096,9.9754,9.913,9.8243,9.753,9.7035,9.7299,9.7425,9.744,9.7652,9.7734,9.7734,9.7656,9.7655,9.7651,9.7429,9.7393,9.7288,9.7035,9.6954,9.6885,9.6669,9.656,9.6397,9.5755,9.5661,9.5661,9.5739,9.5529,9.5617,9.6391,9.647,9.6454,9.6921,9.6935,9.7099,9.757,9.7655,9.7655,9.7577,9.6953,9.6484,9.6327,9.6406,9.6406,9.6484,9.6658,9.6817,9.6895,9.5593,9.4864,9.4864,9.5811,9.6004,9.5385,9.6082,9.5594,9.3787,9.548,9.5865,9.5018,9.5018,9.5403,8.9913,9.2858,9.6821,10.1572,10.7105,11.2034,11.4326,11.5475,11.6109,11.6295,11.6497,11.6582,11.6608,11.6234,11.5892,11.6028,11.6188,11.6099,11.5561,11.5561,11.533,11.4561,11.4501,11.45,11.45,11.4506,11.4465,11.4523,11.3709,11.3022,11.2385,11.2099,11.1329,10.979,11.0175,11.0098,10.9175,10.8406,10.7482,10.6713,10.579,10.502,10.4174,10.4482,10.4713,10.4636,10.3405,10.2866,10.2712,10.0866,9.9754,9.9158,9.8497,9.7814,9.7304,9.7559,9.7652,9.7652,9.7656,9.7734,9.7656,9.7544,9.7444,9.7425,9.7192,9.713,9.7035,9.6991,9.6821,9.6682,9.6616,9.6506,9.6198,9.5373,9.5175,9.5329,9.6007,9.5632,9.5332,9.618,9.6322,9.6352,9.6629,9.6708,9.6843,9.7412,9.7444,9.721,9.6507,9.6474,9.6168,9.5265,9.5381,9.5781,9.6406,9.5566,9.5261,9.5961,9.4742,9.3941,9.3941,9.4202,9.4562,9.5101,9.5255,9.5126,9.4711,9.5788,9.5865,9.5018,9.5018,9.5095,9.1145,9.4481,9.853,10.443,10.9514,11.3424,11.4104,11.4607,11.4914,11.5067,11.583,11.6538,11.6673,11.6769,11.667,11.6474,11.6076,11.5574,11.4832,11.4297,11.3701,11.2889,11.268,11.2675,11.2675,11.273,11.2742,11.2721,11.1962,11.1319,11.0927,11.0515,11.0042,10.9483,10.9175,10.9021,10.8867,10.7713,10.6636,10.579,10.4866,10.3712,10.2097,10.3328,10.3866,10.3866,10.302,10.2404,10.1885,10.0259,9.9289,9.8718,9.8134,9.7772,9.7557,9.7655,9.7734,9.7734,9.7734,9.7734,9.7655,9.7444,9.7407,9.7294,9.6905,9.6776,9.6819,9.6656,9.6536,9.6458,9.6458,9.6061,9.5557,9.5095,9.4711,9.448,9.4941,9.4403,9.4172,9.5403,9.5711,9.5872,9.6532,9.6734,9.6864,9.7192,9.722,9.7064,9.6596,9.6279,9.5749,9.4732,9.4719,9.484,9.4922,9.4526,9.4446,9.4924,9.4173,9.3557,9.3172,9.348,9.371,9.3787,9.4172,9.3941,9.3172,9.4403,9.4788,9.4326,9.3941,9.4249,9.2353,9.6487,10.0929,10.7398,11.0803,11.2477,11.2667,11.3176,11.3637,11.3714,11.4561,11.5484,11.6176,11.6407,11.6538,11.627,11.5728,11.4839,11.3736,11.2917,11.2019,11.1146,11.1016,11.0993,11.0993,11.1009,11.0976,11.0959,11.0206,10.9793,10.978,10.907,10.8995,10.9462,10.8329,10.7867,10.8482,10.7098,10.5867,10.4866,10.3866,10.2327,10.0192,10.2327,10.3174,10.3174,10.2327,10.1635,10.0981,9.9583,9.8724,9.8237,9.7667,9.7547,9.7734,9.7734,9.7734,9.7734,9.7734,9.7734,9.7655,9.7444,9.7393,9.724,9.6783,9.6546,9.6491,9.6358,9.6326,9.6249,9.6095,9.5557,9.496,9.4788,9.4095,9.3557,9.3633,9.3095,9.2941,9.448,9.4883,9.5298,9.6212,9.6669,9.6931,9.6895,9.6905,9.6905,9.6905,9.6245,9.5311,9.4417,9.4222,9.3938,9.3246,9.3458,9.3736,9.3891,9.3505,9.2941,9.2326,9.2941,9.2941,9.2326,9.3172,9.2941,9.1402,9.2941,9.3633,9.348,9.2875,9.3295,8.7803,9.4072,10.1288,10.6583,10.8662,11.0028,11.2197,11.2329,11.2022,11.2714,11.4176,11.533,11.5407,11.6022,11.6324,11.5494,11.5331,11.4412,11.2125,11.1631,11.1006,10.9421,10.9171,10.9118,10.9118,10.9131,10.9119,10.9118,10.8371,10.7942,10.7897,10.7926,10.7618,10.6923,10.7405,10.7405,10.6713,10.6482,10.5636,10.402,10.2404,10.1096,10.0096,10.05,10.0558,10.0558,9.9712,9.9635,10.0058,9.8656,9.818,9.8237,9.7667,9.7547,9.7734,9.7734,9.7734,9.7734,9.7734,9.7734,9.7655,9.7444,9.7246,9.6973,9.6708,9.6506,9.6322,9.6345,9.6326,9.6095,9.5403,9.5095,9.4788,9.4018,9.3249,9.2864,9.3557,9.3095,9.2787,9.371,9.448,9.5055,9.5185,9.5854,9.641,9.6616,9.6656,9.6656,9.6656,9.6133,9.533,9.4279,9.3646,9.3324,9.3168,9.2371,9.2173,9.2961,9.2039,9.1479,9.1402,9.1479,9.1479,9.1402,9.2941,9.3249,9.2326,9.3249,9.3326,9.2651,9.2705,9.2866,8.9556,9.4711,9.9788,10.4405,10.6174,10.7328,10.9406,10.9637,10.9637,11.0406,11.1239,11.2229,11.3583,11.4885,11.5264,11.3995,11.366,11.2966,11.1006,10.9864,10.8594,10.6958,10.6686,10.6484,10.6081,10.6521,10.6512,10.6115,10.5711,10.569,10.6219,10.6306,10.6628,10.7056,10.7021,10.7021,10.7098,10.6174,10.4789,10.3174,10.1866,10.0635,9.9327,9.9327,9.9327,9.9327,9.8942,9.8711,9.8595,9.8114,9.7792,9.7536,9.7433,9.7547,9.7734,9.7734,9.7734,9.7656,9.7187,9.7344,9.7577,9.6897,9.6837,9.6925,9.6695,9.6458,9.6172,9.5711,9.5942,9.6019,9.4634,9.4249,9.4018,9.3249,9.2402,9.1864,9.2249,9.2018,9.2172,9.348,9.4403,9.5018,9.5018,9.5711,9.6168,9.5759,9.5715,9.5715,9.5715,9.5022,9.4215,9.3338,9.2934,9.2584,9.2119,9.1638,9.1454,9.1855,9.1908,9.171,9.1248,9.2095,9.2172,9.1248,9.1941,9.2095,9.1787,9.2271,9.2535,9.2628,9.2378,9.2593,8.9325,9.2864,9.5788,10.0712,10.2558,10.3789,10.6174,10.6867,10.7328,10.8098,10.8705,10.9425,11.0834,11.2633,11.351,11.2198,11.1878,11.1314,10.9446,10.8095,10.667,10.4981,10.4834,10.4614,10.3953,10.4614,10.4834,10.4027,10.388,10.4277,10.5222,10.5013,10.5669,10.7287,10.6713,10.6713,10.7405,10.5713,10.4097,10.2635,10.1481,10.0173,9.8788,9.8557,9.8327,9.8173,9.8404,9.8096,9.7518,9.7805,9.751,9.6895,9.7213,9.7433,9.765,9.765,9.7654,9.7578,9.7031,9.7187,9.7499,9.6532,9.6401,9.6624,9.6407,9.6151,9.5865,9.548,9.5788,9.5865,9.4172,9.371,9.3403,9.2402,9.1633,9.1171,9.1171,9.1171,9.1556,9.2787,9.3787,9.4326,9.4326,9.5095,9.5403,9.4788,9.4634,9.4634,9.4634,9.3941,9.3172,9.2556,9.2326,9.1941,9.1248,9.1171,9.1171,9.1171,9.1787,9.1787,9.0941,9.2095,9.2172,9.0864,9.0864,9.1018,9.1171,9.1359,9.185,9.2483,9.2093,9.223,8.317,8.5401,8.8325,9.5018,9.7326,9.9019,10.3097,10.4713,10.5482,10.6405,10.7786,10.8502,10.6995,10.8792,11.039,11.0348,11.02,10.9371,10.6921,10.6492,10.5789,10.4173,10.4027,10.388,10.388,10.4614,10.4834,10.4027,10.388,10.4277,10.5222,10.4516,10.4757,10.6364,10.6405,10.6405,10.6482,10.4789,10.3482,10.2635,10.0866,9.9712,9.8788,9.7942,9.7173,9.648,9.725,9.7557,9.7518,9.7805,9.7363,9.6656,9.6895,9.7206,9.742,9.742,9.755,9.7656,9.7656,9.7656,9.7578,9.6718,9.6171,9.5806,9.5787,9.544,9.5249,9.6019,9.6249,9.5865,9.4172,9.371,9.3249,9.1633,9.1248,9.1171,9.1171,9.1171,9.1248,9.1325,9.2018,9.2633,9.2633,9.3326,9.3787,9.3787,9.3787,9.3787,9.3787,9.3095,9.2556,9.2479,9.1787,9.1248,9.1171,9.1171,9.1171,9.1171,9.1248,9.0864,9.0017,9.0094,9.0094,8.994,8.994,9.0402,9.1171,9.1359,9.154,9.1567,9.2026,9.1778,8.283,8.4126,8.5863,9.1633,9.4018,9.5865,9.9096,10.1327,10.3097,10.4482,10.5335,10.5866,10.6284,10.7622,10.822,10.7081,10.7807,10.798,10.6607,10.5935,10.5201,10.4027,10.3439,10.2925,10.2412,10.3072,10.3219,10.2412,10.2412,10.2677,10.3612,10.3903,10.4714,10.6266,10.6369,10.6097,10.5636,10.4482,10.3482,10.2635,10.0866,9.9635,9.8788,9.7865,9.7096,9.6326,9.7173,9.725,9.673,9.6814,9.6738,9.6602,9.6734,9.6885,9.7192,9.7377,9.7437,9.7469,9.7029,9.7265,9.7421,9.5917,9.5561,9.57,9.5522,9.4882,9.4326,9.5249,9.548,9.5095,9.3403,9.3326,9.3249,9.1633,9.1171,9.1171,9.1171,9.1171,9.1402,9.1941,9.2326,9.2479,9.2479,9.3172,9.348,9.3018,9.2941,9.2941,9.2941,9.2172,9.1633,9.1633,9.1402,9.1171,9.1171,9.1171,9.1171,9.1171,9.1171,9.1095,9.0787,9.0171,8.994,8.994,8.9402,8.9787,9.1171,9.1359,9.1244,9.0727,9.1176,9.1007,8.0911,8.1981,8.3632,8.9017,9.0941,9.2633,9.6634,9.8634,10.0327,10.2635,10.332,10.3782,10.4926,10.5589,10.5834,10.5228,10.6103,10.6276,10.4876,10.4467,10.388,10.2779,10.2485,10.2118,10.1604,10.2191,10.2412,10.1604,10.1457,10.1932,10.2712,10.3031,10.4003,10.5917,10.5978,10.5678,10.5097,10.4328,10.3482,10.2635,10.0866,9.9635,9.8788,9.7865,9.7096,9.6326,9.6865,9.6788,9.6326,9.6557,9.6583,9.6475,9.6475,9.6629,9.6864,9.7035,9.7246,9.7342,9.6932,9.6943,9.6938,9.5641,9.5165,9.5179,9.5338,9.4759,9.4326,9.5172,9.5249,9.4711,9.3249,9.2864,9.2556,9.1479,9.1171,9.1171,9.1171,9.1171,9.1402,9.1941,9.2095,9.2095,9.2095,9.2479,9.271,9.2172,9.2095,9.2095,9.2095,9.1556,9.1171,9.1171,9.1171,9.1171,9.1171,9.1171,9.1171,9.1171,9.1171,9.1095,9.0787,9.0248,8.994,8.994,8.9094,8.9479,9.1171,9.1141,9.0779,9.034,9.0719,9.0395,0.0,0.0,0.0,8.7017,8.7863,8.9094,9.5711,9.6634,9.7096,10.0481,10.1865,10.2511,10.2587,10.2619,10.3182,10.4754,10.5096,10.4319,10.1878,10.2191,10.2118,10.0503,10.1017,10.1457,10.1457,10.2191,10.2338,10.1604,10.1457,10.1784,10.2567,10.2003,10.266,10.518,10.5231,10.5247,10.5133,10.4287,10.3365,10.2538,10.0923,9.9635,9.8711,9.7865,9.7096,9.6326,9.6326,9.6326,9.6326,9.7173,9.7019,9.6326,9.6326,9.6454,9.6574,9.6588,9.6905,9.7397,9.7402,9.6861,9.608,9.6071,9.521,9.4265,9.5012,9.5052,9.5095,9.6019,9.5634,9.4711,9.3864,9.2402,9.1171,9.1171,9.1171,9.1171,9.1171,9.1171,9.1171,9.1171,9.1171,9.1171,9.1171,9.1171,9.1171,9.1171,9.1171,9.1171,9.1171,9.1171,9.1171,9.1171,9.1171,9.1171,9.1171,9.1171,9.1171,9.1171,9.1171,9.0787,8.994,8.994,8.994,8.994,8.9094,8.9479,9.1095,9.0509,9.0237,9.0237,9.0392,9.0055,7.7394,0.0,0.0,0.0,0.0,0.0,9.0248,9.1864,9.371,9.7711,9.8749,9.9703,10.2082,10.207,10.1915,10.2385,10.298,10.3424,10.3279,10.2891,10.2338,10.131,10.087,10.0576,10.0576,10.0796,10.109,10.1457,10.1017,10.099,10.1819,10.276,10.4196,10.5996,10.5526,10.5188,10.5206,10.3184,10.2004,10.1682,10.0023,9.8789,9.7865,9.7634,9.7096,9.6326,9.6942,9.6865,9.6326,9.6557,9.648,9.6326,9.6326,9.6322,9.6403,9.6566,9.6721,9.6821,9.7009,9.6912,9.6654,9.5854,9.4897,9.4146,9.4155,9.3277,9.271,9.4788,9.4326,9.3172,9.2864,9.2018,9.1171,9.1171,9.1171,9.1171,9.1171,9.1171,9.1171,9.1171,9.1171,9.1171,9.1171,9.1171,9.1171,9.1171,9.1171,9.1171,9.1171,9.1171,9.1171,9.1171,9.1171,9.1171,9.1171,9.1171,9.1171,9.1171,9.1171,9.1095,9.0864,9.0248,8.994,8.994,8.8479,8.8325,8.9402,8.9228,8.9138,8.9138,8.8133,8.7622,7.84,7.9177,8.0323,8.2631,0.0,0.0,8.9325,9.0479,9.1864,9.6095,9.7557,9.8423,9.9738,10.0176,10.0406,10.0511,10.0933,10.138,10.1833,10.2075,10.1898,10.109,10.087,10.0723,10.0283,10.0283,10.0356,10.0503,9.9769,9.9622,10.0503,10.2086,10.3498,10.4772,10.4354,10.4172,10.4214,10.2403,10.1277,10.0933,9.9262,9.8168,9.7528,9.7222,9.673,9.6326,9.7173,9.7019,9.6326,9.6634,9.6634,9.6326,9.6326,9.6326,9.6286,9.641,9.6521,9.6616,9.6819,9.6644,9.631,9.5959,9.525,9.4419,9.3947,9.3101,9.2525,9.337,9.2618,9.1527,9.1145,9.0687,9.0305,9.0305,9.0546,9.0704,9.0704,9.0951,9.1171,9.1171,9.1171,9.1171,9.1171,9.1171,9.1171,9.1171,9.1171,9.1171,9.1171,9.1171,9.1171,9.1171,9.1171,9.1171,9.1171,9.0864,9.0787,9.1171,9.0864,9.0787,9.1171,9.071,9.0479,9.0479,8.8786,8.7863,8.7632,8.794,8.8171,8.8111,8.7044,8.6466,7.9769,8.0169,8.117,8.4709,8.4093,0.0,9.0171,9.0402,9.0462,9.4483,9.6482,9.7094,9.5921,9.7129,9.8174,9.831,9.8589,9.8902,9.916,10.0509,10.1017,10.0136,10.0723,10.1017,10.0209,10.0209,9.9989,9.9402,9.8668,9.8594,9.9181,10.0723,10.1893,10.2793,10.2677,10.2721,10.2611,10.1769,10.0926,10.0021,9.8438,9.7577,9.7453,9.6714,9.6363,9.6326,9.7173,9.7019,9.6326,9.7173,9.7019,9.6326,9.6326,9.6326,9.6326,9.6326,9.6437,9.6609,9.6609,9.6039,9.5468,9.6227,9.5709,9.4618,9.3829,9.3595,9.3197,9.1773,9.091,9.0204,8.9348,8.9122,8.9122,8.9122,8.9573,8.999,9.0057,9.0626,9.11,9.1154,9.1171,9.1171,9.1171,9.1171,9.1171,9.1171,9.1248,9.1325,9.1248,9.1248,9.1325,9.1248,9.1171,9.1171,9.1171,9.0402,9.0248,9.1018,9.0248,9.0171,9.1018,9.1095,9.1095,9.1171,8.9556,8.7863,8.6094,8.694,8.7325,8.7264,8.6616,8.6216,8.0981,8.2324,8.3632,8.2401,8.3708,0.0,8.5324,8.5632,8.653,8.8899,8.9047,8.9413,9.1293,9.2476,9.3155,9.3183,9.542,9.7876,9.9825,10.0312,9.9989,9.8521,9.9108,9.9548,9.9328,9.9916,10.0503,10.1017,10.087,10.0576,10.0062,10.1017,10.2239,10.3617,10.2983,10.2387,10.1717,10.0855,9.9814,9.8254,9.7349,9.6768,9.6614,9.6485,9.6363,9.6326,9.7173,9.7019,9.6326,9.7173,9.7019,9.6326,9.6326,9.6326,9.6326,9.6326,9.6304,9.6394,9.6394,9.5906,9.5236,9.5389,9.4433,9.3112,9.2328,9.152,9.0814,8.9853,8.9978,9.0204,8.9348,8.9122,8.9122,8.9122,8.9225,8.9451,8.9968,9.0241,9.0526,9.11,9.1171,9.1171,9.1171,9.1171,9.1171,9.1171,9.1787,9.2018,9.1325,9.1787,9.2018,9.1248,9.1171,9.1171,9.1171,9.0402,8.994,9.0171,8.9402,8.9325,9.0094,9.0171,9.0479,9.1171,8.9556,8.7863,8.6094,8.694,8.7017,8.6324,8.5559,8.5174,8.2816,8.3137,8.36,8.2776,8.327,0.0,0.0,8.5121,8.5876,8.8477,8.8074,8.7733,8.9526,8.9892,9.018,9.102,9.3269,9.5331,9.6506,9.8131,9.8814,9.8007,9.8227,9.8374,9.7933,9.8961,9.9695,9.9695,9.9695,9.9695,9.9695,10.0503,10.1457,10.2705,10.1897,10.1345,10.087,9.9721,9.8688,9.7838,9.6616,9.5968,9.5885,9.5885,9.5869,9.5856,9.6984,9.7304,9.6942,9.7326,9.725,9.6865,9.648,9.6326,9.6326,9.6326,9.6078,9.578,9.578,9.5257,9.463,9.463,9.3792,9.2587,9.1423,8.9892,8.8591,8.8144,8.8368,8.8622,8.8144,8.807,8.807,8.807,8.8292,8.8663,8.9043,8.9645,9.0241,9.0586,9.0932,9.1171,9.1171,9.0864,9.071,9.1171,9.1556,9.171,9.1248,9.1556,9.171,9.1248,9.1171,9.1018,9.0633,8.9787,8.9325,8.9325,8.8479,8.8402,8.9248,8.9325,8.9325,8.9325,8.8479,8.7401,8.6094,8.617,8.617,8.6094,8.5247,8.4939,8.4834,8.4094,8.3889,8.4063,8.3564,8.3488,0.0,0.0,0.0,8.8285,8.7709,8.7147,8.8009,8.7781,8.7858,8.9229,9.1106,9.2281,9.1987,9.4556,9.6612,9.6906,9.7273,9.7199,9.6759,9.7713,9.8227,9.7713,9.7493,9.7787,9.8594,9.9695,10.0576,10.1164,10.0774,10.048,10.0283,9.8862,9.8053,9.786,9.6245,9.5478,9.5413,9.5264,9.5179,9.5305,9.6567,9.7149,9.7109,9.7057,9.696,9.6803,9.6289,9.6098,9.6098,9.5902,9.5511,9.5001,9.5001,9.4502,9.3878,9.3878,9.3116,9.1909,9.0454,8.8635,8.6995,8.6995,8.6995,8.6995,8.6995,8.6995,8.6995,8.6995,8.746,8.796,8.8114,8.9069,8.9946,9.0057,9.0435,9.0787,9.0941,9.0402,9.0094,9.0633,9.1018,9.1095,9.0787,9.1018,9.1095,9.0787,9.071,9.0402,8.971,8.894,8.8479,8.8479,8.7632,8.7555,8.8402,8.8632,8.8248,8.7401,8.7248,8.6709,8.5863,8.5016,8.5093,8.5863,8.4863,8.4401,8.6605,8.7286,8.7562,8.477,8.6203,8.7209,8.3111,0.0,8.4042,8.3079,0.0,8.2888,8.3913,0.0,0.0,8.5233,8.7876,8.9344,8.7876,8.9858,9.1987,9.3455,9.4923,9.6025,9.6612,9.6245,9.6171,9.6759,9.6171,9.6098,9.6906,9.9108,10.0283,10.0429,10.1019,10.0981,10.0283,9.9426,9.8611,9.786,9.6245,9.5478,9.5413,9.4668,9.4653,9.5296,9.5385,9.5513,9.5507,9.5529,9.5053,9.4576,9.5072,9.5302,9.5234,9.4579,9.4292,9.4238,9.4238,9.3735,9.3146,9.3146,9.159,8.9624,8.8745,8.7798,8.6995,8.6995,8.6995,8.6995,8.6995,8.6995,8.6995,8.6995,8.7064,8.7295,8.7991,8.8663,8.9402,8.9968,8.9535,8.9171,8.994,8.994,8.971,8.9094,9.0248,9.0633,8.9171,9.0248,9.0633,8.9171,8.894,8.894,8.8863,8.8017,8.7555,8.7555,8.6709,8.6632,8.7478,8.8248,8.8248,8.7401,8.6632,8.5863,8.5016,8.417,8.417,8.5016,8.3324,8.2631,8.6406,8.6865,8.7275,8.5567,8.5774,8.6071,8.4406,8.3514,8.3232,8.3977,0.0,0.0,0.0,0.0,0.0,0.0,8.6114,8.7068,8.6407,8.7582,8.9124,9.0739,0.0,0.0,9.4483,9.3455,9.3382,9.5144,9.3675,9.3822,9.6539,9.764,9.8814,10.0283,10.0197,10.0197,10.0283,9.9018,9.8244,9.786,9.6759,9.592,9.5438,9.5586,9.5558,9.5388,9.5798,9.5934,9.5969,9.5461,9.5034,9.4706,9.4142,9.4184,9.4528,9.4211,9.3821,9.344,9.344,9.2955,9.2149,9.1188,8.988,8.8536,8.7729,8.7288,8.6995,8.6995,8.6995,8.6995,8.6995,8.6995,8.6995,8.6995,8.6628,8.6363,8.6689,8.6892,8.7292,8.7912,8.8074,8.8174,8.8427,8.8479,8.8479,8.8632,8.9325,8.9479,8.8786,8.9325,8.9479,8.8786,8.8709,8.8479,8.8017,8.7632,8.7171,8.6709,8.6324,8.6247,8.6632,8.7017,8.6786,8.594,8.5555,8.5016,8.417,8.3247,8.3016,8.3401,8.2631,8.2324,8.614,8.6426,8.6845,8.5995,8.5527,8.5233,8.5159,8.4132,8.3471,8.4572,8.3324,0.0,0.0,0.0,8.2663,8.4058,0.0,8.5086,8.4866,8.5673,8.6921,0.0,0.0,0.0,0.0,9.0519,9.0372,9.3088,9.0812,9.1033,9.5144,9.6025,9.7273,9.9255,9.9181,9.9475,10.0283,9.8888,9.8227,9.8227,9.764,9.6685,9.5511,9.6318,9.6326,9.5777,9.6065,9.6224,9.6183,9.5489,9.4875,9.4264,9.3337,9.3243,9.347,9.347,9.3102,9.2629,9.2629,9.2262,9.1546,8.9931,8.905,8.8316,8.7288,8.6995,8.6995,8.6995,8.6995,8.6995,8.6995,8.6995,8.6921,8.6701,8.6187,8.5747,8.5527,8.5583,8.5711,8.6267,8.6895,8.7325,8.7156,8.7239,8.7555,8.794,8.8171,8.8248,8.8017,8.8171,8.8248,8.8017,8.7786,8.7401,8.6786,8.6478,8.617,8.5786,8.6017,8.6094,8.6094,8.5863,8.5478,8.4939,8.4401,8.3862,8.3247,8.2401,8.1939,8.1939,8.1939,8.1939,8.6481,8.6941,8.7247,8.6127,8.6407,8.6334,8.3985,8.4646,8.5013,8.281,8.3471,8.4278,8.3618,8.2737,8.2443,8.3324,8.3471,0.0,0.0,8.3691,8.5306,8.6921,8.9197,9.0592,0.0,8.7802,8.7288,9.0519,8.7729,8.7729,9.1767,9.4263,9.5951,9.6759,9.83,9.9475,10.0283,9.9475,9.9035,9.9035,9.9035,9.7787,9.5511,9.6318,9.6657,9.6555,9.5719,9.5405,9.5427,9.5326,9.3974,9.2022,9.2794,9.2574,9.1875,9.1875,9.1839,9.1803,9.1803,9.1803,9.1546,8.9931,8.9382,8.905,8.7509,8.6995,8.6995,8.6995,8.6995,8.6995,8.6995,8.6995,8.6775,8.604,8.582,8.56,8.4792,8.5107,8.564,8.5595,8.6052,8.6438,8.6459,8.6947,8.7094,8.6324,8.6863,8.7171,8.6324,8.694,8.7094,8.6247,8.5478,8.5016,8.5016,8.417,8.4093,8.4863,8.5709,8.6094,8.6094,8.5324,8.4939,8.4939,8.3247,8.2401,8.2324,8.1554,8.117,8.117,8.117,8.117,8.7757,8.8338,8.8779,8.7324,8.7377,8.7288,8.5453,8.538,8.5233,8.3398,8.3289,8.3371,8.2711,8.1795,8.1298,8.1758,8.1782,8.1709,0.0,8.281,8.4205,8.5306,8.7068,8.7802,0.0,0.0,8.5894,8.8096,8.6028,8.635,9.038,9.1685,9.3517,9.6271,9.7288,9.8641,10.0283,9.9989,9.9622,9.9108,9.8594,9.786,9.7052,9.6832,9.6434,9.5919,9.6075,9.5306,9.3961,9.4989,9.4288,9.2721,9.3015,9.2941,9.2574,9.1987,9.1767,9.1767,9.1767,9.1473,9.0959,9.0372,8.9858,8.9197,8.8096,8.7802,8.7655,8.7142,8.6995,8.6921,8.6334,8.6187,8.5967,8.5233,8.4572,8.4132,8.3838,8.3553,8.3491,8.3959,8.4169,8.4418,8.486,8.4658,8.4587,8.5241,8.5093,8.4786,8.4478,8.4709,8.4609,8.3924,8.3926,8.3901,8.3447,8.3542,8.3708,8.4016,8.4324,8.4478,8.4478,8.417,8.3785,8.317,8.2631,8.2016,8.1477,8.1246,8.1093,8.1093,8.1093,8.1093,8.9955,9.0244,9.0624,8.9392,8.9275,8.8904,8.6701,8.6701,8.6304,8.3727,8.3085,8.29,8.265,8.1274,8.037,8.1075,8.0821,8.0681,0.0,8.215,8.3177,8.3691,8.5159,0.0,0.0,8.4132,8.4071,8.588,8.399,8.4361,8.7961,8.9557,9.1734,9.474,9.6829,9.8495,9.9842,9.9993,9.9745,9.9234,9.8432,9.7848,9.7556,9.7225,9.6655,9.5919,9.6369,9.5409,9.3591,9.518,9.4758,9.3161,9.3455,9.3382,9.3015,9.2134,9.1767,9.1767,9.1767,9.1473,9.0959,9.0665,9.0225,8.9638,8.8536,8.8169,8.8023,8.7215,8.6995,8.6848,8.604,8.582,8.5527,8.4425,8.3765,8.3324,8.303,8.259,8.2311,8.28,8.3053,8.3247,8.3408,8.2862,8.2839,8.404,8.3448,8.2931,8.2931,8.2931,8.2798,8.2378,8.2434,8.2187,8.1541,8.2282,8.2783,8.2783,8.3319,8.3555,8.3555,8.3324,8.2862,8.2324,8.2016,8.1631,8.1093,8.1093,8.1093,8.1093,8.0855,8.0711]}]]